Darstellungsparameter: Aktuell verwendete Einstellungen:
Skalierung der Graphiken ... ?
xyx+y,   Skalierungsfaktor:      Skalierung: Modus: x, Faktor: 1
Darstellungszeitraum ... ?
Vom - - bis: - -   Zeitraum: 06.03.2020 - 03.04.2020
Min/Max/Avg-Anzeige ... ?
Zeige MMA aktuell
Zeige MMA Monat
Zeige MMA alles
Zeige --A aktuell
Zeige --A Monat
Zeige --A alles
Keine MMA-Anzeige
MMA:
Keine MMA-Graphiken
MMA-Basis: 06.03.2020 - 03.04.2020
Quicknavigation für Darstellung... ?
Tage:      1T, 2T, 3T, 5T -1T -2T -3T -5T +1T +2T +3T +5T
Wochen: 1W, 2W, 3W -1W -2W -3W +1W +2W +3W
Monate: 1M, 3M, 6M -1M -3M -6M +1M +3M +6M
Jahre:    1J, 3J, 5J, 10J -1J -3J -5J -10J +1J +3J +5J +10J
Nutze für die Darstellung ... ?
Originaldaten oder Mittelwerte auf ...
Stundenbasis Tagesbasis Wochenbasis
Monatsbasis Jahresbasis      Datenbasis: Original-Daten
Darstellen als:
Statistik (Auto) Statistik J:M      Darstellung:
Zur Graphik,    zurück zur Übersicht aller Sensoren.
 
Tabellarische Datenbersicht: ?
 
Sensor: Nr:Datum:Temp:Feuchte:
Aussen-T/F 1 06-03-2020 00:08:17 6.1 C 44 %
2 06-03-2020 00:18:17 6.2 C 44 %
3 06-03-2020 00:28:18 6.2 C 44 %
4 06-03-2020 00:38:18 6.2 C 44 %
5 06-03-2020 00:48:17 6.3 C 44 %
6 06-03-2020 00:58:17 6.4 C 44 %
7 06-03-2020 01:08:18 6.6 C 44 %
8 06-03-2020 01:18:17 6.7 C 44 %
9 06-03-2020 01:28:17 7 C 43 %
10 06-03-2020 01:38:18 7.1 C 43 %
11 06-03-2020 01:48:17 7.3 C 40 %
12 06-03-2020 01:58:18 6.9 C 40 %
13 06-03-2020 02:08:18 6.9 C 40 %
14 06-03-2020 02:18:18 6.9 C 40 %
15 06-03-2020 02:28:18 6.5 C 40 %
16 06-03-2020 02:38:17 6.4 C 41 %
17 06-03-2020 02:48:17 6.4 C 40 %
18 06-03-2020 02:58:17 6.4 C 40 %
19 06-03-2020 03:08:17 6.2 C 40 %
20 06-03-2020 03:18:18 6.2 C 40 %
21 06-03-2020 03:28:18 6.4 C 40 %
22 06-03-2020 03:38:18 6 C 40 %
23 06-03-2020 03:48:17 5.8 C 41 %
24 06-03-2020 03:58:18 5.6 C 43 %
25 06-03-2020 04:08:17 5.5 C 44 %
Sensor: Nr:Datum:Temp:Feuchte:
Aussen-T/F 26 06-03-2020 04:18:17 5.4 C 45 %
27 06-03-2020 04:28:17 5.5 C 45 %
28 06-03-2020 04:38:18 5.4 C 45 %
29 06-03-2020 04:48:17 5.4 C 46 %
30 06-03-2020 04:58:18 5.5 C 45 %
31 06-03-2020 05:08:18 5.6 C 44 %
32 06-03-2020 05:18:18 5.6 C 44 %
33 06-03-2020 05:28:18 5.6 C 45 %
34 06-03-2020 05:38:18 5.8 C 44 %
35 06-03-2020 05:48:17 5.8 C 44 %
36 06-03-2020 05:58:17 5.8 C 44 %
37 06-03-2020 06:08:17 5.8 C 45 %
38 06-03-2020 06:18:17 5.8 C 45 %
39 06-03-2020 06:28:17 5.9 C 45 %
40 06-03-2020 06:38:18 6 C 44 %
41 06-03-2020 06:48:17 6 C 44 %
42 06-03-2020 06:58:17 6.1 C 45 %
43 06-03-2020 07:08:17 6 C 45 %
44 06-03-2020 07:18:18 6 C 45 %
45 06-03-2020 07:28:18 6 C 45 %
46 06-03-2020 07:38:18 6 C 45 %
47 06-03-2020 07:48:17 5.9 C 45 %
48 06-03-2020 07:58:18 5.6 C 43 %
49 06-03-2020 08:08:17 5.3 C 42 %
50 06-03-2020 08:18:17 5 C 41 %
Sensor: Nr:Datum:Temp:Feuchte:
Aussen-T/F 51 06-03-2020 08:28:17 4.9 C 42 %
52 06-03-2020 08:38:17 4.9 C 43 %
53 06-03-2020 08:48:18 4.8 C 44 %
54 06-03-2020 08:58:18 4.8 C 44 %
55 06-03-2020 09:08:17 4.9 C 44 %
56 06-03-2020 09:18:17 4.9 C 43 %
57 06-03-2020 09:28:17 4.9 C 42 %
58 06-03-2020 09:38:18 4.8 C 42 %
59 06-03-2020 09:48:18 4.9 C 42 %
60 06-03-2020 09:58:18 4.8 C 41 %
61 06-03-2020 10:08:18 4.9 C 41 %
62 06-03-2020 10:18:18 4.7 C 42 %
63 06-03-2020 10:28:18 4.7 C 41 %
64 06-03-2020 10:38:18 4.7 C 41 %
65 06-03-2020 10:48:17 4.8 C 41 %
66 06-03-2020 10:58:18 4.9 C 41 %
67 06-03-2020 11:08:18 5 C 40 %
68 06-03-2020 11:18:18 5.2 C 40 %
69 06-03-2020 11:28:18 5.3 C 40 %
70 06-03-2020 11:38:18 5.1 C 40 %
71 06-03-2020 11:48:17 4.9 C 41 %
72 06-03-2020 11:58:17 4.7 C 41 %
73 06-03-2020 12:08:17 4.6 C 41 %
74 06-03-2020 12:18:17 4.5 C 41 %
75 06-03-2020 12:28:17 4.6 C 41 %
Sensor: Nr:Datum:Temp:Feuchte:
Aussen-T/F 76 06-03-2020 12:38:18 4.4 C 41 %
77 06-03-2020 12:48:18 4.6 C 41 %
78 06-03-2020 12:58:18 4.5 C 41 %
79 06-03-2020 13:08:18 4.7 C 41 %
80 06-03-2020 13:18:18 5 C 40 %
81 06-03-2020 13:28:18 5.1 C 40 %
82 06-03-2020 13:38:17 5.3 C 40 %
83 06-03-2020 13:48:17 5.1 C 40 %
84 06-03-2020 13:58:17 5 C 40 %
85 06-03-2020 14:08:17 4.8 C 41 %
86 06-03-2020 14:18:17 4.8 C 41 %
87 06-03-2020 14:28:17 4.8 C 41 %
88 06-03-2020 14:38:17 5 C 40 %
89 06-03-2020 14:48:17 5.3 C 40 %
90 06-03-2020 14:58:17 5.3 C 40 %
91 06-03-2020 15:08:17 5.4 C 39 %
92 06-03-2020 15:18:17 5.6 C 39 %
93 06-03-2020 15:28:17 5.8 C 39 %
94 06-03-2020 15:38:18 5.9 C 38 %
95 06-03-2020 15:48:17 5.8 C 38 %
96 06-03-2020 15:58:17 6 C 37 %
97 06-03-2020 16:08:17 6.1 C 37 %
98 06-03-2020 16:18:18 6.1 C 37 %
99 06-03-2020 16:28:18 6.1 C 37 %
100 06-03-2020 16:38:18 6.1 C 38 %
Sensor: Nr:Datum:Temp:Feuchte:
Aussen-T/F 101 06-03-2020 16:48:17 6 C 38 %
102 06-03-2020 16:58:17 6.3 C 38 %
103 06-03-2020 17:08:18 6.5 C 38 %
104 06-03-2020 17:18:18 6.9 C 37 %
105 06-03-2020 17:28:18 6.8 C 37 %
106 06-03-2020 17:38:18 6.8 C 37 %
107 06-03-2020 17:48:17 6.9 C 37 %
108 06-03-2020 17:58:18 6.7 C 37 %
109 06-03-2020 18:08:18 6.8 C 37 %
110 06-03-2020 18:18:18 6.6 C 37 %
111 06-03-2020 18:28:18 5.9 C 38 %
112 06-03-2020 18:38:18 6 C 37 %
113 06-03-2020 18:48:17 6.5 C 37 %
114 06-03-2020 18:58:18 6.4 C 37 %
115 06-03-2020 19:08:18 6.5 C 37 %
116 06-03-2020 19:18:18 6.3 C 37 %
117 06-03-2020 19:28:18 6.2 C 37 %
118 06-03-2020 19:38:18 6.3 C 37 %
119 06-03-2020 19:48:17 6.3 C 37 %
120 06-03-2020 19:58:17 6.2 C 36 %
121 06-03-2020 20:08:18 6.2 C 36 %
122 06-03-2020 20:18:18 5.9 C 37 %
123 06-03-2020 20:28:18 5.7 C 37 %
124 06-03-2020 20:38:18 5.5 C 38 %
125 06-03-2020 20:48:17 5.4 C 38 %
Sensor: Nr:Datum:Temp:Feuchte:
Aussen-T/F 126 06-03-2020 20:58:17 5.2 C 38 %
127 06-03-2020 21:08:17 5.3 C 38 %
128 06-03-2020 21:18:18 5.1 C 38 %
129 06-03-2020 21:28:18 5.2 C 38 %
130 06-03-2020 21:38:18 5.2 C 37 %
131 06-03-2020 21:48:17 4.9 C 38 %
132 06-03-2020 21:58:18 4.7 C 39 %
133 06-03-2020 22:08:17 4.8 C 39 %
134 06-03-2020 22:18:17 5.1 C 38 %
135 06-03-2020 22:28:18 5 C 38 %
136 06-03-2020 22:38:18 5.2 C 38 %
137 06-03-2020 22:48:17 5.3 C 38 %
138 06-03-2020 22:58:17 5.3 C 38 %
139 06-03-2020 23:08:18 5.2 C 38 %
140 06-03-2020 23:18:18 5.3 C 38 %
141 06-03-2020 23:28:18 5.2 C 37 %
142 06-03-2020 23:38:17 5.3 C 37 %
143 06-03-2020 23:48:17 5.3 C 37 %
144 06-03-2020 23:58:17 5.1 C 38 %
145 07-03-2020 00:08:17 5.1 C 37 %
146 07-03-2020 00:18:18 5.1 C 37 %
147 07-03-2020 00:28:18 5.1 C 37 %
148 07-03-2020 00:38:17 5.1 C 37 %
149 07-03-2020 00:48:17 5.1 C 37 %
150 07-03-2020 00:58:17 5 C 37 %
Sensor: Nr:Datum:Temp:Feuchte:
Aussen-T/F 151 07-03-2020 01:08:17 5.1 C 38 %
152 07-03-2020 01:18:17 5.1 C 38 %
153 07-03-2020 01:28:17 5.1 C 38 %
154 07-03-2020 01:38:18 5.3 C 37 %
155 07-03-2020 01:48:18 5.2 C 38 %
156 07-03-2020 01:58:18 5.2 C 38 %
157 07-03-2020 02:08:18 5.2 C 38 %
158 07-03-2020 02:18:17 5.3 C 38 %
159 07-03-2020 02:28:17 5.1 C 38 %
160 07-03-2020 02:38:17 5.1 C 38 %
161 07-03-2020 02:48:18 5.1 C 38 %
162 07-03-2020 02:58:18 5.1 C 38 %
163 07-03-2020 03:08:18 4.9 C 39 %
164 07-03-2020 03:18:17 4.7 C 40 %
165 07-03-2020 03:28:17 4.6 C 40 %
166 07-03-2020 03:38:17 4.7 C 40 %
167 07-03-2020 03:48:17 4.7 C 39 %
168 07-03-2020 03:58:17 4.6 C 40 %
169 07-03-2020 04:08:18 4.6 C 40 %
170 07-03-2020 04:18:17 4.7 C 40 %
171 07-03-2020 04:28:17 4.8 C 39 %
172 07-03-2020 04:38:18 4.7 C 39 %
173 07-03-2020 04:48:17 4.7 C 39 %
174 07-03-2020 04:58:18 4.7 C 39 %
175 07-03-2020 05:08:18 4.6 C 39 %
Sensor: Nr:Datum:Temp:Feuchte:
Aussen-T/F 176 07-03-2020 05:18:18 4.6 C 39 %
177 07-03-2020 05:28:18 4.6 C 39 %
178 07-03-2020 05:38:18 4.6 C 39 %
179 07-03-2020 05:48:18 4.5 C 39 %
180 07-03-2020 05:58:18 4.5 C 39 %
181 07-03-2020 06:08:17 4.6 C 39 %
182 07-03-2020 06:18:17 4.6 C 40 %
183 07-03-2020 06:28:17 4.6 C 39 %
184 07-03-2020 06:38:18 4.5 C 39 %
185 07-03-2020 06:48:17 4.5 C 39 %
186 07-03-2020 06:58:17 4.5 C 39 %
187 07-03-2020 07:08:18 4.5 C 39 %
188 07-03-2020 07:18:18 4.4 C 39 %
189 07-03-2020 07:28:18 4.4 C 39 %
190 07-03-2020 07:38:18 4.3 C 40 %
191 07-03-2020 07:48:17 4 C 40 %
192 07-03-2020 07:58:17 3.7 C 42 %
193 07-03-2020 08:08:18 3.7 C 45 %
194 07-03-2020 08:18:17 3.7 C 44 %
195 07-03-2020 08:28:17 3.9 C 43 %
196 07-03-2020 08:38:17 4 C 42 %
197 07-03-2020 08:48:17 4.4 C 41 %
198 07-03-2020 08:58:17 4.7 C 40 %
199 07-03-2020 09:08:17 5.1 C 38 %
200 07-03-2020 09:18:17 5.3 C 37 %
Sensor: Nr:Datum:Temp:Feuchte:
Aussen-T/F 201 07-03-2020 09:28:17 5.6 C 37 %
202 07-03-2020 09:38:17 5.7 C 36 %
203 07-03-2020 09:48:17 6.3 C 36 %
204 07-03-2020 09:58:17 6.5 C 35 %
205 07-03-2020 10:08:17 6.1 C 35 %
206 07-03-2020 10:18:17 5.7 C 36 %
207 07-03-2020 10:28:17 6.5 C 36 %
208 07-03-2020 10:38:17 6.4 C 35 %
209 07-03-2020 10:48:18 7 C 35 %
210 07-03-2020 10:58:18 7.3 C 35 %
211 07-03-2020 11:08:18 7.3 C 34 %
212 07-03-2020 11:18:18 7.8 C 32 %
213 07-03-2020 11:28:18 7.6 C 31 %
214 07-03-2020 11:38:18 7.8 C 30 %
215 07-03-2020 11:48:17 9.7 C 25 %
216 07-03-2020 11:58:18 7.6 C 29 %
217 07-03-2020 12:08:18 7.6 C 29 %
218 07-03-2020 12:18:18 7.8 C 29 %
219 07-03-2020 12:28:18 7.8 C 30 %
220 07-03-2020 12:38:17 8.2 C 30 %
221 07-03-2020 12:48:18 7.5 C 28 %
222 07-03-2020 12:58:18 8 C 27 %
223 07-03-2020 13:08:17 9.5 C 26 %
224 07-03-2020 13:18:18 9.1 C 21 %
225 07-03-2020 13:28:18 9.1 C 25 %
Sensor: Nr:Datum:Temp:Feuchte:
Aussen-T/F 226 07-03-2020 13:38:18 8.8 C 26 %
227 07-03-2020 13:48:18 9.1 C 26 %
228 07-03-2020 13:58:18 10 C 25 %
229 07-03-2020 14:08:17 8.9 C 26 %
230 07-03-2020 14:18:17 10.5 C 20 %
231 07-03-2020 14:28:17 10.1 C 20 %
232 07-03-2020 14:38:18 9.8 C 20 %
233 07-03-2020 14:48:17 11.6 C 20 %
234 07-03-2020 14:58:18 11.5 C 20 %
235 07-03-2020 15:08:18 12.4 C 20 %
236 07-03-2020 15:18:18 11.1 C 20 %
237 07-03-2020 15:28:18 9.8 C 20 %
238 07-03-2020 15:38:17 12.4 C 20 %
239 07-03-2020 15:48:18 10.8 C 20 %
240 07-03-2020 15:58:18 9.5 C 20 %
241 07-03-2020 16:08:17 11.7 C 20 %
242 07-03-2020 16:18:17 10.4 C 20 %
243 07-03-2020 16:28:17 9.6 C 20 %
244 07-03-2020 16:38:17 9.1 C 20 %
245 07-03-2020 16:48:18 8.9 C 20 %
246 07-03-2020 16:58:18 8.8 C 20 %
247 07-03-2020 17:08:18 8.8 C 20 %
248 07-03-2020 17:18:18 8.5 C 20 %
249 07-03-2020 17:28:18 8.5 C 20 %
250 07-03-2020 17:38:18 8.6 C 25 %
Sensor: Nr:Datum:Temp:Feuchte:
Aussen-T/F 251 07-03-2020 17:48:18 8.4 C 25 %
252 07-03-2020 17:58:18 7.1 C 31 %
253 07-03-2020 18:08:17 6.7 C 31 %
254 07-03-2020 18:19:17 6.3 C 33 %
255 07-03-2020 18:28:17 5.7 C 34 %
256 07-03-2020 18:38:18 5.2 C 35 %
257 07-03-2020 18:48:18 4.9 C 36 %
258 07-03-2020 18:58:18 5 C 35 %
259 07-03-2020 19:08:17 4.9 C 36 %
260 07-03-2020 19:18:17 4.7 C 36 %
261 07-03-2020 19:28:17 4.4 C 37 %
262 07-03-2020 19:38:17 4.5 C 37 %
263 07-03-2020 19:48:18 4.7 C 37 %
264 07-03-2020 19:58:18 4.5 C 37 %
265 07-03-2020 20:08:18 4.2 C 38 %
266 07-03-2020 20:18:17 4.4 C 38 %
267 07-03-2020 20:28:17 4.6 C 39 %
268 07-03-2020 20:38:17 4.6 C 38 %
269 07-03-2020 20:49:17 4.5 C 38 %
270 07-03-2020 20:59:17 4.5 C 38 %
271 07-03-2020 21:09:17 4.5 C 39 %
272 07-03-2020 21:18:17 4.5 C 39 %
273 07-03-2020 21:28:17 4.7 C 39 %
274 07-03-2020 21:38:17 4.7 C 38 %
275 07-03-2020 21:48:18 5.1 C 37 %
Sensor: Nr:Datum:Temp:Feuchte:
Aussen-T/F 276 07-03-2020 21:58:18 5.1 C 37 %
277 07-03-2020 22:08:17 5.3 C 37 %
278 07-03-2020 22:18:18 5.5 C 36 %
279 07-03-2020 22:28:18 5.6 C 36 %
280 07-03-2020 22:38:17 5.5 C 36 %
281 07-03-2020 22:49:17 5.5 C 36 %
282 07-03-2020 22:59:17 5.8 C 36 %
283 07-03-2020 23:09:17 6.2 C 35 %
284 07-03-2020 23:19:17 6.3 C 35 %
285 07-03-2020 23:29:17 6.4 C 35 %
286 07-03-2020 23:38:17 6.4 C 34 %
287 07-03-2020 23:48:18 6.4 C 34 %
288 07-03-2020 23:58:18 6.5 C 34 %
289 08-03-2020 00:08:18 6.5 C 35 %
290 08-03-2020 00:18:18 6.4 C 35 %
291 08-03-2020 00:28:18 6.8 C 35 %
292 08-03-2020 00:38:18 6.7 C 35 %
293 08-03-2020 00:48:18 7 C 34 %
294 08-03-2020 00:58:18 7.1 C 35 %
295 08-03-2020 01:08:17 7.1 C 34 %
296 08-03-2020 01:18:17 6.8 C 35 %
297 08-03-2020 01:28:17 6.9 C 35 %
298 08-03-2020 01:38:17 6.7 C 35 %
299 08-03-2020 01:49:17 6.9 C 35 %
300 08-03-2020 01:59:17 6.7 C 35 %
Sensor: Nr:Datum:Temp:Feuchte:
Aussen-T/F 301 08-03-2020 02:09:17 6.8 C 35 %
302 08-03-2020 02:19:17 7 C 35 %
303 08-03-2020 02:29:17 6.9 C 35 %
304 08-03-2020 02:38:17 7.3 C 35 %
305 08-03-2020 02:48:17 7.2 C 35 %
306 08-03-2020 02:58:17 7 C 35 %
307 08-03-2020 03:08:18 7.1 C 35 %
308 08-03-2020 03:19:17 6.7 C 35 %
309 08-03-2020 03:29:17 6.4 C 36 %
310 08-03-2020 03:39:17 6.5 C 36 %
311 08-03-2020 03:48:18 6.6 C 36 %
312 08-03-2020 03:58:18 6.8 C 35 %
313 08-03-2020 04:08:18 7 C 35 %
314 08-03-2020 04:19:17 7.1 C 35 %
315 08-03-2020 04:29:17 7 C 35 %
316 08-03-2020 04:39:17 7 C 35 %
317 08-03-2020 04:49:17 6.8 C 35 %
318 08-03-2020 04:59:17 6.9 C 35 %
319 08-03-2020 05:09:17 7 C 35 %
320 08-03-2020 05:19:17 6.8 C 35 %
321 08-03-2020 05:29:17 6.5 C 35 %
322 08-03-2020 05:39:17 6.8 C 35 %
323 08-03-2020 05:49:17 6.6 C 35 %
324 08-03-2020 05:59:17 6.4 C 35 %
325 08-03-2020 06:09:17 6.4 C 35 %
Sensor: Nr:Datum:Temp:Feuchte:
Aussen-T/F 326 08-03-2020 06:19:17 5.9 C 37 %
327 08-03-2020 06:29:18 6.3 C 36 %
328 08-03-2020 06:39:18 6.6 C 36 %
329 08-03-2020 06:49:17 6.9 C 36 %
330 08-03-2020 06:59:17 7.3 C 35 %
331 08-03-2020 07:09:17 7.4 C 35 %
332 08-03-2020 07:19:17 7.7 C 35 %
333 08-03-2020 07:29:17 7.8 C 35 %
334 08-03-2020 07:39:17 7.9 C 35 %
335 08-03-2020 07:49:17 8 C 35 %
336 08-03-2020 07:59:17 8.2 C 34 %
337 08-03-2020 08:09:17 8.2 C 34 %
338 08-03-2020 08:19:17 8.4 C 34 %
339 08-03-2020 08:29:17 8.6 C 34 %
340 08-03-2020 08:39:17 8.5 C 35 %
341 08-03-2020 08:49:17 8.6 C 34 %
342 08-03-2020 08:59:17 8.6 C 34 %
343 08-03-2020 09:09:17 8.6 C 34 %
344 08-03-2020 09:19:17 8.8 C 34 %
345 08-03-2020 09:29:18 9.2 C 33 %
346 08-03-2020 09:39:17 9.6 C 33 %
347 08-03-2020 09:49:17 10.3 C 32 %
348 08-03-2020 09:59:17 10.2 C 32 %
349 08-03-2020 10:09:17 9.9 C 33 %
350 08-03-2020 10:19:17 10.1 C 32 %
Sensor: Nr:Datum:Temp:Feuchte:
Aussen-T/F 351 08-03-2020 10:29:17 10.1 C 32 %
352 08-03-2020 10:39:17 11.4 C 30 %
353 08-03-2020 10:49:17 11.2 C 30 %
354 08-03-2020 10:59:18 11.9 C 30 %
355 08-03-2020 11:09:17 11.9 C 28 %
356 08-03-2020 11:19:16 11.9 C 29 %
357 08-03-2020 11:29:16 12.1 C 27 %
358 08-03-2020 11:39:17 12.5 C 26 %
359 08-03-2020 11:49:16 12.5 C 26 %
360 08-03-2020 11:59:16 13.4 C 25 %
361 08-03-2020 12:09:17 12.8 C 25 %
362 08-03-2020 12:19:17 13.1 C 25 %
363 08-03-2020 12:29:17 13.5 C 23 %
364 08-03-2020 12:39:17 13.2 C 24 %
365 08-03-2020 12:49:17 14.1 C 22 %
366 08-03-2020 12:59:18 13.2 C 22 %
367 08-03-2020 13:09:17 12.2 C 25 %
368 08-03-2020 13:19:16 12.3 C 25 %
369 08-03-2020 13:29:16 12.3 C 25 %
370 08-03-2020 13:39:16 12.7 C 25 %
371 08-03-2020 13:49:17 12.7 C 25 %
372 08-03-2020 13:59:17 12.5 C 25 %
373 08-03-2020 14:09:17 13 C 23 %
374 08-03-2020 14:19:16 12.8 C 25 %
375 08-03-2020 14:29:16 12.5 C 25 %
Sensor: Nr:Datum:Temp:Feuchte:
Aussen-T/F 376 08-03-2020 14:39:16 12.8 C 25 %
377 08-03-2020 14:49:16 12.7 C 25 %
378 08-03-2020 14:59:16 12.3 C 25 %
379 08-03-2020 15:09:16 12.8 C 25 %
380 08-03-2020 15:19:17 12.5 C 25 %
381 08-03-2020 15:29:17 12.5 C 25 %
382 08-03-2020 15:39:17 12.1 C 25 %
383 08-03-2020 15:49:17 12 C 25 %
384 08-03-2020 15:59:17 12.1 C 25 %
385 08-03-2020 16:09:17 12.5 C 25 %
386 08-03-2020 16:19:17 12.4 C 25 %
387 08-03-2020 16:29:17 12.1 C 25 %
388 08-03-2020 16:39:17 12.2 C 26 %
389 08-03-2020 16:49:17 12.2 C 26 %
390 08-03-2020 16:59:17 12 C 26 %
391 08-03-2020 17:09:17 12.6 C 25 %
392 08-03-2020 17:19:17 12.4 C 26 %
393 08-03-2020 17:29:17 12.3 C 26 %
394 08-03-2020 17:39:17 12 C 26 %
395 08-03-2020 17:49:16 11.5 C 28 %
396 08-03-2020 17:59:16 11.4 C 29 %
397 08-03-2020 18:09:17 11.1 C 30 %
398 08-03-2020 18:19:17 10.9 C 31 %
399 08-03-2020 18:29:18 10.7 C 31 %
400 08-03-2020 18:39:17 10.4 C 32 %
Sensor: Nr:Datum:Temp:Feuchte:
Aussen-T/F 401 08-03-2020 18:49:16 10.2 C 32 %
402 08-03-2020 18:59:16 9.6 C 35 %
403 08-03-2020 19:09:17 9.9 C 35 %
404 08-03-2020 19:19:16 9.8 C 35 %
405 08-03-2020 19:29:16 9.6 C 36 %
406 08-03-2020 19:39:17 9.4 C 36 %
407 08-03-2020 19:49:16 9.5 C 36 %
408 08-03-2020 19:59:16 9.5 C 36 %
409 08-03-2020 20:09:16 9.4 C 36 %
410 08-03-2020 20:19:16 9.3 C 36 %
411 08-03-2020 20:29:16 9.3 C 37 %
412 08-03-2020 20:39:17 9.2 C 37 %
413 08-03-2020 20:49:16 9.2 C 37 %
414 08-03-2020 20:59:16 9 C 37 %
415 08-03-2020 21:09:17 9 C 37 %
416 08-03-2020 21:19:17 9.1 C 37 %
417 08-03-2020 21:29:17 9.1 C 37 %
418 08-03-2020 21:39:17 9.3 C 37 %
419 08-03-2020 21:49:17 9.3 C 37 %
420 08-03-2020 21:59:17 9.3 C 37 %
421 08-03-2020 22:09:17 9.3 C 37 %
422 08-03-2020 22:19:16 9.3 C 37 %
423 08-03-2020 22:29:16 8.9 C 37 %
424 08-03-2020 22:39:17 9.2 C 37 %
425 08-03-2020 22:49:16 8.7 C 37 %
Sensor: Nr:Datum:Temp:Feuchte:
Aussen-T/F 426 08-03-2020 22:59:16 9 C 37 %
427 08-03-2020 23:09:16 9.3 C 37 %
428 08-03-2020 23:19:16 7.9 C 39 %
429 08-03-2020 23:29:16 7.8 C 40 %
430 08-03-2020 23:39:16 7.9 C 40 %
431 08-03-2020 23:49:16 7.9 C 39 %
432 08-03-2020 23:59:16 7.6 C 40 %
433 09-03-2020 00:09:17 7.3 C 41 %
434 09-03-2020 00:19:16 7 C 41 %
435 09-03-2020 00:29:16 6.8 C 43 %
436 09-03-2020 00:39:16 6.8 C 44 %
437 09-03-2020 00:49:16 6.6 C 45 %
438 09-03-2020 00:59:16 6.8 C 43 %
439 09-03-2020 01:09:16 6.9 C 42 %
440 09-03-2020 01:19:16 6.9 C 43 %
441 09-03-2020 01:29:16 6.7 C 45 %
442 09-03-2020 01:39:16 6.8 C 43 %
443 09-03-2020 01:49:16 6.9 C 42 %
444 09-03-2020 01:59:16 6.7 C 43 %
445 09-03-2020 02:09:16 6.6 C 43 %
446 09-03-2020 02:19:16 6.4 C 44 %
447 09-03-2020 02:29:16 6.3 C 45 %
448 09-03-2020 02:39:16 6.2 C 45 %
449 09-03-2020 02:49:17 6.4 C 45 %
450 09-03-2020 02:59:17 6.4 C 44 %
Sensor: Nr:Datum:Temp:Feuchte:
Aussen-T/F 451 09-03-2020 03:09:17 6.1 C 44 %
452 09-03-2020 03:19:17 6.5 C 43 %
453 09-03-2020 03:29:17 6.7 C 42 %
454 09-03-2020 03:39:17 6.4 C 42 %
455 09-03-2020 03:49:17 6.2 C 43 %
456 09-03-2020 03:59:17 6 C 44 %
457 09-03-2020 04:09:17 5.7 C 45 %
458 09-03-2020 04:19:17 5.5 C 45 %
459 09-03-2020 04:29:17 6.1 C 44 %
460 09-03-2020 04:39:18 6.3 C 43 %
461 09-03-2020 04:49:17 6.2 C 43 %
462 09-03-2020 04:59:17 6.2 C 43 %
463 09-03-2020 05:09:18 6.2 C 43 %
464 09-03-2020 05:19:17 6 C 43 %
465 09-03-2020 05:29:17 5.8 C 44 %
466 09-03-2020 05:39:17 5.6 C 44 %
467 09-03-2020 05:49:17 5.2 C 44 %
468 09-03-2020 05:59:17 5.3 C 43 %
469 09-03-2020 06:09:17 5 C 43 %
470 09-03-2020 06:19:17 5.2 C 43 %
471 09-03-2020 06:29:17 5.1 C 43 %
472 09-03-2020 06:39:18 5.4 C 42 %
473 09-03-2020 06:49:17 5.7 C 41 %
474 09-03-2020 06:59:18 5.7 C 41 %
475 09-03-2020 07:09:18 5 C 42 %
Sensor: Nr:Datum:Temp:Feuchte:
Aussen-T/F 476 09-03-2020 07:19:18 4.7 C 44 %
477 09-03-2020 07:29:18 5.7 C 42 %
478 09-03-2020 07:39:17 5.8 C 41 %
479 09-03-2020 07:49:17 5.4 C 41 %
480 09-03-2020 07:59:17 5.4 C 42 %
481 09-03-2020 08:09:17 5.4 C 42 %
482 09-03-2020 08:19:17 5 C 43 %
483 09-03-2020 08:29:17 5.3 C 43 %
484 09-03-2020 08:39:18 6.1 C 41 %
485 09-03-2020 08:49:17 6.8 C 40 %
486 09-03-2020 08:59:17 7.3 C 38 %
487 09-03-2020 09:09:17 7.4 C 38 %
488 09-03-2020 09:19:17 7.7 C 37 %
489 09-03-2020 09:29:17 8 C 37 %
490 09-03-2020 09:39:17 8.1 C 37 %
491 09-03-2020 09:49:17 8 C 37 %
492 09-03-2020 09:59:17 7.8 C 37 %
493 09-03-2020 10:09:17 8.3 C 36 %
494 09-03-2020 10:19:17 8.2 C 36 %
495 09-03-2020 10:29:17 8.5 C 36 %
496 09-03-2020 10:39:17 8.6 C 36 %
497 09-03-2020 10:49:17 8.5 C 36 %
498 09-03-2020 10:59:17 8.1 C 36 %
499 09-03-2020 11:09:17 8.1 C 36 %
500 09-03-2020 11:19:17 8.5 C 36 %
Sensor: Nr:Datum:Temp:Feuchte:
Aussen-T/F 501 09-03-2020 11:29:17 9.7 C 34 %
502 09-03-2020 11:39:17 9.1 C 34 %
503 09-03-2020 11:49:17 10.1 C 33 %
504 09-03-2020 11:59:17 10.6 C 29 %
505 09-03-2020 12:09:18 10.9 C 27 %
506 09-03-2020 12:19:18 11.2 C 25 %
507 09-03-2020 12:29:18 10.1 C 26 %
508 09-03-2020 12:39:18 10.3 C 26 %
509 09-03-2020 12:49:17 11 C 25 %
510 09-03-2020 12:59:17 10.1 C 26 %
511 09-03-2020 13:09:17 11.6 C 26 %
512 09-03-2020 13:19:17 9.8 C 29 %
513 09-03-2020 13:29:17 9.5 C 31 %
514 09-03-2020 13:39:17 10.5 C 30 %
515 09-03-2020 13:49:17 10.4 C 29 %
516 09-03-2020 13:59:17 10.5 C 29 %
517 09-03-2020 14:09:17 11.6 C 27 %
518 09-03-2020 14:19:17 11.5 C 26 %
519 09-03-2020 14:29:17 10.4 C 27 %
520 09-03-2020 14:39:17 11.6 C 26 %
521 09-03-2020 14:49:17 12.8 C 20 %
522 09-03-2020 14:59:17 13.6 C 20 %
523 09-03-2020 15:09:18 12.6 C 20 %
524 09-03-2020 15:19:18 13 C 20 %
525 09-03-2020 15:29:18 12.9 C 20 %
Sensor: Nr:Datum:Temp:Feuchte:
Aussen-T/F 526 09-03-2020 15:39:18 14.4 C 20 %
527 09-03-2020 15:49:17 14 C 20 %
528 09-03-2020 15:59:17 12.5 C 20 %
529 09-03-2020 16:09:18 11.2 C 20 %
530 09-03-2020 16:19:17 10.5 C 22 %
531 09-03-2020 16:29:17 10.7 C 23 %
532 09-03-2020 16:39:17 13.3 C 20 %
533 09-03-2020 16:49:17 14.2 C 20 %
534 09-03-2020 16:59:18 14.1 C 20 %
535 09-03-2020 17:09:18 12.2 C 20 %
536 09-03-2020 17:19:17 10.1 C 20 %
537 09-03-2020 17:29:17 9.9 C 25 %
538 09-03-2020 17:39:18 9.8 C 25 %
539 09-03-2020 17:49:17 9.7 C 27 %
540 09-03-2020 17:59:18 9.7 C 26 %
541 09-03-2020 18:09:18 9.5 C 27 %
542 09-03-2020 18:19:17 9.2 C 28 %
543 09-03-2020 18:29:17 8.9 C 30 %
544 09-03-2020 18:39:17 8.7 C 30 %
545 09-03-2020 18:49:17 8.1 C 30 %
546 09-03-2020 18:59:17 7.7 C 32 %
547 09-03-2020 19:09:18 7.5 C 33 %
548 09-03-2020 19:19:17 7.4 C 33 %
549 09-03-2020 19:29:17 7.6 C 33 %
550 09-03-2020 19:39:17 7.4 C 34 %
Sensor: Nr:Datum:Temp:Feuchte:
Aussen-T/F 551 09-03-2020 19:49:18 7.3 C 33 %
552 09-03-2020 19:59:18 7.2 C 34 %
553 09-03-2020 20:09:17 6.5 C 36 %
554 09-03-2020 20:19:17 6.9 C 35 %
555 09-03-2020 20:29:17 6.5 C 36 %
556 09-03-2020 20:39:18 6.5 C 36 %
557 09-03-2020 20:49:18 6.7 C 36 %
558 09-03-2020 20:59:18 6.8 C 35 %
559 09-03-2020 21:09:17 5.9 C 37 %
560 09-03-2020 21:19:17 5.6 C 38 %
561 09-03-2020 21:29:17 5.5 C 38 %
562 09-03-2020 21:39:17 5.4 C 38 %
563 09-03-2020 21:49:18 5.4 C 38 %
564 09-03-2020 21:59:18 5.6 C 38 %
565 09-03-2020 22:09:18 5.4 C 38 %
566 09-03-2020 22:19:17 5.6 C 38 %
567 09-03-2020 22:29:17 5.8 C 38 %
568 09-03-2020 22:39:17 5.8 C 38 %
569 09-03-2020 22:49:17 5.4 C 38 %
570 09-03-2020 22:59:17 5.1 C 39 %
571 09-03-2020 23:09:18 5.1 C 39 %
572 09-03-2020 23:19:17 5.2 C 39 %
573 09-03-2020 23:29:17 5 C 39 %
574 09-03-2020 23:39:17 4.6 C 40 %
575 09-03-2020 23:49:17 4.6 C 41 %
Sensor: Nr:Datum:Temp:Feuchte:
Aussen-T/F 576 09-03-2020 23:59:17 4.5 C 41 %
577 10-03-2020 00:09:17 4.6 C 41 %
578 10-03-2020 00:19:18 4.7 C 41 %
579 10-03-2020 00:29:18 5.1 C 40 %
580 10-03-2020 00:39:18 5.5 C 40 %
581 10-03-2020 00:49:18 5.5 C 40 %
582 10-03-2020 00:59:18 5.8 C 39 %
583 10-03-2020 01:09:18 5.8 C 39 %
584 10-03-2020 01:19:17 5.9 C 39 %
585 10-03-2020 01:29:18 6 C 38 %
586 10-03-2020 01:39:18 6.3 C 38 %
587 10-03-2020 01:49:17 6.7 C 37 %
588 10-03-2020 01:59:17 6.6 C 37 %
589 10-03-2020 02:09:18 6.7 C 37 %
590 10-03-2020 02:19:17 6.6 C 37 %
591 10-03-2020 02:29:18 6.7 C 37 %
592 10-03-2020 02:39:18 6.8 C 37 %
593 10-03-2020 02:49:17 6.9 C 37 %
594 10-03-2020 02:59:17 7.1 C 37 %
595 10-03-2020 03:09:18 6.6 C 38 %
596 10-03-2020 03:19:18 6.5 C 38 %
597 10-03-2020 03:29:18 6.3 C 39 %
598 10-03-2020 03:39:18 6.2 C 39 %
599 10-03-2020 03:49:17 6 C 40 %
600 10-03-2020 03:59:17 6 C 40 %
Sensor: Nr:Datum:Temp:Feuchte:
Aussen-T/F 601 10-03-2020 04:09:17 5.8 C 40 %
602 10-03-2020 04:19:17 5.8 C 40 %
603 10-03-2020 04:29:17 5.6 C 41 %
604 10-03-2020 04:39:17 5.9 C 40 %
605 10-03-2020 04:49:17 5.6 C 41 %
606 10-03-2020 04:59:17 5.5 C 41 %
607 10-03-2020 05:09:17 5.5 C 41 %
608 10-03-2020 05:19:17 5.2 C 41 %
609 10-03-2020 05:29:18 5.2 C 41 %
610 10-03-2020 05:39:18 5.1 C 42 %
611 10-03-2020 05:49:18 5.1 C 42 %
612 10-03-2020 05:59:18 5 C 42 %
613 10-03-2020 06:09:17 4.9 C 43 %
614 10-03-2020 06:19:17 5 C 42 %
615 10-03-2020 06:29:17 4.9 C 43 %
616 10-03-2020 06:39:18 5 C 44 %
617 10-03-2020 06:49:17 5.1 C 43 %
618 10-03-2020 06:59:17 5 C 43 %
619 10-03-2020 07:09:18 5.1 C 42 %
620 10-03-2020 07:19:18 5.3 C 42 %
621 10-03-2020 07:29:18 5.8 C 41 %
622 10-03-2020 07:39:18 5.8 C 42 %
623 10-03-2020 07:49:18 5.7 C 41 %
624 10-03-2020 07:59:18 5.9 C 41 %
625 10-03-2020 08:09:18 6 C 41 %
Sensor: Nr:Datum:Temp:Feuchte:
Aussen-T/F 626 10-03-2020 08:19:18 6 C 41 %
627 10-03-2020 08:29:18 6.3 C 41 %
628 10-03-2020 08:39:18 6.5 C 40 %
629 10-03-2020 08:49:18 6.3 C 41 %
630 10-03-2020 08:59:18 6.5 C 41 %
631 10-03-2020 09:09:17 6.6 C 41 %
632 10-03-2020 09:19:17 6.6 C 41 %
633 10-03-2020 09:29:17 6.7 C 42 %
634 10-03-2020 09:39:17 6.8 C 42 %
635 10-03-2020 09:49:17 6.9 C 42 %
636 10-03-2020 09:59:17 7.1 C 41 %
637 10-03-2020 10:09:18 7.2 C 41 %
638 10-03-2020 10:19:18 7.3 C 41 %
639 10-03-2020 10:29:18 7.4 C 41 %
640 10-03-2020 10:39:18 7.5 C 41 %
641 10-03-2020 10:49:18 7.8 C 41 %
642 10-03-2020 10:59:18 7.9 C 41 %
643 10-03-2020 11:09:18 8.1 C 41 %
644 10-03-2020 11:19:18 8.2 C 40 %
645 10-03-2020 11:29:18 8.4 C 40 %
646 10-03-2020 11:39:18 8.5 C 41 %
647 10-03-2020 11:49:17 8.7 C 41 %
648 10-03-2020 11:59:17 8.9 C 41 %
649 10-03-2020 12:09:17 8.9 C 40 %
650 10-03-2020 12:19:17 8.9 C 41 %
Sensor: Nr:Datum:Temp:Feuchte:
Aussen-T/F 651 10-03-2020 12:29:18 9 C 41 %
652 10-03-2020 12:39:18 9.1 C 41 %
653 10-03-2020 12:49:17 9.1 C 41 %
654 10-03-2020 12:59:17 9.3 C 41 %
655 10-03-2020 13:09:18 9.4 C 40 %
656 10-03-2020 13:19:17 9.5 C 41 %
657 10-03-2020 13:29:18 9.5 C 41 %
658 10-03-2020 13:39:18 9.5 C 41 %
659 10-03-2020 13:49:17 9.7 C 41 %
660 10-03-2020 13:59:18 9.8 C 41 %
661 10-03-2020 14:09:18 9.9 C 41 %
662 10-03-2020 14:19:18 10.2 C 40 %
663 10-03-2020 14:29:18 10.5 C 40 %
664 10-03-2020 14:39:18 10.8 C 40 %
665 10-03-2020 14:49:17 10.9 C 40 %
666 10-03-2020 14:59:17 11.3 C 38 %
667 10-03-2020 15:09:18 11.3 C 38 %
668 10-03-2020 15:19:18 11.4 C 38 %
669 10-03-2020 15:29:18 11.8 C 38 %
670 10-03-2020 15:39:18 12.3 C 37 %
671 10-03-2020 15:49:17 12.3 C 36 %
672 10-03-2020 15:59:18 12.5 C 37 %
673 10-03-2020 16:09:18 13 C 35 %
674 10-03-2020 16:19:18 12.6 C 36 %
675 10-03-2020 16:29:18 12.5 C 37 %
Sensor: Nr:Datum:Temp:Feuchte:
Aussen-T/F 676 10-03-2020 16:39:18 12.4 C 37 %
677 10-03-2020 16:49:17 12.5 C 37 %
678 10-03-2020 16:59:18 12.5 C 37 %
679 10-03-2020 17:09:18 12.7 C 37 %
680 10-03-2020 17:19:17 12.6 C 37 %
681 10-03-2020 17:29:18 12.7 C 37 %
682 10-03-2020 17:39:18 12.6 C 37 %
683 10-03-2020 17:49:17 12.5 C 37 %
684 10-03-2020 17:59:18 12.5 C 38 %
685 10-03-2020 18:09:18 12.3 C 38 %
686 10-03-2020 18:19:17 12.3 C 38 %
687 10-03-2020 18:29:18 12.3 C 38 %
688 10-03-2020 18:39:18 12.5 C 38 %
689 10-03-2020 18:49:17 12.4 C 38 %
690 10-03-2020 18:59:17 12.3 C 38 %
691 10-03-2020 19:09:18 12.5 C 38 %
692 10-03-2020 19:19:17 12.3 C 38 %
693 10-03-2020 19:29:17 12.4 C 38 %
694 10-03-2020 19:39:17 12.5 C 38 %
695 10-03-2020 19:49:17 12.5 C 38 %
696 10-03-2020 19:59:17 12.5 C 38 %
697 10-03-2020 20:09:17 12.5 C 38 %
698 10-03-2020 20:19:17 12.7 C 38 %
699 10-03-2020 20:29:18 12.8 C 38 %
700 10-03-2020 20:39:18 12.8 C 38 %
Sensor: Nr:Datum:Temp:Feuchte:
Aussen-T/F 701 10-03-2020 20:49:17 12.9 C 38 %
702 10-03-2020 20:59:17 13.1 C 37 %
703 10-03-2020 21:09:18 12.8 C 38 %
704 10-03-2020 21:19:17 13.2 C 37 %
705 10-03-2020 21:29:18 13.2 C 37 %
706 10-03-2020 21:39:18 13.2 C 37 %
707 10-03-2020 21:49:17 13.2 C 37 %
708 10-03-2020 21:59:18 13.1 C 37 %
709 10-03-2020 22:09:18 12.8 C 39 %
710 10-03-2020 22:19:18 12.5 C 40 %
711 10-03-2020 22:29:18 12.5 C 40 %
712 10-03-2020 22:39:18 12.7 C 40 %
713 10-03-2020 22:49:17 12.5 C 40 %
714 10-03-2020 22:59:17 12.5 C 40 %
715 10-03-2020 23:09:18 12.8 C 40 %
716 10-03-2020 23:19:18 12.8 C 39 %
717 10-03-2020 23:29:18 12.8 C 39 %
718 10-03-2020 23:39:18 12.8 C 39 %
719 10-03-2020 23:49:17 12.9 C 39 %
720 10-03-2020 23:59:17 13.1 C 37 %
721 11-03-2020 00:09:17 13.5 C 36 %
722 11-03-2020 00:19:17 13.5 C 36 %
723 11-03-2020 00:29:17 13.6 C 36 %
724 11-03-2020 00:39:18 13.7 C 36 %
725 11-03-2020 00:49:17 13.7 C 36 %
Sensor: Nr:Datum:Temp:Feuchte:
Aussen-T/F 726 11-03-2020 00:59:17 13.7 C 36 %
727 11-03-2020 01:09:17 13.5 C 36 %
728 11-03-2020 01:19:17 13.4 C 37 %
729 11-03-2020 01:29:17 13.4 C 37 %
730 11-03-2020 01:39:17 13.3 C 37 %
731 11-03-2020 01:49:17 13 C 38 %
732 11-03-2020 01:59:17 12.9 C 39 %
733 11-03-2020 02:09:17 13.2 C 38 %
734 11-03-2020 02:19:17 13.1 C 38 %
735 11-03-2020 02:29:17 13.1 C 38 %
736 11-03-2020 02:39:17 13.2 C 37 %
737 11-03-2020 02:49:17 13.4 C 37 %
738 11-03-2020 02:59:17 13.5 C 37 %
739 11-03-2020 03:09:17 13.1 C 37 %
740 11-03-2020 03:19:18 13 C 38 %
741 11-03-2020 03:29:18 13.2 C 37 %
742 11-03-2020 03:39:18 13.4 C 37 %
743 11-03-2020 03:49:17 13.5 C 37 %
744 11-03-2020 03:59:18 13.4 C 37 %
745 11-03-2020 04:09:18 13.4 C 37 %
746 11-03-2020 04:19:18 13.4 C 37 %
747 11-03-2020 04:29:18 13.4 C 37 %
748 11-03-2020 04:39:17 13.4 C 37 %
749 11-03-2020 04:49:17 13.5 C 36 %
750 11-03-2020 04:59:17 13.4 C 37 %
Sensor: Nr:Datum:Temp:Feuchte:
Aussen-T/F 751 11-03-2020 05:09:17 13.1 C 37 %
752 11-03-2020 05:19:17 13.1 C 37 %
753 11-03-2020 05:29:17 13.1 C 37 %
754 11-03-2020 05:39:17 13.1 C 37 %
755 11-03-2020 05:49:18 13 C 37 %
756 11-03-2020 05:59:18 12.9 C 38 %
757 11-03-2020 06:09:18 13.1 C 37 %
758 11-03-2020 06:19:17 13.2 C 37 %
759 11-03-2020 06:29:17 13.2 C 36 %
760 11-03-2020 06:39:18 13.2 C 36 %
761 11-03-2020 06:49:17 13.6 C 36 %
762 11-03-2020 06:59:17 13.4 C 36 %
763 11-03-2020 07:09:17 13.2 C 36 %
764 11-03-2020 07:19:17 13.1 C 36 %
765 11-03-2020 07:29:17 13.1 C 36 %
766 11-03-2020 07:39:17 13.1 C 36 %
767 11-03-2020 07:49:17 13.1 C 36 %
768 11-03-2020 07:59:18 12.9 C 37 %
769 11-03-2020 08:09:18 12.8 C 37 %
770 11-03-2020 08:19:18 12.6 C 37 %
771 11-03-2020 08:29:18 12.6 C 37 %
772 11-03-2020 08:39:18 12.7 C 37 %
773 11-03-2020 08:49:18 12.8 C 37 %
774 11-03-2020 08:59:18 12.7 C 37 %
775 11-03-2020 09:09:18 13 C 36 %
Sensor: Nr:Datum:Temp:Feuchte:
Aussen-T/F 776 11-03-2020 09:19:18 13.2 C 36 %
777 11-03-2020 09:29:18 13.6 C 36 %
778 11-03-2020 09:39:18 13.8 C 36 %
779 11-03-2020 09:49:18 14 C 35 %
780 11-03-2020 09:59:18 13.9 C 35 %
781 11-03-2020 10:09:18 13.7 C 36 %
782 11-03-2020 10:19:17 13.8 C 36 %
783 11-03-2020 10:29:17 14 C 35 %
784 11-03-2020 10:39:18 14.3 C 35 %
785 11-03-2020 10:49:18 14.4 C 35 %
786 11-03-2020 10:59:18 14.5 C 35 %
787 11-03-2020 11:09:17 14.9 C 35 %
788 11-03-2020 11:19:17 14.6 C 35 %
789 11-03-2020 11:29:17 15.8 C 33 %
790 11-03-2020 11:39:17 15.8 C 33 %
791 11-03-2020 11:49:17 15.6 C 33 %
792 11-03-2020 11:59:17 15.9 C 33 %
793 11-03-2020 12:09:18 15.9 C 33 %
794 11-03-2020 12:19:18 16.4 C 32 %
795 11-03-2020 12:29:18 16.5 C 32 %
796 11-03-2020 12:39:18 16.3 C 32 %
797 11-03-2020 12:49:18 16.5 C 32 %
798 11-03-2020 12:59:18 16.3 C 32 %
799 11-03-2020 13:09:17 16 C 32 %
800 11-03-2020 13:19:17 17 C 31 %
Sensor: Nr:Datum:Temp:Feuchte:
Aussen-T/F 801 11-03-2020 13:29:17 16.8 C 31 %
802 11-03-2020 13:39:17 17.7 C 31 %
803 11-03-2020 13:49:17 15.8 C 32 %
804 11-03-2020 13:59:17 16.1 C 31 %
805 11-03-2020 14:09:17 16.3 C 31 %
806 11-03-2020 14:19:17 16.1 C 31 %
807 11-03-2020 14:29:17 16.6 C 31 %
808 11-03-2020 14:39:17 15.7 C 31 %
809 11-03-2020 14:49:17 16.2 C 31 %
810 11-03-2020 14:59:17 15.8 C 31 %
811 11-03-2020 15:09:17 16.5 C 31 %
812 11-03-2020 15:19:17 15.6 C 32 %
813 11-03-2020 15:29:18 16.4 C 31 %
814 11-03-2020 15:39:18 17.5 C 30 %
815 11-03-2020 15:49:17 15.1 C 32 %
816 11-03-2020 15:59:17 15.6 C 33 %
817 11-03-2020 16:09:18 15 C 33 %
818 11-03-2020 16:19:18 14.7 C 35 %
819 11-03-2020 16:29:18 15.1 C 34 %
820 11-03-2020 16:39:17 14.5 C 35 %
821 11-03-2020 16:49:18 14.5 C 35 %
822 11-03-2020 16:59:18 14.5 C 34 %
823 11-03-2020 17:09:18 14.1 C 35 %
824 11-03-2020 17:19:18 14 C 35 %
825 11-03-2020 17:29:18 13.2 C 38 %
Sensor: Nr:Datum:Temp:Feuchte:
Aussen-T/F 826 11-03-2020 17:39:17 13.2 C 38 %
827 11-03-2020 17:49:18 13.2 C 38 %
828 11-03-2020 17:59:18 13.4 C 37 %
829 11-03-2020 18:09:18 13.5 C 37 %
830 11-03-2020 18:19:17 13.5 C 36 %
831 11-03-2020 18:29:17 13.3 C 36 %
832 11-03-2020 18:39:17 13.4 C 36 %
833 11-03-2020 18:49:17 13.5 C 36 %
834 11-03-2020 18:59:17 13.4 C 36 %
835 11-03-2020 19:09:17 13.2 C 37 %
836 11-03-2020 19:19:17 13.1 C 37 %
837 11-03-2020 19:29:17 13.1 C 37 %
838 11-03-2020 19:39:18 13.4 C 36 %
839 11-03-2020 19:49:17 13.3 C 36 %
840 11-03-2020 19:59:17 13.2 C 36 %
841 11-03-2020 20:09:17 13.4 C 36 %
842 11-03-2020 20:19:17 13.6 C 36 %
843 11-03-2020 20:29:18 13.6 C 36 %
844 11-03-2020 20:39:18 13.6 C 36 %
845 11-03-2020 20:49:17 13.5 C 36 %
846 11-03-2020 20:59:17 13.3 C 36 %
847 11-03-2020 21:09:18 13.2 C 36 %
848 11-03-2020 21:19:17 13.4 C 36 %
849 11-03-2020 21:29:17 13.5 C 36 %
850 11-03-2020 21:39:18 13.7 C 36 %
Sensor: Nr:Datum:Temp:Feuchte:
Aussen-T/F 851 11-03-2020 21:49:17 14 C 35 %
852 11-03-2020 21:59:17 14 C 35 %
853 11-03-2020 22:09:18 14.1 C 34 %
854 11-03-2020 22:19:18 14 C 34 %
855 11-03-2020 22:29:18 13.9 C 35 %
856 11-03-2020 22:39:17 13.9 C 35 %
857 11-03-2020 22:49:18 13.8 C 35 %
858 11-03-2020 22:59:18 13.8 C 35 %
859 11-03-2020 23:09:18 13.8 C 34 %
860 11-03-2020 23:19:18 13.9 C 34 %
861 11-03-2020 23:29:18 13.8 C 34 %
862 11-03-2020 23:39:17 13.8 C 34 %
863 11-03-2020 23:49:17 13.8 C 34 %
864 11-03-2020 23:59:17 13.7 C 34 %
865 12-03-2020 00:09:17 13.6 C 34 %
866 12-03-2020 00:19:17 13.6 C 34 %
867 12-03-2020 00:29:17 13.6 C 34 %
868 12-03-2020 00:39:18 13.7 C 34 %
869 12-03-2020 00:49:17 13.8 C 34 %
870 12-03-2020 00:59:17 13.9 C 34 %
871 12-03-2020 01:09:18 13.9 C 34 %
872 12-03-2020 01:19:17 13.8 C 34 %
873 12-03-2020 01:29:17 13.9 C 34 %
874 12-03-2020 01:39:18 13.8 C 34 %
875 12-03-2020 01:49:17 13.7 C 34 %
Sensor: Nr:Datum:Temp:Feuchte:
Aussen-T/F 876 12-03-2020 01:59:17 13.8 C 34 %
877 12-03-2020 02:09:18 13.7 C 34 %
878 12-03-2020 02:19:17 13.7 C 34 %
879 12-03-2020 02:29:18 13.6 C 34 %
880 12-03-2020 02:39:18 13.6 C 33 %
881 12-03-2020 02:49:18 13.6 C 33 %
882 12-03-2020 02:59:18 13.5 C 33 %
883 12-03-2020 03:09:18 13.5 C 33 %
884 12-03-2020 03:19:18 13.5 C 32 %
885 12-03-2020 03:29:18 13.5 C 32 %
886 12-03-2020 03:39:17 13.4 C 32 %
887 12-03-2020 03:49:17 13.2 C 32 %
888 12-03-2020 03:59:17 13.1 C 32 %
889 12-03-2020 04:09:17 13.1 C 32 %
890 12-03-2020 04:19:17 13.1 C 32 %
891 12-03-2020 04:29:17 13 C 32 %
892 12-03-2020 04:39:17 13 C 32 %
893 12-03-2020 04:49:17 13 C 32 %
894 12-03-2020 04:59:17 13 C 32 %
895 12-03-2020 05:09:17 12.7 C 33 %
896 12-03-2020 05:19:17 12.7 C 33 %
897 12-03-2020 05:29:17 12.6 C 34 %
898 12-03-2020 05:39:18 12.5 C 34 %
899 12-03-2020 05:49:17 12.5 C 34 %
900 12-03-2020 05:59:17 12.3 C 34 %
Sensor: Nr:Datum:Temp:Feuchte:
Aussen-T/F 901 12-03-2020 06:09:18 12.2 C 34 %
902 12-03-2020 06:19:18 12.1 C 34 %
903 12-03-2020 06:29:18 12 C 34 %
904 12-03-2020 06:39:18 12 C 35 %
905 12-03-2020 06:49:17 12 C 35 %
906 12-03-2020 06:59:17 11.9 C 35 %
907 12-03-2020 07:09:18 11.9 C 35 %
908 12-03-2020 07:19:18 12 C 35 %
909 12-03-2020 07:29:18 12 C 35 %
910 12-03-2020 07:39:18 12 C 35 %
911 12-03-2020 07:49:17 11.2 C 38 %
912 12-03-2020 07:59:17 11 C 39 %
913 12-03-2020 08:09:18 10.8 C 41 %
914 12-03-2020 08:19:18 10.7 C 42 %
915 12-03-2020 08:29:18 10.4 C 40 %
916 12-03-2020 08:39:18 10.1 C 39 %
917 12-03-2020 08:49:17 10.4 C 38 %
918 12-03-2020 08:59:17 10.2 C 38 %
919 12-03-2020 09:09:18 10.4 C 38 %
920 12-03-2020 09:19:17 10.5 C 37 %
921 12-03-2020 09:29:17 10.9 C 36 %
922 12-03-2020 09:39:17 10.8 C 36 %
923 12-03-2020 09:49:18 11 C 36 %
924 12-03-2020 09:59:18 11.5 C 35 %
925 12-03-2020 10:09:18 11.7 C 34 %
Sensor: Nr:Datum:Temp:Feuchte:
Aussen-T/F 926 12-03-2020 10:19:17 11.5 C 34 %
927 12-03-2020 10:29:17 11.5 C 34 %
928 12-03-2020 10:39:17 11.8 C 33 %
929 12-03-2020 10:49:17 11.3 C 33 %
930 12-03-2020 10:59:17 11.3 C 32 %
931 12-03-2020 11:09:18 11.6 C 28 %
932 12-03-2020 11:19:17 11.5 C 27 %
933 12-03-2020 11:29:17 11.7 C 26 %
934 12-03-2020 11:39:17 11.9 C 23 %
935 12-03-2020 11:49:18 11.9 C 20 %
936 12-03-2020 11:59:18 12.3 C 20 %
937 12-03-2020 12:09:18 12.2 C 20 %
938 12-03-2020 12:19:18 12.4 C 20 %
939 12-03-2020 12:29:18 12.8 C 20 %
940 12-03-2020 12:39:17 12.4 C 20 %
941 12-03-2020 12:49:17 12.1 C 20 %
942 12-03-2020 12:59:18 12 C 20 %
943 12-03-2020 13:09:18 12.2 C 20 %
944 12-03-2020 13:19:17 12.3 C 20 %
945 12-03-2020 13:29:17 12.3 C 20 %
946 12-03-2020 13:39:17 12.7 C 20 %
947 12-03-2020 13:49:17 12.5 C 20 %
948 12-03-2020 13:59:17 12.4 C 20 %
949 12-03-2020 14:09:17 12.2 C 20 %
950 12-03-2020 14:19:17 12.2 C 20 %
Sensor: Nr:Datum:Temp:Feuchte:
Aussen-T/F 951 12-03-2020 14:29:18 12.2 C 20 %
952 12-03-2020 14:39:18 13.4 C 20 %
953 12-03-2020 14:49:17 13 C 20 %
954 12-03-2020 14:59:17 11.8 C 20 %
955 12-03-2020 15:09:17 11.9 C 20 %
956 12-03-2020 15:19:17 11.8 C 20 %
957 12-03-2020 15:29:18 11.9 C 20 %
958 12-03-2020 15:39:18 11.8 C 20 %
959 12-03-2020 15:49:17 11.7 C 20 %
960 12-03-2020 15:59:18 11.6 C 20 %
961 12-03-2020 16:09:18 11.5 C 20 %
962 12-03-2020 16:19:18 11.7 C 20 %
963 12-03-2020 16:29:18 11.7 C 20 %
964 12-03-2020 16:39:18 12.4 C 20 %
965 12-03-2020 16:49:17 11.8 C 20 %
966 12-03-2020 16:59:17 11.5 C 20 %
967 12-03-2020 17:09:17 11.5 C 20 %
968 12-03-2020 17:19:17 11.5 C 20 %
969 12-03-2020 17:29:17 11.2 C 20 %
970 12-03-2020 17:39:18 10.9 C 20 %
971 12-03-2020 17:49:17 11 C 20 %
972 12-03-2020 17:59:18 10.8 C 22 %
973 12-03-2020 18:09:18 10.3 C 25 %
974 12-03-2020 18:19:18 9.8 C 27 %
975 12-03-2020 18:29:18 9.3 C 30 %
Sensor: Nr:Datum:Temp:Feuchte:
Aussen-T/F 976 12-03-2020 18:39:17 8.7 C 31 %
977 12-03-2020 18:49:17 7.9 C 33 %
978 12-03-2020 18:59:17 7.6 C 35 %
979 12-03-2020 19:09:17 7.5 C 34 %
980 12-03-2020 19:19:17 7 C 35 %
981 12-03-2020 19:29:17 6.6 C 36 %
982 12-03-2020 19:39:17 6.5 C 36 %
983 12-03-2020 19:49:17 7.1 C 35 %
984 12-03-2020 19:59:17 6.8 C 35 %
985 12-03-2020 20:09:17 7.6 C 35 %
986 12-03-2020 20:19:17 7.3 C 35 %
987 12-03-2020 20:29:17 6.8 C 35 %
988 12-03-2020 20:39:17 6.8 C 36 %
989 12-03-2020 20:49:17 6.4 C 36 %
990 12-03-2020 20:59:17 6.7 C 36 %
991 12-03-2020 21:09:17 6.3 C 36 %
992 12-03-2020 21:19:17 7.2 C 35 %
993 12-03-2020 21:29:17 7.6 C 35 %
994 12-03-2020 21:39:18 7.4 C 35 %
995 12-03-2020 21:49:17 7.4 C 35 %
996 12-03-2020 21:59:17 7.6 C 35 %
997 12-03-2020 22:09:18 7.6 C 35 %
998 12-03-2020 22:19:18 7.1 C 35 %
999 12-03-2020 22:29:18 7.2 C 35 %
1000 12-03-2020 22:39:18 7.5 C 35 %
Sensor: Nr:Datum:Temp:Feuchte:
Aussen-T/F 1001 12-03-2020 22:49:17 7.6 C 35 %
1002 12-03-2020 22:59:17 7.3 C 35 %
1003 12-03-2020 23:09:17 7.2 C 35 %
1004 12-03-2020 23:19:17 7 C 35 %
1005 12-03-2020 23:29:18 6.2 C 35 %
1006 12-03-2020 23:39:18 6.7 C 34 %
1007 12-03-2020 23:49:17 6.5 C 34 %
1008 12-03-2020 23:59:17 6.4 C 32 %
1009 13-03-2020 00:09:17 6.5 C 32 %
1010 13-03-2020 00:19:17 6.5 C 32 %
1011 13-03-2020 00:29:17 6.1 C 32 %
1012 13-03-2020 00:39:17 6.2 C 32 %
1013 13-03-2020 00:49:17 6 C 32 %
1014 13-03-2020 00:59:17 5.9 C 33 %
1015 13-03-2020 01:09:17 5.4 C 33 %
1016 13-03-2020 01:19:17 5.4 C 33 %
1017 13-03-2020 01:29:17 5.1 C 34 %
1018 13-03-2020 01:39:17 5.2 C 34 %
1019 13-03-2020 01:49:17 5.2 C 33 %
1020 13-03-2020 01:59:17 5.2 C 33 %
1021 13-03-2020 02:09:17 4.8 C 35 %
1022 13-03-2020 02:19:17 5 C 34 %
1023 13-03-2020 02:29:17 5.1 C 34 %
1024 13-03-2020 02:39:18 5.1 C 34 %
1025 13-03-2020 02:49:17 5.1 C 34 %
Sensor: Nr:Datum:Temp:Feuchte:
Aussen-T/F 1026 13-03-2020 02:59:17 5.1 C 34 %
1027 13-03-2020 03:09:17 5 C 34 %
1028 13-03-2020 03:19:17 5.2 C 34 %
1029 13-03-2020 03:29:17 5.2 C 34 %
1030 13-03-2020 03:39:18 5.1 C 34 %
1031 13-03-2020 03:49:17 5.1 C 34 %
1032 13-03-2020 03:59:17 5.2 C 34 %
1033 13-03-2020 04:09:17 5 C 34 %
1034 13-03-2020 04:19:17 4.9 C 35 %
1035 13-03-2020 04:29:17 5.1 C 35 %
1036 13-03-2020 04:39:17 5.1 C 35 %
1037 13-03-2020 04:49:17 5 C 34 %
1038 13-03-2020 04:59:17 5.2 C 34 %
1039 13-03-2020 05:09:17 5.2 C 34 %
1040 13-03-2020 05:19:17 5.6 C 34 %
1041 13-03-2020 05:29:17 5.4 C 34 %
1042 13-03-2020 05:39:17 5.4 C 34 %
1043 13-03-2020 05:49:18 5.4 C 34 %
1044 13-03-2020 05:59:18 5.4 C 34 %
1045 13-03-2020 06:09:18 5.6 C 34 %
1046 13-03-2020 06:19:17 5.7 C 34 %
1047 13-03-2020 06:29:17 5.4 C 34 %
1048 13-03-2020 06:39:17 5.4 C 35 %
1049 13-03-2020 06:49:17 5.3 C 34 %
1050 13-03-2020 06:59:17 5.4 C 35 %
Sensor: Nr:Datum:Temp:Feuchte:
Aussen-T/F 1051 13-03-2020 07:09:17 5.3 C 35 %
1052 13-03-2020 07:19:17 5.4 C 35 %
1053 13-03-2020 07:29:17 5.6 C 35 %
1054 13-03-2020 07:39:17 5.7 C 35 %
1055 13-03-2020 07:49:18 5.7 C 35 %
1056 13-03-2020 07:59:18 5.7 C 35 %
1057 13-03-2020 08:09:17 5.8 C 35 %
1058 13-03-2020 08:19:17 6 C 35 %
1059 13-03-2020 08:29:17 5.9 C 35 %
1060 13-03-2020 08:39:18 6 C 35 %
1061 13-03-2020 08:49:17 6.2 C 35 %
1062 13-03-2020 08:59:17 6.4 C 34 %
1063 13-03-2020 09:09:17 6.5 C 35 %
1064 13-03-2020 09:19:17 6.9 C 34 %
1065 13-03-2020 09:29:17 7.1 C 33 %
1066 13-03-2020 09:39:18 7.1 C 33 %
1067 13-03-2020 09:49:17 6.6 C 34 %
1068 13-03-2020 09:59:17 7.1 C 33 %
1069 13-03-2020 10:09:18 7.5 C 33 %
1070 13-03-2020 10:19:17 8.5 C 32 %
1071 13-03-2020 10:29:17 8.1 C 32 %
1072 13-03-2020 10:39:18 8 C 32 %
1073 13-03-2020 10:49:17 7.6 C 33 %
1074 13-03-2020 10:59:17 7.4 C 35 %
1075 13-03-2020 11:09:17 8.9 C 33 %
Sensor: Nr:Datum:Temp:Feuchte:
Aussen-T/F 1076 13-03-2020 11:19:17 9.1 C 31 %
1077 13-03-2020 11:29:17 8 C 32 %
1078 13-03-2020 11:39:17 7.3 C 35 %
1079 13-03-2020 11:49:18 7.4 C 35 %
1080 13-03-2020 11:59:18 8.2 C 33 %
1081 13-03-2020 12:09:18 8.9 C 32 %
1082 13-03-2020 12:19:18 9.7 C 29 %
1083 13-03-2020 12:29:18 9 C 30 %
1084 13-03-2020 12:39:18 9.6 C 30 %
1085 13-03-2020 12:49:18 9 C 31 %
1086 13-03-2020 12:59:18 8.8 C 31 %
1087 13-03-2020 13:09:18 8.4 C 32 %
1088 13-03-2020 13:19:18 8.6 C 33 %
1089 13-03-2020 13:29:18 9.5 C 31 %
1090 13-03-2020 13:39:18 9.9 C 30 %
1091 13-03-2020 13:49:17 9.7 C 30 %
1092 13-03-2020 13:59:17 9.6 C 30 %
1093 13-03-2020 14:09:18 9.3 C 30 %
1094 13-03-2020 14:19:18 9.4 C 30 %
1095 13-03-2020 14:29:18 8.9 C 32 %
1096 13-03-2020 14:39:18 9.5 C 31 %
1097 13-03-2020 14:49:18 10.3 C 28 %
1098 13-03-2020 14:59:18 10.1 C 28 %
1099 13-03-2020 15:09:18 9.5 C 29 %
1100 13-03-2020 15:19:17 9.3 C 29 %
Sensor: Nr:Datum:Temp:Feuchte:
Aussen-T/F 1101 13-03-2020 15:29:17 10.1 C 27 %
1102 13-03-2020 15:39:18 10.4 C 26 %
1103 13-03-2020 15:49:18 10.4 C 26 %
1104 13-03-2020 15:59:18 10.1 C 27 %
1105 13-03-2020 16:09:18 10 C 27 %
1106 13-03-2020 16:19:17 9.8 C 27 %
1107 13-03-2020 16:29:17 9.1 C 29 %
1108 13-03-2020 16:39:17 9 C 30 %
1109 13-03-2020 16:49:17 10 C 27 %
1110 13-03-2020 16:59:17 9.3 C 30 %
1111 13-03-2020 17:09:17 9.1 C 30 %
1112 13-03-2020 17:19:18 9.1 C 30 %
1113 13-03-2020 17:29:18 9.3 C 30 %
1114 13-03-2020 17:39:17 9.4 C 29 %
1115 13-03-2020 17:49:18 9.5 C 30 %
1116 13-03-2020 17:59:18 9.1 C 31 %
1117 13-03-2020 18:09:18 8.7 C 31 %
1118 13-03-2020 18:19:17 8.6 C 31 %
1119 13-03-2020 18:29:17 8.4 C 31 %
1120 13-03-2020 18:39:17 8.2 C 31 %
1121 13-03-2020 18:49:17 8.1 C 32 %
1122 13-03-2020 18:59:17 8 C 32 %
1123 13-03-2020 19:09:17 7.8 C 33 %
1124 13-03-2020 19:19:17 7.3 C 35 %
1125 13-03-2020 19:29:17 7.3 C 35 %
Sensor: Nr:Datum:Temp:Feuchte:
Aussen-T/F 1126 13-03-2020 19:39:18 7.3 C 35 %
1127 13-03-2020 19:49:17 7.3 C 35 %
1128 13-03-2020 19:59:18 7 C 35 %
1129 13-03-2020 20:09:18 6.7 C 36 %
1130 13-03-2020 20:19:17 6.7 C 36 %
1131 13-03-2020 20:29:17 6.9 C 36 %
1132 13-03-2020 20:39:17 6.4 C 36 %
1133 13-03-2020 20:49:17 6.3 C 37 %
1134 13-03-2020 20:59:17 6.2 C 37 %
1135 13-03-2020 21:09:18 5.8 C 38 %
1136 13-03-2020 21:19:18 5.8 C 38 %
1137 13-03-2020 21:29:18 5.8 C 38 %
1138 13-03-2020 21:39:18 6.2 C 37 %
1139 13-03-2020 21:49:17 5.7 C 38 %
1140 13-03-2020 21:59:17 5.8 C 38 %
1141 13-03-2020 22:09:18 5.4 C 39 %
1142 13-03-2020 22:19:17 5.6 C 39 %
1143 13-03-2020 22:29:18 5.4 C 39 %
1144 13-03-2020 22:39:18 5.5 C 40 %
1145 13-03-2020 22:49:17 5.7 C 39 %
1146 13-03-2020 22:59:17 5.8 C 39 %
1147 13-03-2020 23:09:18 5.6 C 39 %
1148 13-03-2020 23:19:17 5.6 C 39 %
1149 13-03-2020 23:29:17 5.5 C 40 %
1150 13-03-2020 23:39:17 5.4 C 40 %
Sensor: Nr:Datum:Temp:Feuchte:
Aussen-T/F 1151 13-03-2020 23:49:17 5.4 C 40 %
1152 13-03-2020 23:59:17 4.8 C 41 %
1153 14-03-2020 00:09:17 4.8 C 41 %
1154 14-03-2020 00:19:18 4.6 C 41 %
1155 14-03-2020 00:29:18 4.4 C 41 %
1156 14-03-2020 00:39:18 3.7 C 42 %
1157 14-03-2020 00:49:17 3.5 C 44 %
1158 14-03-2020 00:59:17 3 C 43 %
1159 14-03-2020 01:09:18 2.6 C 45 %
1160 14-03-2020 01:19:17 2.4 C 46 %
1161 14-03-2020 01:29:18 2 C 45 %
1162 14-03-2020 01:39:18 2 C 46 %
1163 14-03-2020 01:49:17 2.4 C 48 %
1164 14-03-2020 01:59:18 2.8 C 49 %
1165 14-03-2020 02:09:18 3.3 C 47 %
1166 14-03-2020 02:19:18 3.6 C 46 %
1167 14-03-2020 02:29:18 3.3 C 45 %
1168 14-03-2020 02:39:18 3 C 45 %
1169 14-03-2020 02:49:18 2.8 C 45 %
1170 14-03-2020 02:59:18 2.3 C 46 %
1171 14-03-2020 03:09:18 2.2 C 46 %
1172 14-03-2020 03:19:17 1.5 C 47 %
1173 14-03-2020 03:29:17 1.3 C 47 %
1174 14-03-2020 03:39:17 1.4 C 48 %
1175 14-03-2020 03:49:18 1.5 C 48 %
Sensor: Nr:Datum:Temp:Feuchte:
Aussen-T/F 1176 14-03-2020 03:59:18 1.5 C 49 %
1177 14-03-2020 04:09:17 1.7 C 49 %
1178 14-03-2020 04:19:17 1.6 C 48 %
1179 14-03-2020 04:29:17 1.6 C 49 %
1180 14-03-2020 04:39:17 1.5 C 48 %
1181 14-03-2020 04:49:17 1.3 C 48 %
1182 14-03-2020 04:59:17 1.3 C 48 %
1183 14-03-2020 05:09:17 1.3 C 49 %
1184 14-03-2020 05:19:17 1.1 C 48 %
1185 14-03-2020 05:29:17 0.8 C 49 %
1186 14-03-2020 05:39:18 0.9 C 50 %
1187 14-03-2020 05:49:17 1.3 C 49 %
1188 14-03-2020 05:59:17 0.5 C 49 %
1189 14-03-2020 06:09:18 0.3 C 49 %
1190 14-03-2020 06:19:18 0.6 C 50 %
1191 14-03-2020 06:29:18 0.4 C 49 %
1192 14-03-2020 06:39:18 0.4 C 50 %
1193 14-03-2020 06:49:17 0.8 C 50 %
1194 14-03-2020 06:59:17 0.8 C 50 %
1195 14-03-2020 07:09:17 0.7 C 50 %
1196 14-03-2020 07:19:17 0.8 C 50 %
1197 14-03-2020 07:29:17 0.6 C 49 %
1198 14-03-2020 07:39:18 0.6 C 49 %
1199 14-03-2020 07:49:17 0.8 C 49 %
1200 14-03-2020 07:59:17 0.8 C 50 %
Sensor: Nr:Datum:Temp:Feuchte:
Aussen-T/F 1201 14-03-2020 08:09:17 1 C 48 %
1202 14-03-2020 08:19:17 1.4 C 49 %
1203 14-03-2020 08:29:17 1.7 C 49 %
1204 14-03-2020 08:39:18 1.9 C 49 %
1205 14-03-2020 08:49:17 2.2 C 48 %
1206 14-03-2020 08:59:17 2.5 C 48 %
1207 14-03-2020 09:09:17 2.8 C 48 %
1208 14-03-2020 09:19:17 3.4 C 46 %
1209 14-03-2020 09:29:17 3.7 C 45 %
1210 14-03-2020 09:39:18 4.1 C 43 %
1211 14-03-2020 09:49:17 4.5 C 43 %
1212 14-03-2020 09:59:17 5 C 41 %
1213 14-03-2020 10:09:18 5.7 C 41 %
1214 14-03-2020 10:19:18 6 C 39 %
1215 14-03-2020 10:29:18 6.8 C 40 %
1216 14-03-2020 10:39:18 7.7 C 38 %
1217 14-03-2020 10:49:17 7.7 C 37 %
1218 14-03-2020 10:59:17 8.4 C 36 %
1219 14-03-2020 11:09:18 9 C 35 %
1220 14-03-2020 11:19:18 10.4 C 34 %
1221 14-03-2020 11:29:18 11 C 31 %
1222 14-03-2020 11:39:18 10.4 C 31 %
1223 14-03-2020 11:49:17 10.1 C 32 %
1224 14-03-2020 11:59:17 11.3 C 31 %
1225 14-03-2020 12:09:18 13 C 27 %
Sensor: Nr:Datum:Temp:Feuchte:
Aussen-T/F 1226 14-03-2020 12:19:17 12.4 C 27 %
1227 14-03-2020 12:29:18 12 C 27 %
1228 14-03-2020 12:39:18 11.3 C 28 %
1229 14-03-2020 12:49:17 11.5 C 28 %
1230 14-03-2020 12:59:17 13.1 C 26 %
1231 14-03-2020 13:09:18 12.9 C 25 %
1232 14-03-2020 13:19:17 13 C 22 %
1233 14-03-2020 13:29:17 13.3 C 23 %
1234 14-03-2020 13:39:17 12.5 C 22 %
1235 14-03-2020 13:49:17 12.4 C 22 %
1236 14-03-2020 13:59:17 13.8 C 21 %
1237 14-03-2020 14:09:18 12.3 C 22 %
1238 14-03-2020 14:19:17 12.5 C 21 %
1239 14-03-2020 14:29:17 14 C 20 %
1240 14-03-2020 14:39:17 13.7 C 20 %
1241 14-03-2020 14:49:18 12.3 C 20 %
1242 14-03-2020 14:59:18 11.6 C 23 %
1243 14-03-2020 15:09:18 11.4 C 22 %
1244 14-03-2020 15:19:17 12.1 C 21 %
1245 14-03-2020 15:29:17 12.1 C 20 %
1246 14-03-2020 15:39:18 11.7 C 21 %
1247 14-03-2020 15:49:17 12 C 20 %
1248 14-03-2020 15:59:17 11.8 C 21 %
1249 14-03-2020 16:09:18 11.2 C 23 %
1250 14-03-2020 16:19:17 10.6 C 25 %
Sensor: Nr:Datum:Temp:Feuchte:
Aussen-T/F 1251 14-03-2020 16:29:17 10.4 C 26 %
1252 14-03-2020 16:39:18 9.9 C 26 %
1253 14-03-2020 16:49:18 10.1 C 26 %
1254 14-03-2020 16:59:18 9.8 C 27 %
1255 14-03-2020 17:09:18 10.3 C 26 %
1256 14-03-2020 17:19:17 10.3 C 26 %
1257 14-03-2020 17:29:17 10.7 C 26 %
1258 14-03-2020 17:39:17 9.6 C 27 %
1259 14-03-2020 17:49:17 9.3 C 28 %
1260 14-03-2020 17:59:17 8.6 C 30 %
1261 14-03-2020 18:09:17 8.1 C 31 %
1262 14-03-2020 18:19:17 7.3 C 33 %
1263 14-03-2020 18:29:17 7.1 C 33 %
1264 14-03-2020 18:39:17 6.3 C 36 %
1265 14-03-2020 18:49:17 5.9 C 37 %
1266 14-03-2020 18:59:17 5.9 C 38 %
1267 14-03-2020 19:09:17 5.3 C 38 %
1268 14-03-2020 19:19:17 5.5 C 39 %
1269 14-03-2020 19:29:17 5.1 C 39 %
1270 14-03-2020 19:39:17 5.6 C 39 %
1271 14-03-2020 19:49:17 5.2 C 39 %
1272 14-03-2020 19:59:17 5.3 C 39 %
1273 14-03-2020 20:09:18 5.3 C 39 %
1274 14-03-2020 20:19:18 5.3 C 39 %
1275 14-03-2020 20:29:18 5.3 C 39 %
Sensor: Nr:Datum:Temp:Feuchte:
Aussen-T/F 1276 14-03-2020 20:39:18 5.6 C 39 %
1277 14-03-2020 20:49:17 5.5 C 39 %
1278 14-03-2020 20:59:18 5.7 C 39 %
1279 14-03-2020 21:09:18 5.7 C 39 %
1280 14-03-2020 21:19:18 5.7 C 39 %
1281 14-03-2020 21:29:18 5.6 C 38 %
1282 14-03-2020 21:39:17 5.1 C 39 %
1283 14-03-2020 21:49:18 5.2 C 39 %
1284 14-03-2020 21:59:18 5 C 39 %
1285 14-03-2020 22:09:18 5 C 39 %
1286 14-03-2020 22:19:17 5 C 39 %
1287 14-03-2020 22:29:17 5 C 39 %
1288 14-03-2020 22:39:18 5.1 C 39 %
1289 14-03-2020 22:49:18 4.8 C 40 %
1290 14-03-2020 22:59:18 5.1 C 39 %
1291 14-03-2020 23:09:17 5.5 C 39 %
1292 14-03-2020 23:19:17 5.7 C 39 %
1293 14-03-2020 23:29:17 5.6 C 40 %
1294 14-03-2020 23:39:17 5.6 C 39 %
1295 14-03-2020 23:49:18 5.8 C 40 %
1296 14-03-2020 23:59:18 5.8 C 40 %
1297 15-03-2020 00:09:18 5.9 C 39 %
1298 15-03-2020 00:19:17 5.8 C 39 %
1299 15-03-2020 00:29:17 6.1 C 37 %
1300 15-03-2020 00:39:18 6 C 38 %
Sensor: Nr:Datum:Temp:Feuchte:
Aussen-T/F 1301 15-03-2020 00:49:18 5.6 C 39 %
1302 15-03-2020 00:59:18 5.3 C 39 %
1303 15-03-2020 01:09:17 5.1 C 40 %
1304 15-03-2020 01:19:18 5.1 C 39 %
1305 15-03-2020 01:29:18 5.5 C 39 %
1306 15-03-2020 01:39:17 5.2 C 40 %
1307 15-03-2020 01:49:17 5.2 C 40 %
1308 15-03-2020 01:59:17 5.2 C 40 %
1309 15-03-2020 02:09:17 5.1 C 40 %
1310 15-03-2020 02:19:17 5.1 C 40 %
1311 15-03-2020 02:29:17 4.8 C 40 %
1312 15-03-2020 02:39:18 4.5 C 40 %
1313 15-03-2020 02:49:17 4.9 C 40 %
1314 15-03-2020 02:59:17 5 C 40 %
1315 15-03-2020 03:09:17 4.8 C 40 %
1316 15-03-2020 03:19:17 4.2 C 40 %
1317 15-03-2020 03:29:17 4 C 40 %
1318 15-03-2020 03:39:18 4 C 40 %
1319 15-03-2020 03:49:17 3.8 C 41 %
1320 15-03-2020 03:59:17 3.7 C 42 %
1321 15-03-2020 04:09:18 3.7 C 41 %
1322 15-03-2020 04:19:18 3.9 C 41 %
1323 15-03-2020 04:29:18 3.7 C 41 %
1324 15-03-2020 04:39:18 3.8 C 41 %
1325 15-03-2020 04:49:17 3.7 C 41 %
Sensor: Nr:Datum:Temp:Feuchte:
Aussen-T/F 1326 15-03-2020 04:59:18 3.5 C 41 %
1327 15-03-2020 05:09:18 3.5 C 41 %
1328 15-03-2020 05:19:17 3.3 C 41 %
1329 15-03-2020 05:29:18 3.2 C 41 %
1330 15-03-2020 05:39:18 3 C 41 %
1331 15-03-2020 05:49:17 3.1 C 41 %
1332 15-03-2020 05:59:17 3.1 C 41 %
1333 15-03-2020 06:09:18 3.1 C 41 %
1334 15-03-2020 06:19:17 3.1 C 41 %
1335 15-03-2020 06:29:17 2.9 C 43 %
1336 15-03-2020 06:39:18 3.3 C 41 %
1337 15-03-2020 06:49:18 3.6 C 41 %
1338 15-03-2020 06:59:18 3.3 C 41 %
1339 15-03-2020 07:09:18 3 C 42 %
1340 15-03-2020 07:19:18 3.1 C 42 %
1341 15-03-2020 07:29:18 3.6 C 41 %
1342 15-03-2020 07:39:18 3.6 C 41 %
1343 15-03-2020 07:49:18 3.5 C 41 %
1344 15-03-2020 07:59:18 4 C 41 %
1345 15-03-2020 08:09:18 4.8 C 40 %
1346 15-03-2020 08:19:18 5.4 C 39 %
1347 15-03-2020 08:29:18 5.7 C 39 %
1348 15-03-2020 08:39:18 5.9 C 38 %
1349 15-03-2020 08:49:17 6.4 C 38 %
1350 15-03-2020 08:59:17 6.7 C 38 %
Sensor: Nr:Datum:Temp:Feuchte:
Aussen-T/F 1351 15-03-2020 09:09:18 6.8 C 37 %
1352 15-03-2020 09:19:18 6.9 C 38 %
1353 15-03-2020 09:29:18 7.1 C 37 %
1354 15-03-2020 09:39:18 7.8 C 36 %
1355 15-03-2020 09:49:18 9.2 C 33 %
1356 15-03-2020 09:59:18 9.9 C 32 %
1357 15-03-2020 10:09:18 9.9 C 31 %
1358 15-03-2020 10:19:18 9.8 C 32 %
1359 15-03-2020 10:29:18 10 C 32 %
1360 15-03-2020 10:39:18 10.8 C 31 %
1361 15-03-2020 10:49:17 11.8 C 29 %
1362 15-03-2020 10:59:17 12.5 C 27 %
1363 15-03-2020 11:09:17 13.4 C 25 %
1364 15-03-2020 11:19:17 14.7 C 23 %
1365 15-03-2020 11:29:17 16 C 20 %
1366 15-03-2020 11:39:18 15.5 C 20 %
1367 15-03-2020 11:49:17 14.9 C 20 %
1368 15-03-2020 11:59:18 15.2 C 20 %
1369 15-03-2020 12:09:18 14.5 C 20 %
1370 15-03-2020 12:19:18 14.1 C 20 %
1371 15-03-2020 12:29:18 14.4 C 20 %
1372 15-03-2020 12:39:18 14.7 C 20 %
1373 15-03-2020 12:49:17 15.2 C 20 %
1374 15-03-2020 12:59:17 15.4 C 20 %
1375 15-03-2020 13:09:18 14.8 C 20 %
Sensor: Nr:Datum:Temp:Feuchte:
Aussen-T/F 1376 15-03-2020 13:19:17 17 C 20 %
1377 15-03-2020 13:29:17 18.6 C 20 %
1378 15-03-2020 13:39:18 17.4 C 20 %
1379 15-03-2020 13:49:17 16.7 C 20 %
1380 15-03-2020 13:59:17 16.2 C 20 %
1381 15-03-2020 14:09:17 15.5 C 20 %
1382 15-03-2020 14:19:17 16.5 C 20 %
1383 15-03-2020 14:29:17 16.3 C 20 %
1384 15-03-2020 14:39:18 16.6 C 20 %
1385 15-03-2020 14:49:17 16.2 C 20 %
1386 15-03-2020 14:59:17 16 C 20 %
1387 15-03-2020 15:09:17 17.4 C 20 %
1388 15-03-2020 15:19:17 20.3 C 20 %
1389 15-03-2020 15:29:18 20.4 C 20 %
1390 15-03-2020 15:39:18 19.4 C 20 %
1391 15-03-2020 15:49:17 20.7 C 20 %
1392 15-03-2020 15:59:17 19.9 C 20 %
1393 15-03-2020 16:09:17 21.2 C 20 %
1394 15-03-2020 16:19:17 20.2 C 20 %
1395 15-03-2020 16:29:17 20.5 C 20 %
1396 15-03-2020 16:39:17 19.7 C 20 %
1397 15-03-2020 16:49:18 18.1 C 20 %
1398 15-03-2020 16:59:18 16.9 C 20 %
1399 15-03-2020 17:09:18 16 C 20 %
1400 15-03-2020 17:19:18 15.5 C 20 %
Sensor: Nr:Datum:Temp:Feuchte:
Aussen-T/F 1401 15-03-2020 17:29:18 15.5 C 20 %
1402 15-03-2020 17:39:18 14.9 C 20 %
1403 15-03-2020 17:49:18 13.8 C 20 %
1404 15-03-2020 17:59:18 12.6 C 23 %
1405 15-03-2020 18:09:18 12.1 C 25 %
1406 15-03-2020 18:19:18 11.7 C 26 %
1407 15-03-2020 18:29:18 11.1 C 27 %
1408 15-03-2020 18:39:18 10.6 C 28 %
1409 15-03-2020 18:49:17 10.4 C 28 %
1410 15-03-2020 18:59:17 10 C 28 %
1411 15-03-2020 19:09:18 9.6 C 30 %
1412 15-03-2020 19:19:18 9.4 C 30 %
1413 15-03-2020 19:29:18 9.2 C 31 %
1414 15-03-2020 19:39:18 9.1 C 30 %
1415 15-03-2020 19:49:17 9 C 31 %
1416 15-03-2020 19:59:17 8.9 C 31 %
1417 15-03-2020 20:09:18 8.6 C 31 %
1418 15-03-2020 20:19:17 8.5 C 32 %
1419 15-03-2020 20:29:17 8.2 C 32 %
1420 15-03-2020 20:39:18 8.2 C 32 %
1421 15-03-2020 20:49:18 8 C 32 %
1422 15-03-2020 20:59:18 7.4 C 34 %
1423 15-03-2020 21:09:18 7.1 C 35 %
1424 15-03-2020 21:19:17 7 C 35 %
1425 15-03-2020 21:29:17 7.4 C 35 %
Sensor: Nr:Datum:Temp:Feuchte:
Aussen-T/F 1426 15-03-2020 21:39:17 7.5 C 35 %
1427 15-03-2020 21:49:17 7.1 C 35 %
1428 15-03-2020 21:59:17 6.3 C 36 %
1429 15-03-2020 22:09:17 5.8 C 37 %
1430 15-03-2020 22:19:17 5.4 C 37 %
1431 15-03-2020 22:29:18 5 C 38 %
1432 15-03-2020 22:39:17 4.7 C 40 %
1433 15-03-2020 22:49:17 4.7 C 40 %
1434 15-03-2020 22:59:17 4.7 C 40 %
1435 15-03-2020 23:09:17 4.7 C 40 %
1436 15-03-2020 23:19:17 4.6 C 40 %
1437 15-03-2020 23:29:17 4.5 C 40 %
1438 15-03-2020 23:39:17 4.5 C 40 %
1439 15-03-2020 23:49:17 4.3 C 40 %
1440 15-03-2020 23:59:17 4.1 C 40 %
1441 16-03-2020 00:09:17 4 C 40 %
1442 16-03-2020 00:19:17 3.8 C 41 %
1443 16-03-2020 00:29:17 3.4 C 41 %
1444 16-03-2020 00:39:17 3.4 C 42 %
1445 16-03-2020 00:49:17 3.3 C 42 %
1446 16-03-2020 00:59:17 3.3 C 42 %
1447 16-03-2020 01:09:18 2.9 C 43 %
1448 16-03-2020 01:19:17 3 C 43 %
1449 16-03-2020 01:29:17 3 C 42 %
1450 16-03-2020 01:39:17 3.2 C 42 %
Sensor: Nr:Datum:Temp:Feuchte:
Aussen-T/F 1451 16-03-2020 01:49:18 2.8 C 43 %
1452 16-03-2020 01:59:18 2.6 C 44 %
1453 16-03-2020 02:09:17 2.7 C 45 %
1454 16-03-2020 02:19:17 2.7 C 44 %
1455 16-03-2020 02:29:17 2.4 C 44 %
1456 16-03-2020 02:39:17 2.6 C 45 %
1457 16-03-2020 02:49:17 2.8 C 45 %
1458 16-03-2020 02:59:17 2.8 C 44 %
1459 16-03-2020 03:09:18 2.2 C 44 %
1460 16-03-2020 03:19:17 2.3 C 44 %
1461 16-03-2020 03:29:17 2.2 C 45 %
1462 16-03-2020 03:39:17 1.8 C 45 %
1463 16-03-2020 03:49:18 2 C 46 %
1464 16-03-2020 03:59:18 1.8 C 46 %
1465 16-03-2020 04:09:18 1.6 C 46 %
1466 16-03-2020 04:19:18 1.7 C 46 %
1467 16-03-2020 04:29:18 2 C 46 %
1468 16-03-2020 04:39:18 1.5 C 46 %
1469 16-03-2020 04:49:17 1.7 C 46 %
1470 16-03-2020 04:59:18 1.9 C 46 %
1471 16-03-2020 05:09:18 1.7 C 46 %
1472 16-03-2020 05:19:18 1.7 C 46 %
1473 16-03-2020 05:29:18 1.4 C 46 %
1474 16-03-2020 05:39:18 1.3 C 46 %
1475 16-03-2020 05:49:17 1.2 C 46 %
Sensor: Nr:Datum:Temp:Feuchte:
Aussen-T/F 1476 16-03-2020 05:59:17 1.3 C 47 %
1477 16-03-2020 06:09:18 1.1 C 47 %
1478 16-03-2020 06:19:17 0.6 C 48 %
1479 16-03-2020 06:29:17 0.6 C 48 %
1480 16-03-2020 06:39:17 0.6 C 48 %
1481 16-03-2020 06:49:17 0.6 C 48 %
1482 16-03-2020 06:59:17 0.9 C 49 %
1483 16-03-2020 07:09:17 1.2 C 49 %
1484 16-03-2020 07:19:17 1.1 C 47 %
1485 16-03-2020 07:29:17 1 C 47 %
1486 16-03-2020 07:39:17 1.4 C 49 %
1487 16-03-2020 07:49:17 1.4 C 48 %
1488 16-03-2020 07:59:17 1.7 C 48 %
1489 16-03-2020 08:09:18 2 C 47 %
1490 16-03-2020 08:19:17 2.3 C 47 %
1491 16-03-2020 08:29:18 2.4 C 46 %
1492 16-03-2020 08:39:18 2.4 C 46 %
1493 16-03-2020 08:49:17 2.6 C 46 %
1494 16-03-2020 08:59:17 2.9 C 47 %
1495 16-03-2020 09:09:18 3.4 C 46 %
1496 16-03-2020 09:19:18 3.7 C 45 %
1497 16-03-2020 09:29:18 4 C 45 %
1498 16-03-2020 09:39:18 4.6 C 44 %
1499 16-03-2020 09:49:18 5 C 43 %
1500 16-03-2020 09:59:18 5.6 C 42 %
Sensor: Nr:Datum:Temp:Feuchte:
Aussen-T/F 1501 16-03-2020 10:09:18 6.6 C 41 %
1502 16-03-2020 10:19:18 7.3 C 40 %
1503 16-03-2020 10:29:18 8.3 C 39 %
1504 16-03-2020 10:39:17 9.3 C 38 %
1505 16-03-2020 10:49:18 10.4 C 37 %
1506 16-03-2020 10:59:18 12.4 C 34 %
1507 16-03-2020 11:09:17 13.3 C 32 %
1508 16-03-2020 11:19:17 14.3 C 30 %
1509 16-03-2020 11:29:17 15.4 C 27 %
1510 16-03-2020 11:39:18 15.7 C 26 %
1511 16-03-2020 11:49:17 15.6 C 25 %
1512 16-03-2020 11:59:17 16.1 C 25 %
1513 16-03-2020 12:09:17 16.5 C 25 %
1514 16-03-2020 12:19:17 16.8 C 25 %
1515 16-03-2020 12:29:17 16.4 C 24 %
1516 16-03-2020 12:39:17 16.9 C 24 %
1517 16-03-2020 12:49:17 18.3 C 21 %
1518 16-03-2020 12:59:17 18.7 C 20 %
1519 16-03-2020 13:09:17 22.3 C 20 %
1520 16-03-2020 13:19:17 21.2 C 20 %
1521 16-03-2020 13:29:17 21.1 C 20 %
1522 16-03-2020 13:39:17 20.6 C 20 %
1523 16-03-2020 13:49:17 21.1 C 20 %
1524 16-03-2020 13:59:17 19.7 C 20 %
1525 16-03-2020 14:09:17 18.7 C 20 %
Sensor: Nr:Datum:Temp:Feuchte:
Aussen-T/F 1526 16-03-2020 14:19:17 19.7 C 20 %
1527 16-03-2020 14:29:17 19.7 C 20 %
1528 16-03-2020 14:39:17 20 C 20 %
1529 16-03-2020 14:49:17 19.2 C 20 %
1530 16-03-2020 14:59:17 20.8 C 20 %
1531 16-03-2020 15:09:17 20 C 20 %
1532 16-03-2020 15:19:17 19.1 C 20 %
1533 16-03-2020 15:29:17 18.8 C 20 %
1534 16-03-2020 15:39:18 18.8 C 20 %
1535 16-03-2020 15:49:17 19 C 20 %
1536 16-03-2020 15:59:17 19 C 20 %
1537 16-03-2020 16:09:18 18.7 C 20 %
1538 16-03-2020 16:19:18 19 C 20 %
1539 16-03-2020 16:29:18 21.4 C 20 %
1540 16-03-2020 16:39:17 20.8 C 20 %
1541 16-03-2020 16:49:17 20.2 C 20 %
1542 16-03-2020 16:59:17 19.4 C 20 %
1543 16-03-2020 17:09:17 18.4 C 20 %
1544 16-03-2020 17:19:17 17.9 C 20 %
1545 16-03-2020 17:29:18 17.7 C 20 %
1546 16-03-2020 17:39:18 17.5 C 20 %
1547 16-03-2020 17:49:17 16.8 C 21 %
1548 16-03-2020 17:59:18 16 C 23 %
1549 16-03-2020 18:09:18 15 C 26 %
1550 16-03-2020 18:19:18 14.3 C 27 %
Sensor: Nr:Datum:Temp:Feuchte:
Aussen-T/F 1551 16-03-2020 18:29:18 13.7 C 29 %
1552 16-03-2020 18:39:18 13.1 C 30 %
1553 16-03-2020 18:49:18 12.7 C 31 %
1554 16-03-2020 18:59:18 12.4 C 32 %
1555 16-03-2020 19:09:18 12.1 C 32 %
1556 16-03-2020 19:19:18 12.2 C 32 %
1557 16-03-2020 19:29:18 12.2 C 32 %
1558 16-03-2020 19:39:18 11.9 C 34 %
1559 16-03-2020 19:49:17 11.5 C 34 %
1560 16-03-2020 19:59:18 11 C 35 %
1561 16-03-2020 20:09:18 10.7 C 36 %
1562 16-03-2020 20:19:18 11.4 C 35 %
1563 16-03-2020 20:29:18 10.8 C 36 %
1564 16-03-2020 20:39:18 10.3 C 36 %
1565 16-03-2020 20:49:18 9.5 C 38 %
1566 16-03-2020 20:59:18 10.8 C 37 %
1567 16-03-2020 21:09:18 10.1 C 37 %
1568 16-03-2020 21:19:17 10.3 C 38 %
1569 16-03-2020 21:29:17 9.9 C 38 %
1570 16-03-2020 21:39:17 9.7 C 38 %
1571 16-03-2020 21:49:18 10.2 C 37 %
1572 16-03-2020 21:59:18 9.9 C 38 %
1573 16-03-2020 22:09:18 9.7 C 38 %
1574 16-03-2020 22:19:18 9.5 C 38 %
1575 16-03-2020 22:29:18 9.5 C 39 %
Sensor: Nr:Datum:Temp:Feuchte:
Aussen-T/F 1576 16-03-2020 22:39:18 9.2 C 38 %
1577 16-03-2020 22:49:18 8.9 C 39 %
1578 16-03-2020 22:59:18 9.1 C 39 %
1579 16-03-2020 23:09:18 9.4 C 39 %
1580 16-03-2020 23:19:17 9.4 C 39 %
1581 16-03-2020 23:29:17 9.4 C 39 %
1582 16-03-2020 23:39:17 9.5 C 39 %
1583 16-03-2020 23:49:17 9.5 C 40 %
1584 16-03-2020 23:59:17 9.5 C 39 %
1585 17-03-2020 00:09:17 9.3 C 39 %
1586 17-03-2020 00:19:17 9.7 C 40 %
1587 17-03-2020 00:29:17 9.5 C 39 %
1588 17-03-2020 00:39:18 9.3 C 39 %
1589 17-03-2020 00:49:18 9.1 C 40 %
1590 17-03-2020 00:59:18 9 C 40 %
1591 17-03-2020 01:09:18 9.3 C 40 %
1592 17-03-2020 01:19:17 9.2 C 40 %
1593 17-03-2020 01:29:17 8.9 C 40 %
1594 17-03-2020 01:39:17 8.7 C 41 %
1595 17-03-2020 01:49:18 8.8 C 41 %
1596 17-03-2020 01:59:18 8.8 C 41 %
1597 17-03-2020 02:09:18 8.7 C 41 %
1598 17-03-2020 02:19:17 8.7 C 41 %
1599 17-03-2020 02:29:17 8.7 C 41 %
1600 17-03-2020 02:39:17 8.9 C 41 %
Sensor: Nr:Datum:Temp:Feuchte:
Aussen-T/F 1601 17-03-2020 02:49:17 8.9 C 41 %
1602 17-03-2020 02:59:17 8.8 C 41 %
1603 17-03-2020 03:09:18 8.6 C 41 %
1604 17-03-2020 03:19:18 8.6 C 41 %
1605 17-03-2020 03:29:18 8.4 C 41 %
1606 17-03-2020 03:39:17 8.3 C 41 %
1607 17-03-2020 03:49:18 8.1 C 42 %
1608 17-03-2020 03:59:18 8 C 41 %
1609 17-03-2020 04:09:18 8.9 C 42 %
1610 17-03-2020 04:19:18 9.2 C 40 %
1611 17-03-2020 04:29:18 9.3 C 40 %
1612 17-03-2020 04:39:17 9 C 40 %
1613 17-03-2020 04:49:18 9 C 40 %
1614 17-03-2020 04:59:18 8.6 C 41 %
1615 17-03-2020 05:09:17 8.9 C 41 %
1616 17-03-2020 05:19:17 9 C 40 %
1617 17-03-2020 05:29:17 8.6 C 41 %
1618 17-03-2020 05:39:17 8.3 C 41 %
1619 17-03-2020 05:49:17 8.2 C 41 %
1620 17-03-2020 05:59:18 8.2 C 41 %
1621 17-03-2020 06:09:18 8.1 C 41 %
1622 17-03-2020 06:19:18 8.1 C 41 %
1623 17-03-2020 06:29:18 8 C 41 %
1624 17-03-2020 06:39:18 8.2 C 41 %
1625 17-03-2020 06:49:18 8.1 C 41 %
Sensor: Nr:Datum:Temp:Feuchte:
Aussen-T/F 1626 17-03-2020 06:59:18 8.2 C 41 %
1627 17-03-2020 07:09:17 8.8 C 40 %
1628 17-03-2020 07:19:17 9 C 40 %
1629 17-03-2020 07:29:17 9.5 C 39 %
1630 17-03-2020 07:39:17 9.6 C 39 %
1631 17-03-2020 07:49:18 9.6 C 39 %
1632 17-03-2020 07:59:18 9.8 C 38 %
1633 17-03-2020 08:09:18 10.1 C 37 %
1634 17-03-2020 08:19:17 10 C 37 %
1635 17-03-2020 08:29:17 9.8 C 38 %
1636 17-03-2020 08:39:17 9.9 C 38 %
1637 17-03-2020 08:49:17 9.9 C 38 %
1638 17-03-2020 08:59:17 10 C 37 %
1639 17-03-2020 09:09:17 10.2 C 37 %
1640 17-03-2020 09:19:18 10.4 C 37 %
1641 17-03-2020 09:29:18 10.4 C 37 %
1642 17-03-2020 09:39:18 10.6 C 37 %
1643 17-03-2020 09:49:17 10.6 C 37 %
1644 17-03-2020 09:59:17 10.7 C 37 %
1645 17-03-2020 10:09:17 10.7 C 37 %
1646 17-03-2020 10:19:17 10.9 C 36 %
1647 17-03-2020 10:29:17 11 C 35 %
1648 17-03-2020 10:39:17 11.7 C 35 %
1649 17-03-2020 10:49:17 12.4 C 33 %
1650 17-03-2020 10:59:17 12.9 C 33 %
Sensor: Nr:Datum:Temp:Feuchte:
Aussen-T/F 1651 17-03-2020 11:09:17 13.1 C 32 %
1652 17-03-2020 11:19:17 13.3 C 31 %
1653 17-03-2020 11:29:17 13.3 C 31 %
1654 17-03-2020 11:39:17 14.7 C 30 %
1655 17-03-2020 11:49:17 14.1 C 29 %
1656 17-03-2020 11:59:17 15.4 C 28 %
1657 17-03-2020 12:09:17 14.5 C 29 %
1658 17-03-2020 12:19:18 14.6 C 27 %
1659 17-03-2020 12:29:18 15.2 C 26 %
1660 17-03-2020 12:39:18 16.5 C 26 %
1661 17-03-2020 12:49:18 16.6 C 24 %
1662 17-03-2020 12:59:18 19.3 C 20 %
1663 17-03-2020 13:09:17 18.8 C 20 %
1664 17-03-2020 13:19:17 20.4 C 20 %
1665 17-03-2020 13:29:17 19.5 C 20 %
1666 17-03-2020 13:39:17 18.5 C 20 %
1667 17-03-2020 13:49:18 18.8 C 20 %
1668 17-03-2020 13:59:18 19.3 C 20 %
1669 17-03-2020 14:09:17 18.3 C 20 %
1670 17-03-2020 14:19:17 18.5 C 20 %
1671 17-03-2020 14:29:17 17.9 C 20 %
1672 17-03-2020 14:39:18 17.1 C 20 %
1673 17-03-2020 14:49:18 20.5 C 20 %
1674 17-03-2020 14:59:18 22.2 C 20 %
1675 17-03-2020 15:09:17 22.5 C 20 %
Sensor: Nr:Datum:Temp:Feuchte:
Aussen-T/F 1676 17-03-2020 15:19:17 22.1 C 20 %
1677 17-03-2020 15:29:17 23.8 C 20 %
1678 17-03-2020 15:39:18 23.6 C 20 %
1679 17-03-2020 15:49:17 23.8 C 20 %
1680 17-03-2020 15:59:17 23.9 C 20 %
1681 17-03-2020 16:09:18 23.3 C 20 %
1682 17-03-2020 16:19:18 21.8 C 20 %
1683 17-03-2020 16:29:18 23.2 C 20 %
1684 17-03-2020 16:39:17 21.4 C 20 %
1685 17-03-2020 16:49:17 22.3 C 20 %
1686 17-03-2020 16:59:17 20.1 C 20 %
1687 17-03-2020 17:09:17 18.7 C 20 %
1688 17-03-2020 17:19:18 17.7 C 20 %
1689 17-03-2020 17:29:18 17.3 C 20 %
1690 17-03-2020 17:39:18 16.8 C 20 %
1691 17-03-2020 17:49:17 16.1 C 22 %
1692 17-03-2020 17:59:18 15.3 C 24 %
1693 17-03-2020 18:09:18 14.1 C 27 %
1694 17-03-2020 18:19:17 13.5 C 28 %
1695 17-03-2020 18:29:17 13.2 C 29 %
1696 17-03-2020 18:39:18 12.8 C 30 %
1697 17-03-2020 18:49:18 12.4 C 31 %
1698 17-03-2020 18:59:18 12 C 31 %
1699 17-03-2020 19:09:18 11.9 C 32 %
1700 17-03-2020 19:19:17 11.8 C 32 %
Sensor: Nr:Datum:Temp:Feuchte:
Aussen-T/F 1701 17-03-2020 19:29:17 11.1 C 33 %
1702 17-03-2020 19:39:17 11 C 34 %
1703 17-03-2020 19:49:17 10.4 C 35 %
1704 17-03-2020 19:59:17 10.2 C 35 %
1705 17-03-2020 20:09:17 9.9 C 36 %
1706 17-03-2020 20:19:17 10.1 C 36 %
1707 17-03-2020 20:29:17 10.7 C 35 %
1708 17-03-2020 20:39:18 10.4 C 35 %
1709 17-03-2020 20:49:18 9.6 C 37 %
1710 17-03-2020 20:59:18 9.5 C 37 %
1711 17-03-2020 21:09:18 9 C 37 %
1712 17-03-2020 21:19:17 8.4 C 39 %
1713 17-03-2020 21:29:17 8.4 C 39 %
1714 17-03-2020 21:39:17 8.1 C 39 %
1715 17-03-2020 21:49:18 8 C 40 %
1716 17-03-2020 21:59:18 7.6 C 40 %
1717 17-03-2020 22:09:18 7.3 C 40 %
1718 17-03-2020 22:19:18 7.2 C 41 %
1719 17-03-2020 22:29:18 7 C 41 %
1720 17-03-2020 22:39:17 6.9 C 41 %
1721 17-03-2020 22:49:17 6.7 C 42 %
1722 17-03-2020 22:59:17 6.5 C 42 %
1723 17-03-2020 23:09:17 6.4 C 42 %
1724 17-03-2020 23:19:17 6.3 C 42 %
1725 17-03-2020 23:29:17 6.1 C 42 %
Sensor: Nr:Datum:Temp:Feuchte:
Aussen-T/F 1726 17-03-2020 23:39:18 6.1 C 42 %
1727 17-03-2020 23:49:18 6.2 C 43 %
1728 17-03-2020 23:59:18 6.3 C 43 %
1729 18-03-2020 00:09:17 5.9 C 43 %
1730 18-03-2020 00:19:17 5.8 C 44 %
1731 18-03-2020 00:29:17 5.9 C 44 %
1732 18-03-2020 00:39:17 5.8 C 44 %
1733 18-03-2020 00:49:17 6 C 44 %
1734 18-03-2020 00:59:17 6 C 43 %
1735 18-03-2020 01:09:17 5.7 C 44 %
1736 18-03-2020 01:19:17 5.6 C 44 %
1737 18-03-2020 01:29:17 5.3 C 44 %
1738 18-03-2020 01:39:17 5.6 C 45 %
1739 18-03-2020 01:49:17 5.3 C 45 %
1740 18-03-2020 01:59:17 5.6 C 46 %
1741 18-03-2020 02:09:17 5.1 C 44 %
1742 18-03-2020 02:19:17 4.8 C 45 %
1743 18-03-2020 02:29:17 4.8 C 45 %
1744 18-03-2020 02:39:17 4.6 C 46 %
1745 18-03-2020 02:49:18 4.3 C 46 %
1746 18-03-2020 02:59:18 4.3 C 46 %
1747 18-03-2020 03:09:18 4.2 C 46 %
1748 18-03-2020 03:19:17 4.2 C 46 %
1749 18-03-2020 03:29:17 4.1 C 46 %
1750 18-03-2020 03:39:17 4 C 46 %
Sensor: Nr:Datum:Temp:Feuchte:
Aussen-T/F 1751 18-03-2020 03:49:17 3.8 C 47 %
1752 18-03-2020 03:59:17 3.8 C 47 %
1753 18-03-2020 04:09:17 3.8 C 47 %
1754 18-03-2020 04:19:18 3.8 C 47 %
1755 18-03-2020 04:29:18 3.7 C 47 %
1756 18-03-2020 04:39:18 3.7 C 47 %
1757 18-03-2020 04:49:18 3.6 C 47 %
1758 18-03-2020 04:59:18 3.6 C 47 %
1759 18-03-2020 05:09:18 3.7 C 48 %
1760 18-03-2020 05:19:18 3.8 C 48 %
1761 18-03-2020 05:29:18 3.3 C 47 %
1762 18-03-2020 05:39:18 3.2 C 47 %
1763 18-03-2020 05:49:18 3.3 C 47 %
1764 18-03-2020 05:59:18 3.1 C 47 %
1765 18-03-2020 06:09:18 2.9 C 48 %
1766 18-03-2020 06:19:17 3.3 C 47 %
1767 18-03-2020 06:29:18 3.1 C 47 %
1768 18-03-2020 06:39:18 3.1 C 47 %
1769 18-03-2020 06:49:17 3.1 C 47 %
1770 18-03-2020 06:59:18 3.6 C 47 %
1771 18-03-2020 07:09:18 3.5 C 47 %
1772 18-03-2020 07:19:17 3.4 C 47 %
1773 18-03-2020 07:29:17 3.7 C 47 %
1774 18-03-2020 07:39:17 3.9 C 47 %
1775 18-03-2020 07:49:18 4 C 46 %
Sensor: Nr:Datum:Temp:Feuchte:
Aussen-T/F 1776 18-03-2020 07:59:18 4.9 C 46 %
1777 18-03-2020 08:09:18 4.6 C 46 %
1778 18-03-2020 08:19:18 4.5 C 46 %
1779 18-03-2020 08:29:18 4.7 C 46 %
1780 18-03-2020 08:39:17 5 C 45 %
1781 18-03-2020 08:49:18 5.3 C 46 %
1782 18-03-2020 08:59:18 5.6 C 46 %
1783 18-03-2020 09:09:17 6.7 C 45 %
1784 18-03-2020 09:19:17 7.1 C 45 %
1785 18-03-2020 09:29:17 8.5 C 45 %
1786 18-03-2020 09:39:17 9.7 C 41 %
1787 18-03-2020 09:49:18 10.5 C 40 %
1788 18-03-2020 09:59:18 11 C 38 %
1789 18-03-2020 10:09:18 11.1 C 38 %
1790 18-03-2020 10:19:18 11.6 C 38 %
1791 18-03-2020 10:29:18 11.6 C 37 %
1792 18-03-2020 10:39:18 11.7 C 38 %
1793 18-03-2020 10:49:18 12 C 36 %
1794 18-03-2020 10:59:18 12.2 C 35 %
1795 18-03-2020 11:09:18 12.7 C 35 %
1796 18-03-2020 11:19:18 12.8 C 34 %
1797 18-03-2020 11:29:18 13.3 C 34 %
1798 18-03-2020 11:39:18 13.9 C 33 %
1799 18-03-2020 11:49:17 14.7 C 32 %
1800 18-03-2020 11:59:17 15.3 C 30 %
Sensor: Nr:Datum:Temp:Feuchte:
Aussen-T/F 1801 18-03-2020 12:09:18 15.8 C 30 %
1802 18-03-2020 12:19:17 16.6 C 29 %
1803 18-03-2020 12:29:18 17 C 27 %
1804 18-03-2020 12:39:18 17.8 C 26 %
1805 18-03-2020 12:49:17 19.1 C 25 %
1806 18-03-2020 12:59:17 19.8 C 20 %
1807 18-03-2020 13:09:17 21 C 20 %
1808 18-03-2020 13:19:17 21.2 C 20 %
1809 18-03-2020 13:29:17 19.5 C 20 %
1810 18-03-2020 13:39:18 17.7 C 20 %
1811 18-03-2020 13:49:17 16.6 C 22 %
1812 18-03-2020 13:59:17 16 C 22 %
1813 18-03-2020 14:09:17 17.6 C 21 %
1814 18-03-2020 14:19:17 16.7 C 20 %
1815 18-03-2020 14:29:17 17.9 C 20 %
1816 18-03-2020 14:39:18 18.5 C 20 %
1817 18-03-2020 14:49:17 17.4 C 20 %
1818 18-03-2020 14:59:17 17.4 C 20 %
1819 18-03-2020 15:09:17 20.6 C 20 %
1820 18-03-2020 15:19:18 17.9 C 20 %
1821 18-03-2020 15:29:18 18.2 C 20 %
1822 18-03-2020 15:39:18 17.7 C 20 %
1823 18-03-2020 15:49:17 16.9 C 20 %
1824 18-03-2020 15:59:17 16.7 C 21 %
1825 18-03-2020 16:09:17 16.4 C 21 %
Sensor: Nr:Datum:Temp:Feuchte:
Aussen-T/F 1826 18-03-2020 16:19:17 16.4 C 22 %
1827 18-03-2020 16:29:17 16.4 C 20 %
1828 18-03-2020 16:39:17 16.5 C 20 %
1829 18-03-2020 16:49:18 16.2 C 21 %
1830 18-03-2020 16:59:18 16.1 C 21 %
1831 18-03-2020 17:09:17 16 C 21 %
1832 18-03-2020 17:19:17 16 C 21 %
1833 18-03-2020 17:29:17 15.7 C 22 %
1834 18-03-2020 17:39:18 16 C 20 %
1835 18-03-2020 17:49:17 16.3 C 20 %
1836 18-03-2020 17:59:17 15.8 C 22 %
1837 18-03-2020 18:09:17 15.4 C 22 %
1838 18-03-2020 18:19:17 14.7 C 26 %
1839 18-03-2020 18:29:17 13.7 C 26 %
1840 18-03-2020 18:39:17 13.3 C 28 %
1841 18-03-2020 18:49:17 12.7 C 30 %
1842 18-03-2020 18:59:17 12 C 31 %
1843 18-03-2020 19:09:17 11.7 C 32 %
1844 18-03-2020 19:19:18 11.5 C 32 %
1845 18-03-2020 19:29:18 10.5 C 34 %
1846 18-03-2020 19:39:18 10.9 C 34 %
1847 18-03-2020 19:49:18 11.1 C 34 %
1848 18-03-2020 19:59:18 10.9 C 35 %
1849 18-03-2020 20:09:18 10.6 C 35 %
1850 18-03-2020 20:19:17 10.4 C 35 %
Sensor: Nr:Datum:Temp:Feuchte:
Aussen-T/F 1851 18-03-2020 20:29:17 10.4 C 35 %
1852 18-03-2020 20:39:18 10 C 36 %
1853 18-03-2020 20:49:17 9.7 C 37 %
1854 18-03-2020 20:59:17 9.7 C 37 %
1855 18-03-2020 21:09:18 9.7 C 37 %
1856 18-03-2020 21:19:17 9.6 C 37 %
1857 18-03-2020 21:29:17 9.4 C 37 %
1858 18-03-2020 21:39:17 9 C 37 %
1859 18-03-2020 21:49:17 8.7 C 38 %
1860 18-03-2020 21:59:17 8.4 C 39 %
1861 18-03-2020 22:09:17 8.2 C 39 %
1862 18-03-2020 22:19:17 8.1 C 40 %
1863 18-03-2020 22:29:17 8 C 40 %
1864 18-03-2020 22:39:17 8 C 40 %
1865 18-03-2020 22:49:17 8.1 C 40 %
1866 18-03-2020 22:59:17 8.2 C 40 %
1867 18-03-2020 23:09:18 8.3 C 40 %
1868 18-03-2020 23:19:17 8.1 C 40 %
1869 18-03-2020 23:29:17 8 C 40 %
1870 18-03-2020 23:39:18 8 C 40 %
1871 18-03-2020 23:49:18 8.4 C 40 %
1872 18-03-2020 23:59:18 8.9 C 40 %
1873 19-03-2020 00:09:17 8.9 C 39 %
1874 19-03-2020 00:19:18 8.9 C 38 %
1875 19-03-2020 00:29:18 9 C 38 %
Sensor: Nr:Datum:Temp:Feuchte:
Aussen-T/F 1876 19-03-2020 00:39:18 9 C 38 %
1877 19-03-2020 00:49:17 9.1 C 38 %
1878 19-03-2020 00:59:17 9.1 C 38 %
1879 19-03-2020 01:09:18 9 C 38 %
1880 19-03-2020 01:19:17 9.1 C 38 %
1881 19-03-2020 01:29:17 9 C 38 %
1882 19-03-2020 01:39:17 9 C 38 %
1883 19-03-2020 01:49:17 8.9 C 38 %
1884 19-03-2020 01:59:17 8.8 C 39 %
1885 19-03-2020 02:09:18 8.7 C 39 %
1886 19-03-2020 02:19:17 8.7 C 39 %
1887 19-03-2020 02:29:17 8.6 C 39 %
1888 19-03-2020 02:39:17 8.5 C 39 %
1889 19-03-2020 02:49:18 8.5 C 39 %
1890 19-03-2020 02:59:18 8.5 C 39 %
1891 19-03-2020 03:09:18 8.5 C 39 %
1892 19-03-2020 03:19:18 8.6 C 39 %
1893 19-03-2020 03:29:18 8.5 C 39 %
1894 19-03-2020 03:39:17 8.5 C 39 %
1895 19-03-2020 03:49:18 8.4 C 39 %
1896 19-03-2020 03:59:18 8.4 C 40 %
1897 19-03-2020 04:09:18 8.4 C 40 %
1898 19-03-2020 04:19:17 8.5 C 40 %
1899 19-03-2020 04:29:17 8.5 C 39 %
1900 19-03-2020 04:39:17 8.5 C 39 %
Sensor: Nr:Datum:Temp:Feuchte:
Aussen-T/F 1901 19-03-2020 04:49:18 8.5 C 39 %
1902 19-03-2020 04:59:18 8.5 C 39 %
1903 19-03-2020 05:09:18 8.6 C 39 %
1904 19-03-2020 05:19:18 8.9 C 38 %
1905 19-03-2020 05:29:18 8.7 C 39 %
1906 19-03-2020 05:39:18 8.6 C 39 %
1907 19-03-2020 05:49:17 8.5 C 39 %
1908 19-03-2020 05:59:18 8.4 C 39 %
1909 19-03-2020 06:09:18 8.4 C 39 %
1910 19-03-2020 06:19:17 8.3 C 40 %
1911 19-03-2020 06:29:17 8.2 C 39 %
1912 19-03-2020 06:39:17 8.1 C 40 %
1913 19-03-2020 06:49:17 8.1 C 40 %
1914 19-03-2020 06:59:17 8.2 C 40 %
1915 19-03-2020 07:09:17 8.2 C 40 %
1916 19-03-2020 07:19:17 8.5 C 40 %
1917 19-03-2020 07:29:17 8.7 C 39 %
1918 19-03-2020 07:39:18 8.9 C 39 %
1919 19-03-2020 07:49:18 9.1 C 38 %
1920 19-03-2020 07:59:18 9.4 C 38 %
1921 19-03-2020 08:09:18 9.7 C 38 %
1922 19-03-2020 08:19:17 9.9 C 37 %
1923 19-03-2020 08:29:17 9.9 C 37 %
1924 19-03-2020 08:39:17 10.5 C 36 %
1925 19-03-2020 08:49:18 10.4 C 36 %
Sensor: Nr:Datum:Temp:Feuchte:
Aussen-T/F 1926 19-03-2020 08:59:18 10.2 C 36 %
1927 19-03-2020 09:09:17 11.2 C 35 %
1928 19-03-2020 09:19:17 11.7 C 35 %
1929 19-03-2020 09:29:17 11.5 C 35 %
1930 19-03-2020 09:39:18 11.8 C 35 %
1931 19-03-2020 09:49:17 11.6 C 35 %
1932 19-03-2020 09:59:17 12.4 C 33 %
1933 19-03-2020 10:09:18 12.3 C 32 %
1934 19-03-2020 10:19:18 13.1 C 31 %
1935 19-03-2020 10:29:18 13.5 C 30 %
1936 19-03-2020 10:39:17 13.9 C 31 %
1937 19-03-2020 10:49:17 14.2 C 30 %
1938 19-03-2020 10:59:17 15.4 C 29 %
1939 19-03-2020 11:09:17 15.5 C 29 %
1940 19-03-2020 11:19:17 16.4 C 26 %
1941 19-03-2020 11:29:17 17.7 C 26 %
1942 19-03-2020 11:39:17 18.5 C 24 %
1943 19-03-2020 11:49:17 15.8 C 26 %
1944 19-03-2020 11:59:17 15 C 28 %
1945 19-03-2020 12:09:17 15.2 C 28 %
1946 19-03-2020 12:19:17 15.5 C 28 %
1947 19-03-2020 12:29:17 16.8 C 26 %
1948 19-03-2020 12:39:18 18.1 C 22 %
1949 19-03-2020 12:49:17 18.6 C 20 %
1950 19-03-2020 12:59:17 17.9 C 20 %
Sensor: Nr:Datum:Temp:Feuchte:
Aussen-T/F 1951 19-03-2020 13:09:18 20.4 C 20 %
1952 19-03-2020 13:19:18 25.8 C 20 %
1953 19-03-2020 13:29:18 25.6 C 20 %
1954 19-03-2020 13:39:18 19.7 C 20 %
1955 19-03-2020 13:49:17 18.8 C 20 %
1956 19-03-2020 13:59:17 18.2 C 20 %
1957 19-03-2020 14:09:17 18.7 C 20 %
1958 19-03-2020 14:19:17 18.9 C 20 %
1959 19-03-2020 14:29:17 18.8 C 20 %
1960 19-03-2020 14:39:17 18.9 C 20 %
1961 19-03-2020 14:49:17 19.3 C 20 %
1962 19-03-2020 14:59:17 19.1 C 20 %
1963 19-03-2020 15:09:18 18.5 C 20 %
1964 19-03-2020 15:19:18 19.1 C 20 %
1965 19-03-2020 15:29:18 19.3 C 20 %
1966 19-03-2020 15:39:18 19.8 C 20 %
1967 19-03-2020 15:49:17 21.8 C 20 %
1968 19-03-2020 15:59:18 19.5 C 20 %
1969 19-03-2020 16:09:18 19.1 C 20 %
1970 19-03-2020 16:20:17 19.1 C 20 %
1971 19-03-2020 16:29:17 19.1 C 20 %
1972 19-03-2020 16:39:17 19.1 C 20 %
1973 19-03-2020 16:49:17 19.1 C 20 %
1974 19-03-2020 16:59:17 18.4 C 20 %
1975 19-03-2020 17:09:18 17.6 C 20 %
Sensor: Nr:Datum:Temp:Feuchte:
Aussen-T/F 1976 19-03-2020 17:19:18 17.3 C 20 %
1977 19-03-2020 17:29:18 17 C 20 %
1978 19-03-2020 17:39:18 16.8 C 20 %
1979 19-03-2020 17:49:18 16.9 C 20 %
1980 19-03-2020 17:59:18 16.7 C 20 %
1981 19-03-2020 18:09:18 16.3 C 20 %
1982 19-03-2020 18:20:17 15.7 C 23 %
1983 19-03-2020 18:30:17 13.9 C 29 %
1984 19-03-2020 18:40:17 13.5 C 30 %
1985 19-03-2020 18:50:17 12.8 C 31 %
1986 19-03-2020 18:59:18 12.7 C 31 %
1987 19-03-2020 19:09:18 12.3 C 31 %
1988 19-03-2020 19:20:17 12.2 C 31 %
1989 19-03-2020 19:30:17 11.9 C 32 %
1990 19-03-2020 19:40:17 11.7 C 32 %
1991 19-03-2020 19:50:17 11.7 C 33 %
1992 19-03-2020 19:59:17 11.7 C 33 %
1993 19-03-2020 20:09:17 11.7 C 33 %
1994 19-03-2020 20:29:17 11.5 C 34 %
1995 19-03-2020 20:29:17 11.6 C 34 %
1996 19-03-2020 20:39:17 12 C 33 %
1997 19-03-2020 20:49:17 11.8 C 34 %
1998 19-03-2020 20:59:17 11.5 C 35 %
1999 19-03-2020 21:09:18 12 C 33 %
2000 19-03-2020 21:20:17 11.4 C 35 %
Sensor: Nr:Datum:Temp:Feuchte:
Aussen-T/F 2001 19-03-2020 21:30:17 11.3 C 35 %
2002 19-03-2020 21:40:17 10.3 C 36 %
2003 19-03-2020 21:50:17 10.7 C 36 %
2004 19-03-2020 21:59:18 10.6 C 36 %
2005 19-03-2020 22:09:18 10.1 C 37 %
2006 19-03-2020 22:19:18 9.7 C 38 %
2007 19-03-2020 22:29:18 9.8 C 38 %
2008 19-03-2020 22:39:18 9.5 C 39 %
2009 19-03-2020 22:49:18 9.4 C 39 %
2010 19-03-2020 22:59:18 9.5 C 38 %
2011 19-03-2020 23:09:18 9.5 C 38 %
2012 19-03-2020 23:20:17 9.4 C 39 %
2013 19-03-2020 23:30:17 9.2 C 39 %
2014 19-03-2020 23:40:17 9.6 C 38 %
2015 19-03-2020 23:50:17 9.1 C 39 %
2016 19-03-2020 23:59:18 8.7 C 40 %
2017 20-03-2020 00:09:18 8.6 C 40 %
2018 20-03-2020 00:19:18 9.3 C 39 %
2019 20-03-2020 00:29:18 9.1 C 39 %
2020 20-03-2020 00:39:18 9 C 39 %
2021 20-03-2020 00:59:17 8.8 C 40 %
2022 20-03-2020 01:00:18 8.8 C 40 %
2023 20-03-2020 01:10:18 8.7 C 40 %
2024 20-03-2020 01:20:17 8.7 C 40 %
2025 20-03-2020 01:30:18 8.6 C 40 %
Sensor: Nr:Datum:Temp:Feuchte:
Aussen-T/F 2026 20-03-2020 01:40:18 8.4 C 40 %
2027 20-03-2020 01:50:17 8.5 C 40 %
2028 20-03-2020 02:00:18 8.3 C 40 %
2029 20-03-2020 02:10:18 7.9 C 40 %
2030 20-03-2020 02:20:17 7.6 C 41 %
2031 20-03-2020 02:30:17 7.4 C 41 %
2032 20-03-2020 02:40:17 7.4 C 41 %
2033 20-03-2020 02:50:17 7.1 C 41 %
2034 20-03-2020 03:00:17 7.1 C 42 %
2035 20-03-2020 03:10:17 7.1 C 42 %
2036 20-03-2020 03:20:17 7.1 C 42 %
2037 20-03-2020 03:30:18 7.2 C 42 %
2038 20-03-2020 03:40:18 7.3 C 42 %
2039 20-03-2020 03:50:17 7.5 C 42 %
2040 20-03-2020 04:00:18 7.5 C 42 %
2041 20-03-2020 04:10:18 7.7 C 42 %
2042 20-03-2020 04:20:18 7.6 C 41 %
2043 20-03-2020 04:30:18 7.4 C 42 %
2044 20-03-2020 04:40:18 7.2 C 42 %
2045 20-03-2020 04:50:17 7 C 42 %
2046 20-03-2020 05:00:18 6.9 C 43 %
2047 20-03-2020 05:10:18 6.8 C 43 %
2048 20-03-2020 05:20:17 6.5 C 43 %
2049 20-03-2020 05:30:17 6.2 C 43 %
2050 20-03-2020 05:40:17 5.9 C 44 %
Sensor: Nr:Datum:Temp:Feuchte:
Aussen-T/F 2051 20-03-2020 05:50:17 5.6 C 44 %
2052 20-03-2020 06:00:17 5.4 C 45 %
2053 20-03-2020 06:10:17 5.2 C 45 %
2054 20-03-2020 06:20:17 5 C 45 %
2055 20-03-2020 06:30:17 5.1 C 46 %
2056 20-03-2020 06:40:17 5 C 46 %
2057 20-03-2020 06:50:17 5 C 46 %
2058 20-03-2020 07:00:17 5.1 C 46 %
2059 20-03-2020 07:10:17 5.3 C 46 %
2060 20-03-2020 07:20:17 5.5 C 46 %
2061 20-03-2020 07:30:17 5.6 C 46 %
2062 20-03-2020 07:40:17 5.7 C 46 %
2063 20-03-2020 07:50:18 5.8 C 46 %
2064 20-03-2020 08:00:17 6.3 C 46 %
2065 20-03-2020 08:10:17 6.9 C 45 %
2066 20-03-2020 08:20:17 7.2 C 43 %
2067 20-03-2020 08:30:17 7.1 C 43 %
2068 20-03-2020 08:40:17 7.1 C 43 %
2069 20-03-2020 08:50:17 7.3 C 43 %
2070 20-03-2020 09:00:17 8 C 43 %
2071 20-03-2020 09:10:17 8.2 C 42 %
2072 20-03-2020 09:20:17 9.6 C 42 %
2073 20-03-2020 09:30:17 10 C 40 %
2074 20-03-2020 09:40:17 10.2 C 40 %
2075 20-03-2020 09:50:17 10.5 C 39 %
Sensor: Nr:Datum:Temp:Feuchte:
Aussen-T/F 2076 20-03-2020 10:00:18 10.8 C 39 %
2077 20-03-2020 10:10:18 11.2 C 38 %
2078 20-03-2020 10:20:18 11.1 C 37 %
2079 20-03-2020 10:30:18 11 C 37 %
2080 20-03-2020 10:40:18 11.5 C 37 %
2081 20-03-2020 10:50:18 12.6 C 36 %
2082 20-03-2020 11:00:17 13.1 C 35 %
2083 20-03-2020 11:10:18 13.1 C 35 %
2084 20-03-2020 11:20:18 14.2 C 33 %
2085 20-03-2020 11:30:18 14.5 C 32 %
2086 20-03-2020 11:40:18 15.3 C 31 %
2087 20-03-2020 11:50:18 14.6 C 32 %
2088 20-03-2020 12:00:17 15.6 C 31 %
2089 20-03-2020 12:10:17 15.4 C 30 %
2090 20-03-2020 12:20:17 15.6 C 30 %
2091 20-03-2020 12:30:18 14.4 C 31 %
2092 20-03-2020 12:40:18 14.9 C 31 %
2093 20-03-2020 12:50:18 14.9 C 31 %
2094 20-03-2020 13:00:18 14.9 C 31 %
2095 20-03-2020 13:10:18 14.9 C 31 %
2096 20-03-2020 13:20:18 14.9 C 31 %
2097 20-03-2020 13:30:18 14.9 C 31 %
2098 20-03-2020 13:40:18 14.9 C 31 %
2099 20-03-2020 13:50:17 16.4 C 26 %
2100 20-03-2020 14:00:17 16.2 C 27 %
Sensor: Nr:Datum:Temp:Feuchte:
Aussen-T/F 2101 20-03-2020 14:10:17 16.6 C 26 %
2102 20-03-2020 14:20:17 16.2 C 27 %
2103 20-03-2020 14:30:18 17.4 C 26 %
2104 20-03-2020 14:40:18 17.3 C 26 %
2105 20-03-2020 14:50:18 17.9 C 25 %
2106 20-03-2020 15:00:17 17.9 C 25 %
2107 20-03-2020 15:10:17 18.1 C 25 %
2108 20-03-2020 15:20:17 17 C 25 %
2109 20-03-2020 15:30:18 17.9 C 25 %
2110 20-03-2020 15:40:18 18.5 C 25 %
2111 20-03-2020 15:50:18 17 C 25 %
2112 20-03-2020 16:00:17 16.2 C 26 %
2113 20-03-2020 16:10:17 16.1 C 26 %
2114 20-03-2020 16:20:17 15.5 C 26 %
2115 20-03-2020 16:30:18 15.8 C 26 %
2116 20-03-2020 16:40:18 15.3 C 26 %
2117 20-03-2020 16:50:18 17 C 25 %
2118 20-03-2020 17:00:18 16.1 C 26 %
2119 20-03-2020 17:10:18 15.2 C 27 %
2120 20-03-2020 17:20:18 14.3 C 28 %
2121 20-03-2020 17:30:18 13.9 C 30 %
2122 20-03-2020 17:40:18 12.8 C 31 %
2123 20-03-2020 17:50:17 12.5 C 31 %
2124 20-03-2020 18:00:17 12.4 C 32 %
2125 20-03-2020 18:10:17 11.9 C 33 %
Sensor: Nr:Datum:Temp:Feuchte:
Aussen-T/F 2126 20-03-2020 18:20:17 11.8 C 34 %
2127 20-03-2020 18:30:17 11.6 C 34 %
2128 20-03-2020 18:40:17 11.6 C 34 %
2129 20-03-2020 18:50:18 11.5 C 34 %
2130 20-03-2020 19:00:17 11.5 C 34 %
2131 20-03-2020 19:10:17 11.3 C 34 %
2132 20-03-2020 19:20:17 11.1 C 34 %
2133 20-03-2020 19:30:17 11 C 35 %
2134 20-03-2020 19:40:17 10.7 C 35 %
2135 20-03-2020 19:50:17 10.6 C 35 %
2136 20-03-2020 20:00:17 10.4 C 35 %
2137 20-03-2020 20:10:17 10.2 C 35 %
2138 20-03-2020 20:20:17 10.3 C 35 %
2139 20-03-2020 20:30:17 10.3 C 35 %
2140 20-03-2020 20:40:17 10.2 C 35 %
2141 20-03-2020 20:50:18 10.3 C 35 %
2142 20-03-2020 21:00:18 10.1 C 35 %
2143 20-03-2020 21:10:18 9.9 C 35 %
2144 20-03-2020 21:20:17 9.5 C 35 %
2145 20-03-2020 21:30:17 9.2 C 35 %
2146 20-03-2020 21:40:17 9.1 C 35 %
2147 20-03-2020 21:50:17 8.7 C 36 %
2148 20-03-2020 22:00:17 8.5 C 36 %
2149 20-03-2020 22:10:17 8.4 C 36 %
2150 20-03-2020 22:20:18 8.3 C 36 %
Sensor: Nr:Datum:Temp:Feuchte:
Aussen-T/F 2151 20-03-2020 22:30:17 8.2 C 36 %
2152 20-03-2020 22:40:18 8.1 C 36 %
2153 20-03-2020 22:50:17 8.1 C 36 %
2154 20-03-2020 23:00:18 8 C 35 %
2155 20-03-2020 23:10:18 7.9 C 36 %
2156 20-03-2020 23:20:17 7.9 C 36 %
2157 20-03-2020 23:30:18 7.9 C 35 %
2158 20-03-2020 23:40:18 7.8 C 35 %
2159 20-03-2020 23:50:18 7.7 C 35 %
2160 21-03-2020 00:00:17 7.6 C 34 %
2161 21-03-2020 00:10:17 7.6 C 34 %
2162 21-03-2020 00:20:17 7.4 C 34 %
2163 21-03-2020 00:30:17 7.3 C 34 %
2164 21-03-2020 00:40:17 7.3 C 34 %
2165 21-03-2020 00:50:17 7.3 C 34 %
2166 21-03-2020 01:00:17 7.2 C 33 %
2167 21-03-2020 01:10:17 7.1 C 33 %
2168 21-03-2020 01:20:17 6.8 C 35 %
2169 21-03-2020 01:30:18 6.5 C 35 %
2170 21-03-2020 01:40:18 6.2 C 36 %
2171 21-03-2020 01:50:17 5.9 C 38 %
2172 21-03-2020 02:00:18 5.6 C 39 %
2173 21-03-2020 02:10:18 5.3 C 40 %
2174 21-03-2020 02:20:17 5.1 C 41 %
2175 21-03-2020 02:30:18 4.9 C 43 %
Sensor: Nr:Datum:Temp:Feuchte:
Aussen-T/F 2176 21-03-2020 02:40:18 4.9 C 43 %
2177 21-03-2020 02:50:18 4.6 C 43 %
2178 21-03-2020 03:00:17 4.5 C 43 %
2179 21-03-2020 03:10:17 4.4 C 44 %
2180 21-03-2020 03:20:17 4.5 C 45 %
2181 21-03-2020 03:30:18 4.5 C 45 %
2182 21-03-2020 03:40:18 4.4 C 45 %
2183 21-03-2020 03:50:17 4.4 C 45 %
2184 21-03-2020 04:00:18 4.3 C 45 %
2185 21-03-2020 04:10:18 4.2 C 45 %
2186 21-03-2020 04:20:17 4.1 C 45 %
2187 21-03-2020 04:30:18 4.1 C 45 %
2188 21-03-2020 04:40:18 4 C 45 %
2189 21-03-2020 04:50:18 3.9 C 46 %
2190 21-03-2020 05:00:18 3.9 C 46 %
2191 21-03-2020 05:10:18 4 C 46 %
2192 21-03-2020 05:20:18 3.9 C 47 %
2193 21-03-2020 05:30:18 3.9 C 47 %
2194 21-03-2020 05:40:18 3.9 C 47 %
2195 21-03-2020 05:50:17 4 C 46 %
2196 21-03-2020 06:00:18 4 C 47 %
2197 21-03-2020 06:10:18 3.9 C 47 %
2198 21-03-2020 06:20:17 4 C 47 %
2199 21-03-2020 06:30:18 4 C 47 %
2200 21-03-2020 06:40:18 4 C 47 %
Sensor: Nr:Datum:Temp:Feuchte:
Aussen-T/F 2201 21-03-2020 06:50:17 4 C 47 %
2202 21-03-2020 07:00:17 4.1 C 47 %
2203 21-03-2020 07:10:18 4.1 C 47 %
2204 21-03-2020 07:20:18 4.1 C 47 %
2205 21-03-2020 07:30:18 4.2 C 47 %
2206 21-03-2020 07:40:18 4.3 C 47 %
2207 21-03-2020 07:50:17 4.3 C 47 %
2208 21-03-2020 08:00:18 4.4 C 47 %
2209 21-03-2020 08:10:18 4.5 C 47 %
2210 21-03-2020 08:20:17 4.5 C 46 %
2211 21-03-2020 08:30:17 4.6 C 46 %
2212 21-03-2020 08:40:17 4.7 C 46 %
2213 21-03-2020 08:50:18 4.8 C 46 %
2214 21-03-2020 09:00:18 4.7 C 46 %
2215 21-03-2020 09:10:18 4.6 C 45 %
2216 21-03-2020 09:20:18 5.2 C 43 %
2217 21-03-2020 09:30:18 5.6 C 42 %
2218 21-03-2020 09:40:18 5.8 C 41 %
2219 21-03-2020 09:50:17 6 C 41 %
2220 21-03-2020 10:00:17 6.2 C 41 %
2221 21-03-2020 10:10:18 6.4 C 39 %
2222 21-03-2020 10:20:18 6.5 C 40 %
2223 21-03-2020 10:30:18 6.7 C 39 %
2224 21-03-2020 10:40:18 6.7 C 38 %
2225 21-03-2020 10:50:17 6.4 C 39 %
Sensor: Nr:Datum:Temp:Feuchte:
Aussen-T/F 2226 21-03-2020 11:00:17 6.5 C 37 %
2227 21-03-2020 11:10:18 7.1 C 36 %
2228 21-03-2020 11:20:18 7.3 C 36 %
2229 21-03-2020 11:30:18 8.1 C 34 %
2230 21-03-2020 11:40:18 8 C 34 %
2231 21-03-2020 11:50:18 8.3 C 32 %
2232 21-03-2020 12:00:18 7.8 C 32 %
2233 21-03-2020 12:10:18 7.6 C 33 %
2234 21-03-2020 12:20:17 7.9 C 31 %
2235 21-03-2020 12:30:17 8.7 C 32 %
2236 21-03-2020 12:40:17 8.2 C 30 %
2237 21-03-2020 12:50:17 7.8 C 31 %
2238 21-03-2020 13:00:17 7.9 C 30 %
2239 21-03-2020 13:10:17 8.7 C 30 %
2240 21-03-2020 13:20:18 8.9 C 28 %
2241 21-03-2020 13:30:18 8.5 C 28 %
2242 21-03-2020 13:40:18 8.2 C 27 %
2243 21-03-2020 13:50:17 8.4 C 27 %
2244 21-03-2020 14:00:18 8.6 C 27 %
2245 21-03-2020 14:10:18 9.1 C 26 %
2246 21-03-2020 14:20:18 8.7 C 27 %
2247 21-03-2020 14:30:18 9.1 C 25 %
2248 21-03-2020 14:40:18 11.1 C 24 %
2249 21-03-2020 14:50:17 9.8 C 23 %
2250 21-03-2020 15:00:18 11 C 20 %
Sensor: Nr:Datum:Temp:Feuchte:
Aussen-T/F 2251 21-03-2020 15:10:18 10.1 C 20 %
2252 21-03-2020 15:20:17 11.2 C 20 %
2253 21-03-2020 15:30:17 11.7 C 20 %
2254 21-03-2020 15:40:17 9.4 C 20 %
2255 21-03-2020 15:50:17 8.6 C 20 %
2256 21-03-2020 16:00:18 9.4 C 20 %
2257 21-03-2020 16:10:18 9.5 C 20 %
2258 21-03-2020 16:20:17 12.1 C 20 %
2259 21-03-2020 16:30:17 12 C 20 %
2260 21-03-2020 16:40:17 13.3 C 20 %
2261 21-03-2020 16:50:17 10.9 C 20 %
2262 21-03-2020 17:00:17 9.2 C 20 %
2263 21-03-2020 17:10:17 8.9 C 20 %
2264 21-03-2020 17:20:17 8.3 C 20 %
2265 21-03-2020 17:30:18 7.8 C 20 %
2266 21-03-2020 17:40:18 7.8 C 20 %
2267 21-03-2020 17:50:17 7.5 C 20 %
2268 21-03-2020 18:00:17 7 C 20 %
2269 21-03-2020 18:10:17 6.9 C 20 %
2270 21-03-2020 18:20:17 6.6 C 21 %
2271 21-03-2020 18:30:17 6.4 C 23 %
2272 21-03-2020 18:40:17 5.9 C 25 %
2273 21-03-2020 18:50:17 5.5 C 27 %
2274 21-03-2020 19:00:17 5.5 C 26 %
2275 21-03-2020 19:10:17 5.1 C 28 %
Sensor: Nr:Datum:Temp:Feuchte:
Aussen-T/F 2276 21-03-2020 19:20:17 4.7 C 30 %
2277 21-03-2020 19:30:18 4.4 C 31 %
2278 21-03-2020 19:40:18 4.5 C 30 %
2279 21-03-2020 19:50:17 4.4 C 29 %
2280 21-03-2020 20:00:18 4.1 C 30 %
2281 21-03-2020 20:10:18 3.7 C 31 %
2282 21-03-2020 20:20:18 3.2 C 33 %
2283 21-03-2020 20:30:18 3.7 C 32 %
2284 21-03-2020 20:40:18 3.9 C 30 %
2285 21-03-2020 20:50:17 3.6 C 31 %
2286 21-03-2020 21:00:18 3.3 C 32 %
2287 21-03-2020 21:10:18 3 C 32 %
2288 21-03-2020 21:20:18 3.4 C 32 %
2289 21-03-2020 21:30:18 3.1 C 31 %
2290 21-03-2020 21:40:18 2.9 C 32 %
2291 21-03-2020 21:50:17 2.6 C 33 %
2292 21-03-2020 22:00:17 1.9 C 36 %
2293 21-03-2020 22:10:17 2.3 C 34 %
2294 21-03-2020 22:20:17 3 C 32 %
2295 21-03-2020 22:30:18 2.7 C 32 %
2296 21-03-2020 22:40:18 2.3 C 33 %
2297 21-03-2020 22:50:18 2.7 C 32 %
2298 21-03-2020 23:00:18 2 C 34 %
2299 21-03-2020 23:10:18 2.2 C 33 %
2300 21-03-2020 23:20:18 1.6 C 35 %
Sensor: Nr:Datum:Temp:Feuchte:
Aussen-T/F 2301 21-03-2020 23:30:18 1.7 C 35 %
2302 21-03-2020 23:40:18 1.8 C 35 %
2303 21-03-2020 23:50:17 1.7 C 35 %
2304 22-03-2020 00:00:18 1.4 C 35 %
2305 22-03-2020 00:10:18 1.5 C 35 %
2306 22-03-2020 00:20:17 0.9 C 37 %
2307 22-03-2020 00:30:17 0.7 C 38 %
2308 22-03-2020 00:40:17 1.2 C 36 %
2309 22-03-2020 00:50:17 0.9 C 37 %
2310 22-03-2020 01:00:18 1.5 C 35 %
2311 22-03-2020 01:10:18 1.5 C 35 %
2312 22-03-2020 01:20:18 1.1 C 35 %
2313 22-03-2020 01:30:18 1.1 C 35 %
2314 22-03-2020 01:40:18 0.9 C 36 %
2315 22-03-2020 01:50:18 1 C 35 %
2316 22-03-2020 02:00:18 1 C 35 %
2317 22-03-2020 02:10:18 0.1 C 38 %
2318 22-03-2020 02:20:17 0.3 C 38 %
2319 22-03-2020 02:30:18 0.5 C 37 %
2320 22-03-2020 02:40:18 0.5 C 37 %
2321 22-03-2020 02:50:18 0.4 C 37 %
2322 22-03-2020 03:00:18 0.2 C 37 %
2323 22-03-2020 03:10:18 0.7 C 37 %
2324 22-03-2020 03:20:18 -0.4 C 38 %
2325 22-03-2020 03:30:18 -0.1 C 38 %
Sensor: Nr:Datum:Temp:Feuchte:
Aussen-T/F 2326 22-03-2020 03:40:18 -0.4 C 39 %
2327 22-03-2020 03:50:17 -0.3 C 39 %
2328 22-03-2020 04:00:17 -0.2 C 38 %
2329 22-03-2020 04:10:17 0 C 37 %
2330 22-03-2020 04:20:17 -0.4 C 38 %
2331 22-03-2020 04:30:17 0.3 C 37 %
2332 22-03-2020 04:40:17 0.1 C 37 %
2333 22-03-2020 04:50:17 -0.2 C 38 %
2334 22-03-2020 05:00:18 0.1 C 37 %
2335 22-03-2020 05:10:18 -0.3 C 37 %
2336 22-03-2020 05:20:17 -0.4 C 37 %
2337 22-03-2020 05:30:18 -0.5 C 38 %
2338 22-03-2020 05:40:18 -0.7 C 38 %
2339 22-03-2020 05:50:17 -1 C 39 %
2340 22-03-2020 06:00:17 -1.1 C 39 %
2341 22-03-2020 06:10:17 -0.8 C 39 %
2342 22-03-2020 06:20:17 0.1 C 37 %
2343 22-03-2020 06:30:17 -0.3 C 37 %
2344 22-03-2020 06:40:17 -0.4 C 37 %
2345 22-03-2020 06:50:18 0 C 36 %
2346 22-03-2020 07:00:18 -0.3 C 37 %
2347 22-03-2020 07:10:18 -0.2 C 37 %
2348 22-03-2020 07:20:18 -0.4 C 37 %
2349 22-03-2020 07:30:18 -0.1 C 36 %
2350 22-03-2020 07:40:18 -0.2 C 37 %
Sensor: Nr:Datum:Temp:Feuchte:
Aussen-T/F 2351 22-03-2020 07:50:17 -0.1 C 36 %
2352 22-03-2020 08:00:18 -0.1 C 36 %
2353 22-03-2020 08:10:18 0.3 C 36 %
2354 22-03-2020 08:20:18 0.3 C 35 %
2355 22-03-2020 08:30:18 0.5 C 35 %
2356 22-03-2020 08:40:18 0.8 C 35 %
2357 22-03-2020 08:50:18 0.4 C 35 %
2358 22-03-2020 09:00:18 0.8 C 35 %
2359 22-03-2020 09:10:18 1.2 C 32 %
2360 22-03-2020 09:20:18 1.6 C 32 %
2361 22-03-2020 09:30:18 2.2 C 30 %
2362 22-03-2020 09:40:18 2.5 C 27 %
2363 22-03-2020 09:50:17 2.8 C 26 %
2364 22-03-2020 10:00:18 3.3 C 25 %
2365 22-03-2020 10:10:18 3.6 C 25 %
2366 22-03-2020 10:20:18 3.9 C 20 %
2367 22-03-2020 10:30:18 4.4 C 20 %
2368 22-03-2020 10:40:18 4.6 C 20 %
2369 22-03-2020 10:50:17 5.2 C 20 %
2370 22-03-2020 11:00:18 5.5 C 20 %
2371 22-03-2020 11:10:18 6.3 C 20 %
2372 22-03-2020 11:20:17 6.5 C 20 %
2373 22-03-2020 11:30:18 6.7 C 20 %
2374 22-03-2020 11:40:18 6.7 C 20 %
2375 22-03-2020 11:50:17 6.5 C 20 %
Sensor: Nr:Datum:Temp:Feuchte:
Aussen-T/F 2376 22-03-2020 12:00:18 7 C 20 %
2377 22-03-2020 12:10:18 7.4 C 20 %
2378 22-03-2020 12:20:18 7.3 C 20 %
2379 22-03-2020 12:30:17 6.9 C 20 %
2380 22-03-2020 12:40:17 8 C 20 %
2381 22-03-2020 12:50:18 8.5 C 20 %
2382 22-03-2020 13:00:18 10.1 C 20 %
2383 22-03-2020 13:10:18 11.1 C 20 %
2384 22-03-2020 13:20:17 11.9 C 20 %
2385 22-03-2020 13:30:18 11.6 C 20 %
2386 22-03-2020 13:40:18 10.9 C 20 %
2387 22-03-2020 13:50:18 10.3 C 20 %
2388 22-03-2020 14:00:17 9.6 C 20 %
2389 22-03-2020 14:10:17 10.2 C 20 %
2390 22-03-2020 14:20:17 12.2 C 20 %
2391 22-03-2020 14:30:17 12.6 C 20 %
2392 22-03-2020 14:40:17 14.4 C 20 %
2393 22-03-2020 14:50:17 14.4 C 20 %
2394 22-03-2020 15:00:18 15 C 20 %
2395 22-03-2020 15:10:18 14.4 C 20 %
2396 22-03-2020 15:20:17 14.7 C 20 %
2397 22-03-2020 15:30:17 13.6 C 20 %
2398 22-03-2020 15:40:17 13.7 C 20 %
2399 22-03-2020 15:50:18 15.4 C 20 %
2400 22-03-2020 16:00:18 16.2 C 20 %
Sensor: Nr:Datum:Temp:Feuchte:
Aussen-T/F 2401 22-03-2020 16:10:18 14.9 C 20 %
2402 22-03-2020 16:20:18 14.1 C 20 %
2403 22-03-2020 16:30:18 13.3 C 20 %
2404 22-03-2020 16:40:18 13.2 C 20 %
2405 22-03-2020 16:50:17 11.7 C 20 %
2406 22-03-2020 17:00:17 10.7 C 20 %
2407 22-03-2020 17:10:17 9.9 C 20 %
2408 22-03-2020 17:20:17 9.7 C 20 %
2409 22-03-2020 17:30:17 9.8 C 20 %
2410 22-03-2020 17:40:17 9.5 C 20 %
2411 22-03-2020 17:50:17 8.9 C 20 %
2412 22-03-2020 18:00:18 8.6 C 20 %
2413 22-03-2020 18:10:18 8.4 C 20 %
2414 22-03-2020 18:20:17 7.9 C 20 %
2415 22-03-2020 18:30:17 7.5 C 20 %
2416 22-03-2020 18:40:17 7 C 20 %
2417 22-03-2020 18:50:17 6.5 C 20 %
2418 22-03-2020 19:00:17 5.6 C 20 %
2419 22-03-2020 19:10:17 4.9 C 21 %
2420 22-03-2020 19:20:17 5.2 C 20 %
2421 22-03-2020 19:30:17 4.3 C 26 %
2422 22-03-2020 19:40:17 3.8 C 27 %
2423 22-03-2020 19:50:18 3.7 C 28 %
2424 22-03-2020 20:00:18 3.6 C 28 %
2425 22-03-2020 20:10:18 3.6 C 27 %
Sensor: Nr:Datum:Temp:Feuchte:
Aussen-T/F 2426 22-03-2020 20:20:17 3.6 C 26 %
2427 22-03-2020 20:30:17 3.2 C 26 %
2428 22-03-2020 20:40:17 3 C 26 %
2429 22-03-2020 20:50:17 2.5 C 30 %
2430 22-03-2020 21:00:17 2.9 C 26 %
2431 22-03-2020 21:10:17 2.7 C 27 %
2432 22-03-2020 21:20:17 2.3 C 30 %
2433 22-03-2020 21:30:17 2.2 C 29 %
2434 22-03-2020 21:40:17 1.8 C 30 %
2435 22-03-2020 21:50:18 1.5 C 31 %
2436 22-03-2020 22:00:18 2 C 30 %
2437 22-03-2020 22:10:18 2.5 C 26 %
2438 22-03-2020 22:20:17 1.8 C 30 %
2439 22-03-2020 22:30:17 1.5 C 29 %
2440 22-03-2020 22:40:17 1.3 C 31 %
2441 22-03-2020 22:50:17 1.4 C 30 %
2442 22-03-2020 23:00:17 0.7 C 33 %
2443 22-03-2020 23:10:17 1.1 C 30 %
2444 22-03-2020 23:20:17 0.8 C 32 %
2445 22-03-2020 23:30:18 0.3 C 33 %
2446 22-03-2020 23:40:18 0.3 C 34 %
2447 22-03-2020 23:50:18 0.6 C 33 %
2448 23-03-2020 00:00:18 0.4 C 34 %
2449 23-03-2020 00:10:18 0 C 33 %
2450 23-03-2020 00:20:17 -0.2 C 33 %
Sensor: Nr:Datum:Temp:Feuchte:
Aussen-T/F 2451 23-03-2020 00:30:17 -0.5 C 35 %
2452 23-03-2020 00:40:17 -0.7 C 36 %
2453 23-03-2020 00:50:18 -1.1 C 36 %
2454 23-03-2020 01:00:17 -0.6 C 35 %
2455 23-03-2020 01:10:17 -0.7 C 36 %
2456 23-03-2020 01:20:17 -0.9 C 35 %
2457 23-03-2020 01:30:18 -0.8 C 35 %
2458 23-03-2020 01:40:18 -1.1 C 35 %
2459 23-03-2020 01:50:18 -0.8 C 35 %
2460 23-03-2020 02:00:18 -1.1 C 35 %
2461 23-03-2020 02:10:18 -1.4 C 35 %
2462 23-03-2020 02:20:17 -1.2 C 35 %
2463 23-03-2020 02:30:17 -1.2 C 35 %
2464 23-03-2020 02:40:17 -1.2 C 35 %
2465 23-03-2020 02:50:17 -1.3 C 35 %
2466 23-03-2020 03:00:17 -1.6 C 35 %
2467 23-03-2020 03:10:18 -1.9 C 35 %
2468 23-03-2020 03:20:18 -1.6 C 35 %
2469 23-03-2020 03:30:18 -1.7 C 35 %
2470 23-03-2020 03:40:18 -1.9 C 35 %
2471 23-03-2020 03:50:18 -1.8 C 35 %
2472 23-03-2020 04:00:18 -1.8 C 35 %
2473 23-03-2020 04:10:18 -2.1 C 35 %
2474 23-03-2020 04:20:17 -1.9 C 35 %
2475 23-03-2020 04:30:17 -2 C 35 %
Sensor: Nr:Datum:Temp:Feuchte:
Aussen-T/F 2476 23-03-2020 04:40:17 -2.1 C 35 %
2477 23-03-2020 04:50:17 -2.7 C 36 %
2478 23-03-2020 05:00:18 -2.5 C 36 %
2479 23-03-2020 05:10:18 -2.4 C 36 %
2480 23-03-2020 05:20:17 -2.3 C 36 %
2481 23-03-2020 05:30:18 -2.4 C 35 %
2482 23-03-2020 05:40:18 -2.7 C 36 %
2483 23-03-2020 05:50:17 -2.7 C 36 %
2484 23-03-2020 06:00:18 -2.6 C 36 %
2485 23-03-2020 06:10:18 -2.9 C 36 %
2486 23-03-2020 06:20:17 -2.6 C 36 %
2487 23-03-2020 06:30:18 -2.8 C 36 %
2488 23-03-2020 06:40:18 -3.2 C 36 %
2489 23-03-2020 06:50:18 -3 C 36 %
2490 23-03-2020 07:00:18 -3 C 36 %
2491 23-03-2020 07:10:18 -3.1 C 36 %
2492 23-03-2020 07:20:18 -2.5 C 35 %
2493 23-03-2020 07:30:18 -2.7 C 36 %
2494 23-03-2020 07:40:18 -2.6 C 36 %
2495 23-03-2020 07:50:18 -1.9 C 34 %
2496 23-03-2020 08:00:18 -2 C 35 %
2497 23-03-2020 08:10:18 -1.4 C 32 %
2498 23-03-2020 08:20:17 -1.1 C 31 %
2499 23-03-2020 08:30:18 -0.2 C 27 %
2500 23-03-2020 08:40:18 -0.2 C 26 %
Sensor: Nr:Datum:Temp:Feuchte:
Aussen-T/F 2501 23-03-2020 08:50:18 -0.3 C 25 %
2502 23-03-2020 09:00:18 0 C 23 %
2503 23-03-2020 09:10:18 0.2 C 23 %
2504 23-03-2020 09:20:18 0.5 C 20 %
2505 23-03-2020 09:30:17 0.7 C 20 %
2506 23-03-2020 09:40:17 1.5 C 20 %
2507 23-03-2020 09:50:18 1.8 C 20 %
2508 23-03-2020 10:00:18 2.4 C 20 %
2509 23-03-2020 10:10:18 2.7 C 20 %
2510 23-03-2020 10:20:18 3 C 20 %
2511 23-03-2020 10:30:17 3.8 C 20 %
2512 23-03-2020 10:40:17 4.1 C 20 %
2513 23-03-2020 10:50:17 4.7 C 20 %
2514 23-03-2020 11:00:17 5.5 C 20 %
2515 23-03-2020 11:10:17 5.5 C 20 %
2516 23-03-2020 11:20:17 6 C 20 %
2517 23-03-2020 11:30:18 6.7 C 20 %
2518 23-03-2020 11:40:18 6.2 C 20 %
2519 23-03-2020 11:50:17 6.3 C 20 %
2520 23-03-2020 12:00:18 7 C 20 %
2521 23-03-2020 12:10:18 7.4 C 20 %
2522 23-03-2020 12:20:18 7.8 C 20 %
2523 23-03-2020 12:30:18 7.5 C 20 %
2524 23-03-2020 12:40:18 8.1 C 20 %
2525 23-03-2020 12:50:18 8.7 C 20 %
Sensor: Nr:Datum:Temp:Feuchte:
Aussen-T/F 2526 23-03-2020 13:00:17 10.4 C 20 %
2527 23-03-2020 13:10:17 10.7 C 20 %
2528 23-03-2020 13:20:17 11.9 C 20 %
2529 23-03-2020 13:30:17 11.4 C 20 %
2530 23-03-2020 13:40:17 10 C 20 %
2531 23-03-2020 13:50:17 9.8 C 20 %
2532 23-03-2020 14:00:18 9.2 C 20 %
2533 23-03-2020 14:10:18 10.5 C 20 %
2534 23-03-2020 14:20:18 12.9 C 20 %
2535 23-03-2020 14:30:18 13 C 20 %
2536 23-03-2020 14:40:18 14.2 C 20 %
2537 23-03-2020 14:50:18 14.3 C 20 %
2538 23-03-2020 15:00:18 14.3 C 20 %
2539 23-03-2020 15:10:18 14.4 C 20 %
2540 23-03-2020 15:20:17 14.7 C 20 %
2541 23-03-2020 15:30:17 13.5 C 20 %
2542 23-03-2020 15:40:17 14.4 C 20 %
2543 23-03-2020 15:50:17 14.1 C 20 %
2544 23-03-2020 16:00:17 13.8 C 20 %
2545 23-03-2020 16:10:17 14.7 C 20 %
2546 23-03-2020 16:20:17 15.3 C 20 %
2547 23-03-2020 16:30:18 14.7 C 20 %
2548 23-03-2020 16:40:18 14.8 C 20 %
2549 23-03-2020 16:50:17 11.4 C 20 %
2550 23-03-2020 17:00:18 10.1 C 20 %
Sensor: Nr:Datum:Temp:Feuchte:
Aussen-T/F 2551 23-03-2020 17:10:18 9.7 C 20 %
2552 23-03-2020 17:20:18 9.4 C 20 %
2553 23-03-2020 17:30:18 9 C 20 %
2554 23-03-2020 17:40:18 9 C 20 %
2555 23-03-2020 17:50:17 8.6 C 20 %
2556 23-03-2020 18:00:18 8.3 C 20 %
2557 23-03-2020 18:10:18 7.6 C 20 %
2558 23-03-2020 18:20:17 7.4 C 20 %
2559 23-03-2020 18:30:18 7 C 20 %
2560 23-03-2020 18:40:18 5.3 C 20 %
2561 23-03-2020 18:50:18 4.4 C 20 %
2562 23-03-2020 19:00:18 4.2 C 20 %
2563 23-03-2020 19:10:18 4.1 C 20 %
2564 23-03-2020 19:20:17 3.7 C 20 %
2565 23-03-2020 19:30:18 3.6 C 20 %
2566 23-03-2020 19:40:18 3.4 C 20 %
2567 23-03-2020 19:50:18 2.7 C 20 %
2568 23-03-2020 20:00:17 2.9 C 20 %
2569 23-03-2020 20:10:17 2.6 C 20 %
2570 23-03-2020 20:20:17 2.5 C 20 %
2571 23-03-2020 20:30:18 2.3 C 20 %
2572 23-03-2020 20:40:18 2.4 C 20 %
2573 23-03-2020 20:50:18 2.3 C 20 %
2574 23-03-2020 21:00:18 2.1 C 20 %
2575 23-03-2020 21:10:18 0.9 C 27 %
Sensor: Nr:Datum:Temp:Feuchte:
Aussen-T/F 2576 23-03-2020 21:20:17 1 C 26 %
2577 23-03-2020 21:30:18 1.1 C 28 %
2578 23-03-2020 21:40:18 0.7 C 29 %
2579 23-03-2020 21:50:18 0.2 C 30 %
2580 23-03-2020 22:00:17 -0.4 C 31 %
2581 23-03-2020 22:10:18 -0.9 C 35 %
2582 23-03-2020 22:20:18 -0.2 C 34 %
2583 23-03-2020 22:30:18 -0.9 C 35 %
2584 23-03-2020 22:40:18 -0.9 C 35 %
2585 23-03-2020 22:50:18 -1.3 C 35 %
2586 23-03-2020 23:00:18 -1.4 C 36 %
2587 23-03-2020 23:10:18 -1.6 C 36 %
2588 23-03-2020 23:20:17 -1.7 C 36 %
2589 23-03-2020 23:30:17 -1.7 C 37 %
2590 23-03-2020 23:40:17 -1.9 C 37 %
2591 23-03-2020 23:50:18 -1.8 C 37 %
2592 24-03-2020 00:00:18 -1.9 C 36 %
2593 24-03-2020 00:10:18 -2 C 36 %
2594 24-03-2020 00:20:17 -2.2 C 36 %
2595 24-03-2020 00:30:18 -2.4 C 37 %
2596 24-03-2020 00:40:18 -2.4 C 38 %
2597 24-03-2020 00:50:18 -2.5 C 38 %
2598 24-03-2020 01:00:18 -2.3 C 37 %
2599 24-03-2020 01:10:18 -2.6 C 37 %
2600 24-03-2020 01:20:18 -2.7 C 38 %
Sensor: Nr:Datum:Temp:Feuchte:
Aussen-T/F 2601 24-03-2020 01:30:18 -2.7 C 38 %
2602 24-03-2020 01:40:18 -3 C 38 %
2603 24-03-2020 01:50:18 -2.5 C 37 %
2604 24-03-2020 02:00:18 -2.6 C 38 %
2605 24-03-2020 02:10:18 -2.8 C 38 %
2606 24-03-2020 02:20:17 -3.1 C 38 %
2607 24-03-2020 02:30:17 -3.2 C 38 %
2608 24-03-2020 02:40:17 -3.3 C 38 %
2609 24-03-2020 02:50:17 -3.2 C 38 %
2610 24-03-2020 03:00:17 -3.4 C 38 %
2611 24-03-2020 03:10:17 -3.5 C 38 %
2612 24-03-2020 03:20:17 -3.6 C 39 %
2613 24-03-2020 03:30:17 -3.6 C 38 %
2614 24-03-2020 03:40:17 -3.7 C 38 %
2615 24-03-2020 03:50:17 -3.9 C 39 %
2616 24-03-2020 04:00:18 -3.7 C 39 %
2617 24-03-2020 04:10:18 -3.9 C 38 %
2618 24-03-2020 04:20:18 -4 C 38 %
2619 24-03-2020 04:30:18 -4 C 38 %
2620 24-03-2020 04:40:18 -4 C 38 %
2621 24-03-2020 04:50:17 -3.9 C 38 %
2622 24-03-2020 05:00:17 -4.2 C 38 %
2623 24-03-2020 05:10:17 -4.3 C 39 %
2624 24-03-2020 05:20:17 -4.2 C 38 %
2625 24-03-2020 05:30:18 -4.3 C 38 %
Sensor: Nr:Datum:Temp:Feuchte:
Aussen-T/F 2626 24-03-2020 05:40:18 -4.4 C 38 %
2627 24-03-2020 05:50:18 -4.6 C 39 %
2628 24-03-2020 06:00:17 -4.7 C 39 %
2629 24-03-2020 06:10:18 -4.7 C 38 %
2630 24-03-2020 06:20:17 -4.7 C 39 %
2631 24-03-2020 06:30:18 -4.7 C 38 %
2632 24-03-2020 06:40:18 -4.6 C 39 %
2633 24-03-2020 06:50:18 -4.4 C 38 %
2634 24-03-2020 07:00:18 -4.5 C 39 %
2635 24-03-2020 07:10:18 -4.4 C 39 %
2636 24-03-2020 07:20:18 -4.3 C 39 %
2637 24-03-2020 07:30:18 -4.2 C 39 %
2638 24-03-2020 07:40:18 -4 C 39 %
2639 24-03-2020 07:50:17 -3.8 C 39 %
2640 24-03-2020 08:00:17 -3.7 C 39 %
2641 24-03-2020 08:10:17 -3.5 C 38 %
2642 24-03-2020 08:20:17 -3.3 C 38 %
2643 24-03-2020 08:30:17 -2.5 C 38 %
2644 24-03-2020 08:40:17 -2.4 C 37 %
2645 24-03-2020 08:50:17 -2 C 37 %
2646 24-03-2020 09:00:17 -1.6 C 36 %
2647 24-03-2020 09:10:17 -0.7 C 35 %
2648 24-03-2020 09:20:17 -0.2 C 34 %
2649 24-03-2020 09:30:17 0.4 C 30 %
2650 24-03-2020 09:40:17 1 C 27 %
Sensor: Nr:Datum:Temp:Feuchte:
Aussen-T/F 2651 24-03-2020 09:50:18 1.7 C 23 %
2652 24-03-2020 10:00:18 3 C 20 %
2653 24-03-2020 10:10:18 3.3 C 20 %
2654 24-03-2020 10:20:17 3.9 C 20 %
2655 24-03-2020 10:30:17 4.3 C 20 %
2656 24-03-2020 10:40:17 4.7 C 20 %
2657 24-03-2020 10:50:17 5.7 C 20 %
2658 24-03-2020 11:00:18 5.7 C 20 %
2659 24-03-2020 11:10:18 6.4 C 20 %
2660 24-03-2020 11:20:17 6.9 C 20 %
2661 24-03-2020 11:30:17 7.9 C 20 %
2662 24-03-2020 11:40:17 7.2 C 20 %
2663 24-03-2020 11:50:18 6.8 C 20 %
2664 24-03-2020 12:00:18 7.8 C 20 %
2665 24-03-2020 12:10:18 8.6 C 20 %
2666 24-03-2020 12:20:17 8.2 C 20 %
2667 24-03-2020 12:30:17 8.2 C 20 %
2668 24-03-2020 12:40:17 9 C 20 %
2669 24-03-2020 12:50:17 9.2 C 20 %
2670 24-03-2020 13:00:18 10.4 C 20 %
2671 24-03-2020 13:10:18 11.7 C 20 %
2672 24-03-2020 13:20:17 12.5 C 20 %
2673 24-03-2020 13:30:17 13 C 20 %
2674 24-03-2020 13:40:17 11.9 C 20 %
2675 24-03-2020 13:50:18 11 C 20 %
Sensor: Nr:Datum:Temp:Feuchte:
Aussen-T/F 2676 24-03-2020 14:00:17 10.8 C 20 %
2677 24-03-2020 14:10:17 11.3 C 20 %
2678 24-03-2020 14:20:17 13.7 C 20 %
2679 24-03-2020 14:30:17 12.2 C 20 %
2680 24-03-2020 14:40:17 14.4 C 20 %
2681 24-03-2020 14:50:18 13.4 C 20 %
2682 24-03-2020 15:00:18 13.5 C 20 %
2683 24-03-2020 15:10:18 14.1 C 20 %
2684 24-03-2020 15:20:18 15.3 C 20 %
2685 24-03-2020 15:30:18 14.1 C 20 %
2686 24-03-2020 15:40:18 15.4 C 20 %
2687 24-03-2020 15:50:18 14.9 C 20 %
2688 24-03-2020 16:00:18 14.8 C 20 %
2689 24-03-2020 16:10:18 14.8 C 20 %
2690 24-03-2020 16:20:18 14.1 C 20 %
2691 24-03-2020 16:30:18 13.6 C 20 %
2692 24-03-2020 16:40:18 14.3 C 20 %
2693 24-03-2020 16:50:18 11.4 C 20 %
2694 24-03-2020 17:00:18 10.8 C 20 %
2695 24-03-2020 17:10:18 10.4 C 20 %
2696 24-03-2020 17:20:18 10.1 C 20 %
2697 24-03-2020 17:30:18 9.9 C 20 %
2698 24-03-2020 17:40:18 9.6 C 20 %
2699 24-03-2020 17:50:17 9.3 C 20 %
2700 24-03-2020 18:00:17 9 C 20 %
Sensor: Nr:Datum:Temp:Feuchte:
Aussen-T/F 2701 24-03-2020 18:10:17 8.6 C 20 %
2702 24-03-2020 18:20:17 8.4 C 20 %
2703 24-03-2020 18:30:17 7.6 C 20 %
2704 24-03-2020 18:40:18 6.4 C 20 %
2705 24-03-2020 18:50:17 5.4 C 20 %
2706 24-03-2020 19:00:18 4.9 C 20 %
2707 24-03-2020 19:10:18 4.6 C 20 %
2708 24-03-2020 19:20:18 4.5 C 20 %
2709 24-03-2020 19:30:18 4.1 C 20 %
2710 24-03-2020 19:40:18 3.9 C 20 %
2711 24-03-2020 19:50:17 3.6 C 20 %
2712 24-03-2020 20:00:18 3.6 C 20 %
2713 24-03-2020 20:10:18 3.5 C 20 %
2714 24-03-2020 20:20:17 3.4 C 20 %
2715 24-03-2020 20:30:18 3.4 C 20 %
2716 24-03-2020 20:40:18 2.9 C 20 %
2717 24-03-2020 20:50:18 2.7 C 20 %
2718 24-03-2020 21:00:18 2.7 C 20 %
2719 24-03-2020 21:10:18 2.6 C 20 %
2720 24-03-2020 21:20:17 2.3 C 20 %
2721 24-03-2020 21:30:17 2.3 C 20 %
2722 24-03-2020 21:40:17 2.2 C 20 %
2723 24-03-2020 21:50:17 2.2 C 20 %
2724 24-03-2020 22:00:18 1.7 C 20 %
2725 24-03-2020 22:10:18 1.6 C 20 %
Sensor: Nr:Datum:Temp:Feuchte:
Aussen-T/F 2726 24-03-2020 22:20:17 1.6 C 20 %
2727 24-03-2020 22:30:18 0.3 C 25 %
2728 24-03-2020 22:40:18 -0.2 C 30 %
2729 24-03-2020 22:50:17 -0.7 C 30 %
2730 24-03-2020 23:00:18 -1.2 C 32 %
2731 24-03-2020 23:10:18 -1.1 C 31 %
2732 24-03-2020 23:20:17 -1.4 C 31 %
2733 24-03-2020 23:30:18 -1.7 C 30 %
2734 24-03-2020 23:40:18 -0.9 C 30 %
2735 24-03-2020 23:50:18 -1.2 C 30 %
2736 25-03-2020 00:00:17 -1.6 C 30 %
2737 25-03-2020 00:10:17 -1.6 C 31 %
2738 25-03-2020 00:20:17 -1.8 C 32 %
2739 25-03-2020 00:30:17 -1.8 C 30 %
2740 25-03-2020 00:40:18 -1.9 C 31 %
2741 25-03-2020 00:50:17 -1.8 C 32 %
2742 25-03-2020 01:00:17 -1.6 C 32 %
2743 25-03-2020 01:10:18 -1.3 C 31 %
2744 25-03-2020 01:20:17 -1.1 C 30 %
2745 25-03-2020 01:30:18 -1.1 C 29 %
2746 25-03-2020 01:40:18 -0.9 C 28 %
2747 25-03-2020 01:50:17 -1.1 C 28 %
2748 25-03-2020 02:00:17 -1.1 C 28 %
2749 25-03-2020 02:10:18 -1.3 C 27 %
2750 25-03-2020 02:20:18 -1.4 C 29 %
Sensor: Nr:Datum:Temp:Feuchte:
Aussen-T/F 2751 25-03-2020 02:30:18 -1.6 C 27 %
2752 25-03-2020 02:40:18 -1.5 C 27 %
2753 25-03-2020 02:50:18 -1.4 C 27 %
2754 25-03-2020 03:00:18 -1.4 C 26 %
2755 25-03-2020 03:10:18 -1.4 C 26 %
2756 25-03-2020 03:20:17 -1.5 C 27 %
2757 25-03-2020 03:30:17 -2.3 C 30 %
2758 25-03-2020 03:40:17 -2.6 C 31 %
2759 25-03-2020 03:50:17 -2.8 C 32 %
2760 25-03-2020 04:00:17 -3.1 C 33 %
2761 25-03-2020 04:10:17 -3.2 C 34 %
2762 25-03-2020 04:20:17 -3.3 C 34 %
2763 25-03-2020 04:30:18 -3.3 C 34 %
2764 25-03-2020 04:40:18 -3 C 33 %
2765 25-03-2020 04:50:17 -3.2 C 33 %
2766 25-03-2020 05:00:18 -3 C 32 %
2767 25-03-2020 05:10:18 -2.6 C 32 %
2768 25-03-2020 05:20:17 -2.3 C 30 %
2769 25-03-2020 05:30:17 -2.5 C 30 %
2770 25-03-2020 05:40:17 -3.4 C 33 %
2771 25-03-2020 05:50:17 -4 C 35 %
2772 25-03-2020 06:00:17 -4.4 C 36 %
2773 25-03-2020 06:10:17 -4.2 C 36 %
2774 25-03-2020 06:20:17 -4.2 C 36 %
2775 25-03-2020 06:30:17 -4.4 C 36 %
Sensor: Nr:Datum:Temp:Feuchte:
Aussen-T/F 2776 25-03-2020 06:40:17 -4.3 C 36 %
2777 25-03-2020 06:50:17 -4.3 C 36 %
2778 25-03-2020 07:00:17 -4.3 C 37 %
2779 25-03-2020 07:10:17 -4.3 C 37 %
2780 25-03-2020 07:20:17 -4.1 C 37 %
2781 25-03-2020 07:30:17 -4 C 37 %
2782 25-03-2020 07:40:17 -3.8 C 37 %
2783 25-03-2020 07:50:17 -3.2 C 36 %
2784 25-03-2020 08:00:17 -2.6 C 35 %
2785 25-03-2020 08:10:17 -2 C 32 %
2786 25-03-2020 08:20:17 -2.7 C 35 %
2787 25-03-2020 08:30:17 -2 C 34 %
2788 25-03-2020 08:40:17 -1.9 C 34 %
2789 25-03-2020 08:50:17 -1.6 C 34 %
2790 25-03-2020 09:00:17 -1.5 C 34 %
2791 25-03-2020 09:10:17 -1.3 C 35 %
2792 25-03-2020 09:20:17 -1 C 35 %
2793 25-03-2020 09:30:17 -0.2 C 32 %
2794 25-03-2020 09:40:18 0.7 C 29 %
2795 25-03-2020 09:50:17 2.1 C 20 %
2796 25-03-2020 10:00:18 2.8 C 20 %
2797 25-03-2020 10:10:18 3.2 C 20 %
2798 25-03-2020 10:20:17 3.6 C 20 %
2799 25-03-2020 10:30:17 4.1 C 20 %
2800 25-03-2020 10:40:17 4.7 C 20 %
Sensor: Nr:Datum:Temp:Feuchte:
Aussen-T/F 2801 25-03-2020 10:50:17 5.1 C 20 %
2802 25-03-2020 11:00:17 5.3 C 20 %
2803 25-03-2020 11:10:17 5.7 C 20 %
2804 25-03-2020 11:20:17 7.2 C 20 %
2805 25-03-2020 11:30:18 7.7 C 20 %
2806 25-03-2020 11:40:18 7.3 C 20 %
2807 25-03-2020 11:50:17 6.8 C 20 %
2808 25-03-2020 12:00:17 7.8 C 20 %
2809 25-03-2020 12:10:17 8.3 C 20 %
2810 25-03-2020 12:20:17 8.4 C 20 %
2811 25-03-2020 12:30:17 8.4 C 20 %
2812 25-03-2020 12:40:17 8.6 C 20 %
2813 25-03-2020 12:50:17 10.3 C 20 %
2814 25-03-2020 13:00:17 11.2 C 20 %
2815 25-03-2020 13:10:17 12.2 C 20 %
2816 25-03-2020 13:20:18 13.8 C 20 %
2817 25-03-2020 13:30:18 14.5 C 20 %
2818 25-03-2020 13:40:18 12.4 C 20 %
2819 25-03-2020 13:50:18 12 C 20 %
2820 25-03-2020 14:00:18 11.3 C 20 %
2821 25-03-2020 14:10:18 11.1 C 20 %
2822 25-03-2020 14:20:17 13.2 C 20 %
2823 25-03-2020 14:30:17 13.5 C 20 %
2824 25-03-2020 14:40:17 12.7 C 20 %
2825 25-03-2020 14:50:17 13.5 C 20 %
Sensor: Nr:Datum:Temp:Feuchte:
Aussen-T/F 2826 25-03-2020 15:00:17 13.8 C 20 %
2827 25-03-2020 15:10:17 14.1 C 20 %
2828 25-03-2020 15:20:18 14.9 C 20 %
2829 25-03-2020 15:30:18 14.4 C 20 %
2830 25-03-2020 15:40:18 14.4 C 20 %
2831 25-03-2020 15:50:17 15 C 20 %
2832 25-03-2020 16:00:18 15.3 C 20 %
2833 25-03-2020 16:10:18 14.5 C 20 %
2834 25-03-2020 16:20:17 15.7 C 20 %
2835 25-03-2020 16:30:17 13.8 C 20 %
2836 25-03-2020 16:40:17 12.9 C 20 %
2837 25-03-2020 16:50:18 12.2 C 20 %
2838 25-03-2020 17:00:18 11.9 C 20 %
2839 25-03-2020 17:10:18 11.5 C 20 %
2840 25-03-2020 17:20:17 11.1 C 20 %
2841 25-03-2020 17:30:17 11 C 20 %
2842 25-03-2020 17:40:17 10.7 C 20 %
2843 25-03-2020 17:50:17 10.5 C 20 %
2844 25-03-2020 18:00:18 10.5 C 20 %
2845 25-03-2020 18:10:18 10.1 C 20 %
2846 25-03-2020 18:20:17 9.6 C 20 %
2847 25-03-2020 18:30:18 8.8 C 20 %
2848 25-03-2020 18:40:18 7.7 C 20 %
2849 25-03-2020 18:50:18 7 C 20 %
2850 25-03-2020 19:00:18 6.3 C 20 %
Sensor: Nr:Datum:Temp:Feuchte:
Aussen-T/F 2851 25-03-2020 19:10:18 6.1 C 20 %
2852 25-03-2020 19:20:17 5.4 C 20 %
2853 25-03-2020 19:30:18 5.8 C 20 %
2854 25-03-2020 19:40:18 5.1 C 20 %
2855 25-03-2020 19:50:17 4.6 C 20 %
2856 25-03-2020 20:00:17 4.5 C 20 %
2857 25-03-2020 20:10:17 4.1 C 20 %
2858 25-03-2020 20:20:17 4 C 20 %
2859 25-03-2020 20:30:18 4.7 C 20 %
2860 25-03-2020 20:40:18 4.3 C 20 %
2861 25-03-2020 20:50:17 3.8 C 20 %
2862 25-03-2020 21:00:18 4.6 C 20 %
2863 25-03-2020 21:10:18 4.6 C 20 %
2864 25-03-2020 21:20:17 4.3 C 20 %
2865 25-03-2020 21:30:17 4.3 C 20 %
2866 25-03-2020 21:40:17 4 C 20 %
2867 25-03-2020 21:50:17 3.6 C 20 %
2868 25-03-2020 22:00:17 2.8 C 20 %
2869 25-03-2020 22:10:17 2.6 C 20 %
2870 25-03-2020 22:20:17 2.6 C 20 %
2871 25-03-2020 22:30:18 2.1 C 20 %
2872 25-03-2020 22:40:18 2.3 C 20 %
2873 25-03-2020 22:50:18 2.1 C 20 %
2874 25-03-2020 23:00:18 1.7 C 20 %
2875 25-03-2020 23:10:18 1.7 C 23 %
Sensor: Nr:Datum:Temp:Feuchte:
Aussen-T/F 2876 25-03-2020 23:20:17 1.6 C 23 %
2877 25-03-2020 23:30:18 1.5 C 21 %
2878 25-03-2020 23:40:18 1.8 C 20 %
2879 25-03-2020 23:50:18 1.8 C 20 %
2880 26-03-2020 00:00:18 1.4 C 21 %
2881 26-03-2020 00:10:18 1.2 C 21 %
2882 26-03-2020 00:20:18 1.3 C 21 %
2883 26-03-2020 00:30:18 0.9 C 23 %
2884 26-03-2020 00:40:18 0.9 C 25 %
2885 26-03-2020 00:50:18 1 C 23 %
2886 26-03-2020 01:00:18 0.7 C 25 %
2887 26-03-2020 01:10:18 0.4 C 25 %
2888 26-03-2020 01:20:17 0.5 C 25 %
2889 26-03-2020 01:30:17 0.7 C 25 %
2890 26-03-2020 01:40:17 0.7 C 23 %
2891 26-03-2020 01:50:17 0.7 C 21 %
2892 26-03-2020 02:00:17 0.6 C 23 %
2893 26-03-2020 02:10:17 0.7 C 21 %
2894 26-03-2020 02:20:17 0.7 C 21 %
2895 26-03-2020 02:30:17 0.6 C 21 %
2896 26-03-2020 02:40:18 0.4 C 21 %
2897 26-03-2020 02:50:17 0.3 C 23 %
2898 26-03-2020 03:00:17 0 C 23 %
2899 26-03-2020 03:10:18 0.1 C 23 %
2900 26-03-2020 03:20:18 0 C 23 %
Sensor: Nr:Datum:Temp:Feuchte:
Aussen-T/F 2901 26-03-2020 03:30:18 -0.3 C 25 %
2902 26-03-2020 03:40:18 -0.3 C 27 %
2903 26-03-2020 03:50:17 -0.4 C 27 %
2904 26-03-2020 04:00:17 -0.1 C 26 %
2905 26-03-2020 04:10:17 -0.3 C 25 %
2906 26-03-2020 04:20:17 -0.3 C 26 %
2907 26-03-2020 04:30:18 -0.4 C 26 %
2908 26-03-2020 04:40:18 -0.4 C 26 %
2909 26-03-2020 04:50:17 -0.5 C 26 %
2910 26-03-2020 05:00:18 -0.5 C 27 %
2911 26-03-2020 05:10:18 -0.6 C 27 %
2912 26-03-2020 05:20:17 -0.6 C 28 %
2913 26-03-2020 05:30:17 -0.7 C 28 %
2914 26-03-2020 05:40:18 -0.5 C 28 %
2915 26-03-2020 05:50:17 -0.6 C 28 %
2916 26-03-2020 06:00:18 -0.7 C 29 %
2917 26-03-2020 06:10:18 -0.8 C 28 %
2918 26-03-2020 06:20:18 -0.9 C 28 %
2919 26-03-2020 06:30:18 -1 C 28 %
2920 26-03-2020 06:40:18 -0.9 C 30 %
2921 26-03-2020 06:50:18 -1.1 C 30 %
2922 26-03-2020 07:00:18 -0.8 C 30 %
2923 26-03-2020 07:10:18 -1.1 C 30 %
2924 26-03-2020 07:20:18 -0.6 C 30 %
2925 26-03-2020 07:30:18 -0.4 C 30 %
Sensor: Nr:Datum:Temp:Feuchte:
Aussen-T/F 2926 26-03-2020 07:40:18 0.2 C 27 %
2927 26-03-2020 07:50:17 0.5 C 25 %
2928 26-03-2020 08:00:18 0.3 C 28 %
2929 26-03-2020 08:10:18 0.4 C 28 %
2930 26-03-2020 08:20:18 0.7 C 26 %
2931 26-03-2020 08:30:18 1.4 C 21 %
2932 26-03-2020 08:40:18 1.7 C 21 %
2933 26-03-2020 08:50:17 2.2 C 20 %
2934 26-03-2020 09:00:18 2.3 C 20 %
2935 26-03-2020 09:10:18 2.3 C 20 %
2936 26-03-2020 09:20:18 2.7 C 20 %
2937 26-03-2020 09:30:18 3.2 C 20 %
2938 26-03-2020 09:40:18 3.5 C 20 %
2939 26-03-2020 09:50:18 4.1 C 20 %
2940 26-03-2020 10:00:18 4.4 C 20 %
2941 26-03-2020 10:10:18 4.9 C 20 %
2942 26-03-2020 10:20:18 5 C 20 %
2943 26-03-2020 10:30:18 5.4 C 20 %
2944 26-03-2020 10:40:18 5.9 C 20 %
2945 26-03-2020 10:50:17 6 C 20 %
2946 26-03-2020 11:00:18 6.6 C 20 %
2947 26-03-2020 11:10:18 6.9 C 20 %
2948 26-03-2020 11:20:18 7.3 C 20 %
2949 26-03-2020 11:30:18 8.5 C 20 %
2950 26-03-2020 11:40:18 8.3 C 20 %
Sensor: Nr:Datum:Temp:Feuchte:
Aussen-T/F 2951 26-03-2020 11:50:18 7.3 C 20 %
2952 26-03-2020 12:00:18 8 C 20 %
2953 26-03-2020 12:10:18 9.1 C 20 %
2954 26-03-2020 12:20:17 9.6 C 20 %
2955 26-03-2020 12:30:17 9.6 C 20 %
2956 26-03-2020 12:40:17 9.6 C 20 %
2957 26-03-2020 12:50:17 9.7 C 20 %
2958 26-03-2020 13:00:17 10.4 C 20 %
2959 26-03-2020 13:10:17 10.8 C 20 %
2960 26-03-2020 13:20:18 11.5 C 20 %
2961 26-03-2020 13:30:18 11.5 C 20 %
2962 26-03-2020 13:40:18 12.1 C 20 %
2963 26-03-2020 13:50:18 13 C 20 %
2964 26-03-2020 14:00:18 12 C 20 %
2965 26-03-2020 14:10:18 12.2 C 20 %
2966 26-03-2020 14:20:18 11.9 C 20 %
2967 26-03-2020 14:30:18 14.3 C 20 %
2968 26-03-2020 14:40:18 14.2 C 20 %
2969 26-03-2020 14:50:17 14 C 20 %
2970 26-03-2020 15:00:17 15.3 C 20 %
2971 26-03-2020 15:10:18 14.2 C 20 %
2972 26-03-2020 15:20:18 14 C 20 %
2973 26-03-2020 15:30:18 15.6 C 20 %
2974 26-03-2020 15:40:18 15.6 C 20 %
2975 26-03-2020 15:50:18 16.5 C 20 %
Sensor: Nr:Datum:Temp:Feuchte:
Aussen-T/F 2976 26-03-2020 16:00:18 15.6 C 20 %
2977 26-03-2020 16:10:18 15.3 C 20 %
2978 26-03-2020 16:20:18 12.5 C 20 %
2979 26-03-2020 16:30:18 12.3 C 20 %
2980 26-03-2020 16:40:18 13.9 C 20 %
2981 26-03-2020 16:50:18 12.8 C 20 %
2982 26-03-2020 17:00:18 11.4 C 20 %
2983 26-03-2020 17:10:18 11 C 20 %
2984 26-03-2020 17:20:17 10.9 C 20 %
2985 26-03-2020 17:30:17 11 C 20 %
2986 26-03-2020 17:40:17 11.1 C 20 %
2987 26-03-2020 17:50:17 10.7 C 20 %
2988 26-03-2020 18:00:17 10.5 C 20 %
2989 26-03-2020 18:10:17 10.3 C 20 %
2990 26-03-2020 18:20:18 10.1 C 20 %
2991 26-03-2020 18:30:18 9.8 C 20 %
2992 26-03-2020 18:40:18 9.4 C 20 %
2993 26-03-2020 18:50:17 8.6 C 20 %
2994 26-03-2020 19:00:17 8 C 20 %
2995 26-03-2020 19:10:17 7.4 C 20 %
2996 26-03-2020 19:20:17 6.9 C 21 %
2997 26-03-2020 19:30:17 6.7 C 21 %
2998 26-03-2020 19:40:17 6.4 C 21 %
2999 26-03-2020 19:50:17 6.5 C 21 %
3000 26-03-2020 20:00:17 6.2 C 23 %
Sensor: Nr:Datum:Temp:Feuchte:
Aussen-T/F 3001 26-03-2020 20:10:18 6 C 23 %
3002 26-03-2020 20:20:18 5.7 C 25 %
3003 26-03-2020 20:30:17 5.4 C 26 %
3004 26-03-2020 20:40:17 4.9 C 28 %
3005 26-03-2020 20:50:17 4.9 C 28 %
3006 26-03-2020 21:00:17 4.7 C 29 %
3007 26-03-2020 21:10:17 4.5 C 29 %
3008 26-03-2020 21:20:17 4.5 C 30 %
3009 26-03-2020 21:30:18 4.1 C 30 %
3010 26-03-2020 21:40:18 4.6 C 30 %
3011 26-03-2020 21:50:18 4.6 C 30 %
3012 26-03-2020 22:00:18 4.6 C 30 %
3013 26-03-2020 22:10:18 4.6 C 30 %
3014 26-03-2020 22:20:17 4.5 C 30 %
3015 26-03-2020 22:30:17 4.5 C 30 %
3016 26-03-2020 22:40:17 4.5 C 30 %
3017 26-03-2020 22:50:17 4.4 C 30 %
3018 26-03-2020 23:00:18 4.5 C 30 %
3019 26-03-2020 23:10:18 4.2 C 30 %
3020 26-03-2020 23:20:17 4.2 C 30 %
3021 26-03-2020 23:30:18 3.9 C 31 %
3022 26-03-2020 23:40:18 4 C 30 %
3023 26-03-2020 23:50:18 3.9 C 31 %
3024 27-03-2020 00:00:18 4 C 30 %
3025 27-03-2020 00:10:18 3.9 C 31 %
Sensor: Nr:Datum:Temp:Feuchte:
Aussen-T/F 3026 27-03-2020 00:20:17 4 C 30 %
3027 27-03-2020 00:30:17 4 C 30 %
3028 27-03-2020 00:40:17 3.7 C 32 %
3029 27-03-2020 00:50:18 3.6 C 32 %
3030 27-03-2020 01:00:18 2.7 C 35 %
3031 27-03-2020 01:10:18 2.5 C 36 %
3032 27-03-2020 01:20:17 3 C 35 %
3033 27-03-2020 01:30:18 3.1 C 35 %
3034 27-03-2020 01:40:18 2.7 C 36 %
3035 27-03-2020 01:50:18 3 C 35 %
3036 27-03-2020 02:00:18 2.9 C 35 %
3037 27-03-2020 02:10:18 2.8 C 35 %
3038 27-03-2020 02:20:17 2.7 C 35 %
3039 27-03-2020 02:30:17 2.5 C 36 %
3040 27-03-2020 02:40:17 2.5 C 36 %
3041 27-03-2020 02:50:17 2.6 C 35 %
3042 27-03-2020 03:00:17 2.6 C 35 %
3043 27-03-2020 03:10:17 2.2 C 36 %
3044 27-03-2020 03:20:17 2.5 C 35 %
3045 27-03-2020 03:30:17 2.4 C 35 %
3046 27-03-2020 03:40:17 2.6 C 35 %
3047 27-03-2020 03:50:17 2.4 C 36 %
3048 27-03-2020 04:00:18 2.4 C 35 %
3049 27-03-2020 04:10:18 2.4 C 35 %
3050 27-03-2020 04:20:18 1.4 C 38 %
Sensor: Nr:Datum:Temp:Feuchte:
Aussen-T/F 3051 27-03-2020 04:30:18 1.3 C 38 %
3052 27-03-2020 04:40:18 1.6 C 38 %
3053 27-03-2020 04:50:17 1.8 C 37 %
3054 27-03-2020 05:00:18 1.5 C 38 %
3055 27-03-2020 05:10:18 0.7 C 40 %
3056 27-03-2020 05:20:18 0.4 C 40 %
3057 27-03-2020 05:30:18 0 C 41 %
3058 27-03-2020 05:40:18 0 C 42 %
3059 27-03-2020 05:50:18 -0.1 C 42 %
3060 27-03-2020 06:00:18 -0.5 C 42 %
3061 27-03-2020 06:10:18 -0.6 C 43 %
3062 27-03-2020 06:20:18 -0.4 C 43 %
3063 27-03-2020 06:30:18 -0.4 C 43 %
3064 27-03-2020 06:40:18 -0.3 C 43 %
3065 27-03-2020 06:50:17 -0.3 C 43 %
3066 27-03-2020 07:00:18 -0.2 C 43 %
3067 27-03-2020 07:10:18 -0.1 C 43 %
3068 27-03-2020 07:20:18 0.1 C 43 %
3069 27-03-2020 07:30:18 0.3 C 43 %
3070 27-03-2020 07:40:18 0.8 C 43 %
3071 27-03-2020 07:50:17 1.2 C 41 %
3072 27-03-2020 08:00:17 1.1 C 41 %
3073 27-03-2020 08:10:18 1.9 C 40 %
3074 27-03-2020 08:20:18 1.7 C 40 %
3075 27-03-2020 08:30:18 1.6 C 41 %
Sensor: Nr:Datum:Temp:Feuchte:
Aussen-T/F 3076 27-03-2020 08:40:18 1.9 C 41 %
3077 27-03-2020 08:50:17 2.6 C 39 %
3078 27-03-2020 09:00:18 3 C 38 %
3079 27-03-2020 09:10:18 3.3 C 37 %
3080 27-03-2020 09:20:17 3.6 C 37 %
3081 27-03-2020 09:30:18 4.1 C 36 %
3082 27-03-2020 09:40:18 4.5 C 35 %
3083 27-03-2020 09:50:18 5.3 C 35 %
3084 27-03-2020 10:00:18 5.8 C 34 %
3085 27-03-2020 10:10:18 6.5 C 32 %
3086 27-03-2020 10:20:17 7.6 C 30 %
3087 27-03-2020 10:30:17 8.1 C 28 %
3088 27-03-2020 10:40:17 9.1 C 25 %
3089 27-03-2020 10:50:17 9.3 C 25 %
3090 27-03-2020 11:00:17 10.2 C 20 %
3091 27-03-2020 11:10:17 11 C 20 %
3092 27-03-2020 11:20:17 12.4 C 20 %
3093 27-03-2020 11:30:17 14.5 C 20 %
3094 27-03-2020 11:40:17 14.2 C 20 %
3095 27-03-2020 11:50:17 12.5 C 20 %
3096 27-03-2020 12:00:17 13.4 C 20 %
3097 27-03-2020 12:10:17 13.7 C 20 %
3098 27-03-2020 12:20:17 14.4 C 20 %
3099 27-03-2020 12:30:17 14.1 C 20 %
3100 27-03-2020 12:40:18 14.2 C 20 %
Sensor: Nr:Datum:Temp:Feuchte:
Aussen-T/F 3101 27-03-2020 12:50:18 14.6 C 20 %
3102 27-03-2020 13:00:18 16.6 C 20 %
3103 27-03-2020 13:10:18 15.8 C 20 %
3104 27-03-2020 13:20:17 17.6 C 20 %
3105 27-03-2020 13:30:18 18.8 C 20 %
3106 27-03-2020 13:40:18 16.8 C 20 %
3107 27-03-2020 13:50:18 17.3 C 20 %
3108 27-03-2020 14:00:18 16.9 C 20 %
3109 27-03-2020 14:10:18 17.6 C 20 %
3110 27-03-2020 14:20:18 17.7 C 20 %
3111 27-03-2020 14:30:17 20.4 C 20 %
3112 27-03-2020 14:40:17 18.1 C 20 %
3113 27-03-2020 14:50:17 18.4 C 20 %
3114 27-03-2020 15:00:17 18.5 C 20 %
3115 27-03-2020 15:10:17 18.7 C 20 %
3116 27-03-2020 15:20:17 18.9 C 20 %
3117 27-03-2020 15:30:18 19.4 C 20 %
3118 27-03-2020 15:40:18 18.3 C 20 %
3119 27-03-2020 15:50:17 19.5 C 20 %
3120 27-03-2020 16:00:17 18.5 C 20 %
3121 27-03-2020 16:10:17 18.2 C 20 %
3122 27-03-2020 16:20:17 19.2 C 20 %
3123 27-03-2020 16:30:17 18.3 C 20 %
3124 27-03-2020 16:40:17 18 C 20 %
3125 27-03-2020 16:50:17 17 C 20 %
Sensor: Nr:Datum:Temp:Feuchte:
Aussen-T/F 3126 27-03-2020 17:00:18 16.4 C 20 %
3127 27-03-2020 17:10:18 16.3 C 20 %
3128 27-03-2020 17:20:18 16.1 C 20 %
3129 27-03-2020 17:30:18 16 C 20 %
3130 27-03-2020 17:40:18 15.8 C 20 %
3131 27-03-2020 17:50:18 15.7 C 20 %
3132 27-03-2020 18:00:17 15.4 C 20 %
3133 27-03-2020 18:10:17 15 C 20 %
3134 27-03-2020 18:20:17 14.1 C 20 %
3135 27-03-2020 18:30:18 13.5 C 20 %
3136 27-03-2020 18:40:18 12.9 C 20 %
3137 27-03-2020 18:50:18 12.3 C 20 %
3138 27-03-2020 19:00:18 11.8 C 20 %
3139 27-03-2020 19:10:18 11.5 C 20 %
3140 27-03-2020 19:20:17 11.4 C 20 %
3141 27-03-2020 19:30:17 10.7 C 20 %
3142 27-03-2020 19:40:17 10.7 C 21 %
3143 27-03-2020 19:50:17 10.4 C 23 %
3144 27-03-2020 20:00:18 10.4 C 22 %
3145 27-03-2020 20:10:18 9.2 C 26 %
3146 27-03-2020 20:20:17 8.9 C 28 %
3147 27-03-2020 20:30:17 8.4 C 30 %
3148 27-03-2020 20:40:17 8.1 C 30 %
3149 27-03-2020 20:50:18 7.8 C 31 %
3150 27-03-2020 21:00:17 7.4 C 31 %
Sensor: Nr:Datum:Temp:Feuchte:
Aussen-T/F 3151 27-03-2020 21:10:17 7.3 C 32 %
3152 27-03-2020 21:20:17 7.1 C 32 %
3153 27-03-2020 21:30:17 7 C 32 %
3154 27-03-2020 21:40:17 6.6 C 33 %
3155 27-03-2020 21:50:17 6.6 C 34 %
3156 27-03-2020 22:00:17 6.4 C 34 %
3157 27-03-2020 22:10:17 6.3 C 34 %
3158 27-03-2020 22:20:17 6 C 35 %
3159 27-03-2020 22:30:18 5.8 C 35 %
3160 27-03-2020 22:40:18 5.6 C 35 %
3161 27-03-2020 22:50:18 5.5 C 36 %
3162 27-03-2020 23:00:18 5.6 C 36 %
3163 27-03-2020 23:10:18 5.6 C 36 %
3164 27-03-2020 23:20:17 5.3 C 36 %
3165 27-03-2020 23:30:17 5.2 C 36 %
3166 27-03-2020 23:40:17 5.1 C 36 %
3167 27-03-2020 23:50:17 4.8 C 37 %
3168 28-03-2020 00:00:17 4.8 C 38 %
3169 28-03-2020 00:10:17 4.8 C 39 %
3170 28-03-2020 00:20:17 5 C 37 %
3171 28-03-2020 00:30:18 4.9 C 38 %
3172 28-03-2020 00:40:18 4.7 C 38 %
3173 28-03-2020 00:50:17 4.7 C 38 %
3174 28-03-2020 01:00:17 4.6 C 38 %
3175 28-03-2020 01:10:17 4.4 C 39 %
Sensor: Nr:Datum:Temp:Feuchte:
Aussen-T/F 3176 28-03-2020 01:20:17 4.3 C 39 %
3177 28-03-2020 01:30:17 4.1 C 39 %
3178 28-03-2020 01:40:18 3.9 C 40 %
3179 28-03-2020 01:50:17 3.7 C 41 %
3180 28-03-2020 02:00:18 3.6 C 41 %
3181 28-03-2020 02:10:18 3.3 C 41 %
3182 28-03-2020 02:20:18 3.1 C 41 %
3183 28-03-2020 02:30:17 3.7 C 42 %
3184 28-03-2020 02:40:17 3.7 C 41 %
3185 28-03-2020 02:50:18 3.4 C 41 %
3186 28-03-2020 03:00:18 3.1 C 41 %
3187 28-03-2020 03:10:18 2.9 C 42 %
3188 28-03-2020 03:20:17 2.8 C 43 %
3189 28-03-2020 03:30:18 2.6 C 43 %
3190 28-03-2020 03:40:18 2.1 C 43 %
3191 28-03-2020 03:50:17 2.1 C 44 %
3192 28-03-2020 04:00:18 2.2 C 44 %
3193 28-03-2020 04:10:18 2.1 C 44 %
3194 28-03-2020 04:20:18 1.9 C 45 %
3195 28-03-2020 04:30:18 1.7 C 45 %
3196 28-03-2020 04:40:18 1.8 C 46 %
3197 28-03-2020 04:50:17 1.8 C 46 %
3198 28-03-2020 05:00:18 1.7 C 45 %
3199 28-03-2020 05:10:18 1.6 C 45 %
3200 28-03-2020 05:20:17 1.5 C 45 %
Sensor: Nr:Datum:Temp:Feuchte:
Aussen-T/F 3201 28-03-2020 05:30:18 1.3 C 46 %
3202 28-03-2020 05:40:18 1.2 C 46 %
3203 28-03-2020 05:50:18 1.2 C 46 %
3204 28-03-2020 06:00:18 1.2 C 46 %
3205 28-03-2020 06:10:18 1.3 C 46 %
3206 28-03-2020 06:20:17 1.1 C 46 %
3207 28-03-2020 06:30:17 1.1 C 46 %
3208 28-03-2020 06:40:17 1 C 46 %
3209 28-03-2020 06:50:17 1.2 C 47 %
3210 28-03-2020 07:00:17 1.5 C 47 %
3211 28-03-2020 07:10:17 1.7 C 47 %
3212 28-03-2020 07:20:17 1.9 C 47 %
3213 28-03-2020 07:30:18 1.9 C 46 %
3214 28-03-2020 07:40:18 1.9 C 46 %
3215 28-03-2020 07:50:17 2 C 45 %
3216 28-03-2020 08:00:17 2.2 C 45 %
3217 28-03-2020 08:10:18 2.5 C 45 %
3218 28-03-2020 08:20:18 2.8 C 46 %
3219 28-03-2020 08:30:17 3.2 C 45 %
3220 28-03-2020 08:40:17 3.7 C 44 %
3221 28-03-2020 08:50:18 4 C 43 %
3222 28-03-2020 09:00:18 4.6 C 43 %
3223 28-03-2020 09:10:18 5.1 C 41 %
3224 28-03-2020 09:20:17 5.7 C 41 %
3225 28-03-2020 09:30:18 6.3 C 40 %
Sensor: Nr:Datum:Temp:Feuchte:
Aussen-T/F 3226 28-03-2020 09:40:18 6.9 C 40 %
3227 28-03-2020 09:50:18 7.8 C 38 %
3228 28-03-2020 10:00:18 8.4 C 37 %
3229 28-03-2020 10:10:18 9.5 C 35 %
3230 28-03-2020 10:20:17 10.2 C 32 %
3231 28-03-2020 10:30:17 10.9 C 31 %
3232 28-03-2020 10:40:17 11.6 C 30 %
3233 28-03-2020 10:50:18 12.2 C 29 %
3234 28-03-2020 11:00:18 13.4 C 26 %
3235 28-03-2020 11:10:18 13.6 C 25 %
3236 28-03-2020 11:20:17 15.8 C 20 %
3237 28-03-2020 11:30:17 16.7 C 20 %
3238 28-03-2020 11:40:17 16.4 C 20 %
3239 28-03-2020 11:50:18 15.9 C 20 %
3240 28-03-2020 12:00:17 16.6 C 20 %
3241 28-03-2020 12:10:17 17 C 20 %
3242 28-03-2020 12:20:17 17.7 C 20 %
3243 28-03-2020 12:30:17 17.8 C 20 %
3244 28-03-2020 12:40:17 18.1 C 20 %
3245 28-03-2020 12:50:18 18 C 20 %
3246 28-03-2020 13:00:18 18.6 C 20 %
3247 28-03-2020 13:10:18 19.6 C 20 %
3248 28-03-2020 13:20:18 21.7 C 20 %
3249 28-03-2020 13:30:17 21.1 C 20 %
3250 28-03-2020 13:40:17 20.7 C 20 %
Sensor: Nr:Datum:Temp:Feuchte:
Aussen-T/F 3251 28-03-2020 13:50:18 20.6 C 20 %
3252 28-03-2020 14:00:17 21.1 C 20 %
3253 28-03-2020 14:10:17 21.3 C 20 %
3254 28-03-2020 14:20:17 21.9 C 20 %
3255 28-03-2020 14:30:17 23.7 C 20 %
3256 28-03-2020 14:40:17 24.3 C 20 %
3257 28-03-2020 14:50:17 23.2 C 20 %
3258 28-03-2020 15:00:18 22.4 C 20 %
3259 28-03-2020 15:10:18 19.9 C 20 %
3260 28-03-2020 15:20:18 18.6 C 20 %
3261 28-03-2020 15:30:18 19.6 C 20 %
3262 28-03-2020 15:40:18 22.1 C 20 %
3263 28-03-2020 15:50:18 20.5 C 20 %
3264 28-03-2020 16:00:18 21.1 C 20 %
3265 28-03-2020 16:10:18 21.1 C 20 %
3266 28-03-2020 16:20:18 19.9 C 20 %
3267 28-03-2020 16:30:18 19.6 C 20 %
3268 28-03-2020 16:40:18 19.6 C 20 %
3269 28-03-2020 16:50:18 18.5 C 20 %
3270 28-03-2020 17:00:18 17.9 C 20 %
3271 28-03-2020 17:10:18 17 C 20 %
3272 28-03-2020 17:20:18 16.6 C 20 %
3273 28-03-2020 17:30:18 16.2 C 20 %
3274 28-03-2020 17:40:18 16.2 C 20 %
3275 28-03-2020 17:50:17 15.4 C 20 %
Sensor: Nr:Datum:Temp:Feuchte:
Aussen-T/F 3276 28-03-2020 18:00:18 14.9 C 20 %
3277 28-03-2020 18:10:18 14.6 C 20 %
3278 28-03-2020 18:20:17 14 C 20 %
3279 28-03-2020 18:30:17 13.5 C 20 %
3280 28-03-2020 18:40:17 13.1 C 20 %
3281 28-03-2020 18:50:18 12.6 C 20 %
3282 28-03-2020 19:00:18 12.3 C 20 %
3283 28-03-2020 19:10:18 11.7 C 20 %
3284 28-03-2020 19:20:18 11.7 C 20 %
3285 28-03-2020 19:30:18 11.4 C 20 %
3286 28-03-2020 19:40:18 11.2 C 20 %
3287 28-03-2020 19:50:17 10.8 C 20 %
3288 28-03-2020 20:00:18 10.3 C 20 %
3289 28-03-2020 20:10:18 10.7 C 20 %
3290 28-03-2020 20:20:17 10.5 C 20 %
3291 28-03-2020 20:30:18 10 C 20 %
3292 28-03-2020 20:40:18 9.2 C 20 %
3293 28-03-2020 20:50:17 8.7 C 20 %
3294 28-03-2020 21:00:17 8.8 C 20 %
3295 28-03-2020 21:10:17 9.2 C 20 %
3296 28-03-2020 21:20:17 8.7 C 23 %
3297 28-03-2020 21:30:17 8.1 C 25 %
3298 28-03-2020 21:40:17 8.4 C 23 %
3299 28-03-2020 21:50:17 7.6 C 25 %
3300 28-03-2020 22:00:17 8.3 C 25 %
Sensor: Nr:Datum:Temp:Feuchte:
Aussen-T/F 3301 28-03-2020 22:10:17 8.5 C 21 %
3302 28-03-2020 22:20:17 8.4 C 25 %
3303 28-03-2020 22:30:17 8.3 C 26 %
3304 28-03-2020 22:40:17 7.9 C 26 %
3305 28-03-2020 22:50:17 7.4 C 28 %
3306 28-03-2020 23:00:17 7.3 C 30 %
3307 28-03-2020 23:10:17 7.2 C 30 %
3308 28-03-2020 23:20:18 7.1 C 30 %
3309 28-03-2020 23:30:18 7.1 C 31 %
3310 28-03-2020 23:40:18 6.8 C 32 %
3311 28-03-2020 23:50:17 6.7 C 33 %
3312 29-03-2020 00:00:18 6.5 C 33 %
3313 29-03-2020 00:10:18 6.4 C 33 %
3314 29-03-2020 00:20:17 6.2 C 33 %
3315 29-03-2020 00:30:17 6.5 C 33 %
3316 29-03-2020 00:40:17 6.6 C 33 %
3317 29-03-2020 00:50:18 6.5 C 32 %
3318 29-03-2020 01:00:18 6.3 C 32 %
3319 29-03-2020 01:10:18 6.3 C 32 %
3320 29-03-2020 01:20:17 6.2 C 32 %
3321 29-03-2020 01:30:17 6.1 C 32 %
3322 29-03-2020 01:40:17 6 C 31 %
3323 29-03-2020 01:50:17 6 C 31 %
3324 29-03-2020 02:00:17 5.8 C 31 %
3325 29-03-2020 02:10:17 5.7 C 31 %
Sensor: Nr:Datum:Temp:Feuchte:
Aussen-T/F 3326 29-03-2020 02:20:18 5.4 C 31 %
3327 29-03-2020 02:30:18 5 C 31 %
3328 29-03-2020 02:40:18 4.7 C 32 %
3329 29-03-2020 02:50:18 4.7 C 32 %
3330 29-03-2020 04:00:18 4.6 C 31 %
3331 29-03-2020 04:10:18 4.2 C 32 %
3332 29-03-2020 04:20:17 4.1 C 31 %
3333 29-03-2020 04:30:17 4.3 C 31 %
3334 29-03-2020 04:40:17 4.4 C 31 %
3335 29-03-2020 04:50:18 4.3 C 31 %
3336 29-03-2020 05:00:17 4.4 C 32 %
3337 29-03-2020 05:10:17 4.3 C 32 %
3338 29-03-2020 05:20:17 4.2 C 31 %
3339 29-03-2020 05:30:17 4 C 31 %
3340 29-03-2020 05:40:17 3.8 C 32 %
3341 29-03-2020 05:50:18 3.5 C 32 %
3342 29-03-2020 06:00:18 3.1 C 32 %
3343 29-03-2020 06:10:18 2.8 C 33 %
3344 29-03-2020 06:20:17 2.5 C 33 %
3345 29-03-2020 06:30:18 2.9 C 33 %
3346 29-03-2020 06:40:18 3.2 C 32 %
3347 29-03-2020 06:50:17 3.3 C 33 %
3348 29-03-2020 07:00:18 3.4 C 33 %
3349 29-03-2020 07:10:18 3.5 C 34 %
3350 29-03-2020 07:20:17 3.5 C 35 %
Sensor: Nr:Datum:Temp:Feuchte:
Aussen-T/F 3351 29-03-2020 07:30:17 3.6 C 35 %
3352 29-03-2020 07:40:17 3.7 C 35 %
3353 29-03-2020 07:50:17 3.7 C 35 %
3354 29-03-2020 08:00:18 3.8 C 35 %
3355 29-03-2020 08:10:18 3.8 C 35 %
3356 29-03-2020 08:20:17 4.1 C 33 %
3357 29-03-2020 08:30:17 4.1 C 33 %
3358 29-03-2020 08:40:17 4.3 C 33 %
3359 29-03-2020 08:50:17 4 C 33 %
3360 29-03-2020 09:00:17 4.3 C 33 %
3361 29-03-2020 09:10:17 4.2 C 32 %
3362 29-03-2020 09:20:17 4.1 C 33 %
3363 29-03-2020 09:30:17 4.2 C 33 %
3364 29-03-2020 09:40:17 4.5 C 32 %
3365 29-03-2020 09:50:17 4.8 C 32 %
3366 29-03-2020 10:00:17 5 C 31 %
3367 29-03-2020 10:10:17 5.3 C 31 %
3368 29-03-2020 10:20:17 5.8 C 30 %
3369 29-03-2020 10:30:18 5.6 C 30 %
3370 29-03-2020 10:40:18 6.2 C 30 %
3371 29-03-2020 10:50:17 6.2 C 28 %
3372 29-03-2020 11:00:18 6.5 C 25 %
3373 29-03-2020 11:10:18 6.5 C 25 %
3374 29-03-2020 11:20:18 6 C 25 %
3375 29-03-2020 11:30:18 6.1 C 25 %
Sensor: Nr:Datum:Temp:Feuchte:
Aussen-T/F 3376 29-03-2020 11:40:18 6.2 C 25 %
3377 29-03-2020 11:50:17 6.3 C 25 %
3378 29-03-2020 12:00:17 6.2 C 25 %
3379 29-03-2020 12:10:17 5.6 C 27 %
3380 29-03-2020 12:20:17 5.5 C 27 %
3381 29-03-2020 12:30:17 5.7 C 27 %
3382 29-03-2020 12:40:17 5.8 C 26 %
3383 29-03-2020 12:50:18 6.4 C 26 %
3384 29-03-2020 13:00:18 6.3 C 25 %
3385 29-03-2020 13:10:18 6.1 C 25 %
3386 29-03-2020 13:20:17 6.6 C 23 %
3387 29-03-2020 13:30:17 6.8 C 20 %
3388 29-03-2020 13:40:18 8.1 C 20 %
3389 29-03-2020 13:50:17 8.4 C 20 %
3390 29-03-2020 14:00:18 7.6 C 20 %
3391 29-03-2020 14:10:18 7.5 C 20 %
3392 29-03-2020 14:20:17 7 C 20 %
3393 29-03-2020 14:30:17 6.7 C 20 %
3394 29-03-2020 14:40:17 6.5 C 20 %
3395 29-03-2020 14:50:17 6.7 C 20 %
3396 29-03-2020 15:00:17 7.2 C 20 %
3397 29-03-2020 15:10:17 7.4 C 20 %
3398 29-03-2020 15:20:17 7.4 C 20 %
3399 29-03-2020 15:30:18 7.6 C 20 %
3400 29-03-2020 15:40:18 7.6 C 20 %
Sensor: Nr:Datum:Temp:Feuchte:
Aussen-T/F 3401 29-03-2020 15:50:17 8 C 20 %
3402 29-03-2020 16:00:18 7.4 C 20 %
3403 29-03-2020 16:10:18 7 C 20 %
3404 29-03-2020 16:20:17 6.7 C 20 %
3405 29-03-2020 16:30:18 6.5 C 20 %
3406 29-03-2020 16:40:18 6.6 C 20 %
3407 29-03-2020 16:50:18 6.8 C 20 %
3408 29-03-2020 17:00:18 7 C 20 %
3409 29-03-2020 17:10:18 6.8 C 20 %
3410 29-03-2020 17:20:17 7.4 C 20 %
3411 29-03-2020 17:30:17 7 C 20 %
3412 29-03-2020 17:40:17 7 C 20 %
3413 29-03-2020 17:50:18 6.8 C 25 %
3414 29-03-2020 18:00:18 7.1 C 23 %
3415 29-03-2020 18:10:18 6.5 C 25 %
3416 29-03-2020 18:20:18 6.2 C 25 %
3417 29-03-2020 18:30:18 5.3 C 29 %
3418 29-03-2020 18:40:18 4.4 C 35 %
3419 29-03-2020 18:50:18 4.1 C 36 %
3420 29-03-2020 19:00:18 4 C 36 %
3421 29-03-2020 19:10:18 3.6 C 39 %
3422 29-03-2020 19:20:17 3.6 C 40 %
3423 29-03-2020 19:30:17 3.4 C 40 %
3424 29-03-2020 19:40:17 3.2 C 41 %
3425 29-03-2020 19:50:17 3.1 C 41 %
Sensor: Nr:Datum:Temp:Feuchte:
Aussen-T/F 3426 29-03-2020 20:00:17 3 C 41 %
3427 29-03-2020 20:10:17 3 C 41 %
3428 29-03-2020 20:20:18 2.9 C 42 %
3429 29-03-2020 20:30:18 3 C 41 %
3430 29-03-2020 20:40:18 3.3 C 40 %
3431 29-03-2020 20:50:18 3.5 C 40 %
3432 29-03-2020 21:00:18 3.6 C 39 %
3433 29-03-2020 21:10:18 3.7 C 39 %
3434 29-03-2020 21:20:18 3.7 C 38 %
3435 29-03-2020 21:30:17 3.7 C 37 %
3436 29-03-2020 21:40:17 3.8 C 37 %
3437 29-03-2020 21:50:17 3.8 C 37 %
3438 29-03-2020 22:00:17 3.7 C 37 %
3439 29-03-2020 22:10:17 3.7 C 36 %
3440 29-03-2020 22:20:18 3.7 C 36 %
3441 29-03-2020 22:30:18 3.6 C 36 %
3442 29-03-2020 22:40:18 3.6 C 36 %
3443 29-03-2020 22:50:18 3.6 C 35 %
3444 29-03-2020 23:00:18 3.6 C 35 %
3445 29-03-2020 23:10:18 3.5 C 35 %
3446 29-03-2020 23:20:17 3.4 C 34 %
3447 29-03-2020 23:30:17 3.3 C 33 %
3448 29-03-2020 23:40:17 3.1 C 33 %
3449 29-03-2020 23:50:17 2.9 C 33 %
3450 30-03-2020 00:00:18 2.5 C 34 %
Sensor: Nr:Datum:Temp:Feuchte:
Aussen-T/F 3451 30-03-2020 00:10:18 2.4 C 33 %
3452 30-03-2020 00:20:17 2.4 C 33 %
3453 30-03-2020 00:30:17 1.7 C 35 %
3454 30-03-2020 00:40:17 1 C 36 %
3455 30-03-2020 00:50:17 0.3 C 38 %
3456 30-03-2020 01:00:18 0.2 C 38 %
3457 30-03-2020 01:10:18 0.3 C 38 %
3458 30-03-2020 01:20:17 0.3 C 37 %
3459 30-03-2020 01:30:18 0.5 C 36 %
3460 30-03-2020 01:40:18 -0.1 C 37 %
3461 30-03-2020 01:50:17 -0.3 C 37 %
3462 30-03-2020 02:00:17 -0.8 C 38 %
3463 30-03-2020 02:10:17 -0.9 C 38 %
3464 30-03-2020 02:20:17 -1.5 C 39 %
3465 30-03-2020 02:30:18 -1.7 C 39 %
3466 30-03-2020 02:40:18 -1.6 C 40 %
3467 30-03-2020 02:50:17 -1.6 C 39 %
3468 30-03-2020 03:00:18 -1.7 C 39 %
3469 30-03-2020 03:10:18 -1.3 C 38 %
3470 30-03-2020 03:20:18 -1.7 C 39 %
3471 30-03-2020 03:30:18 -2.2 C 40 %
3472 30-03-2020 03:40:18 -2.1 C 40 %
3473 30-03-2020 03:50:17 -2.1 C 40 %
3474 30-03-2020 04:00:18 -1.9 C 39 %
3475 30-03-2020 04:10:18 -2.2 C 39 %
Sensor: Nr:Datum:Temp:Feuchte:
Aussen-T/F 3476 30-03-2020 04:20:17 -2 C 39 %
3477 30-03-2020 04:30:17 -2.4 C 39 %
3478 30-03-2020 04:40:17 -2.6 C 39 %
3479 30-03-2020 04:50:17 -2.4 C 39 %
3480 30-03-2020 05:00:17 -2.4 C 38 %
3481 30-03-2020 05:10:17 -2.5 C 38 %
3482 30-03-2020 05:20:17 -2.7 C 38 %
3483 30-03-2020 05:30:18 -3 C 39 %
3484 30-03-2020 05:40:18 -3 C 38 %
3485 30-03-2020 05:50:17 -3 C 38 %
3486 30-03-2020 06:00:18 -3 C 38 %
3487 30-03-2020 06:10:18 -3.4 C 38 %
3488 30-03-2020 06:20:17 -3.7 C 39 %
3489 30-03-2020 06:30:17 -3.9 C 40 %
3490 30-03-2020 06:40:17 -4.1 C 40 %
3491 30-03-2020 06:50:17 -3.3 C 39 %
3492 30-03-2020 07:00:17 -3.7 C 40 %
3493 30-03-2020 07:10:17 -3.2 C 39 %
3494 30-03-2020 07:20:17 -3.8 C 39 %
3495 30-03-2020 07:30:18 -4.3 C 40 %
3496 30-03-2020 07:40:18 -4.5 C 40 %
3497 30-03-2020 07:50:17 -4.5 C 40 %
3498 30-03-2020 08:00:18 -3.8 C 40 %
3499 30-03-2020 08:10:18 -3.9 C 40 %
3500 30-03-2020 08:20:18 -4.1 C 40 %
Sensor: Nr:Datum:Temp:Feuchte:
Aussen-T/F 3501 30-03-2020 08:30:18 -3.7 C 39 %
3502 30-03-2020 08:40:18 -3.3 C 39 %
3503 30-03-2020 08:50:17 -3.2 C 38 %
3504 30-03-2020 09:00:18 -3.1 C 38 %
3505 30-03-2020 09:10:18 -2.7 C 37 %
3506 30-03-2020 09:20:18 -2.6 C 37 %
3507 30-03-2020 09:30:18 -2.5 C 37 %
3508 30-03-2020 09:40:18 -2.1 C 37 %
3509 30-03-2020 09:50:18 -2.1 C 37 %
3510 30-03-2020 10:00:18 -1.6 C 36 %
3511 30-03-2020 10:10:18 -1.7 C 37 %
3512 30-03-2020 10:20:17 -1.5 C 37 %
3513 30-03-2020 10:30:17 -1.3 C 36 %
3514 30-03-2020 10:40:17 0.1 C 31 %
3515 30-03-2020 10:50:17 1 C 21 %
3516 30-03-2020 11:00:17 1.1 C 23 %
3517 30-03-2020 11:10:18 2 C 20 %
3518 30-03-2020 11:20:18 2.4 C 20 %
3519 30-03-2020 11:30:18 2.8 C 20 %
3520 30-03-2020 11:40:18 2.9 C 20 %
3521 30-03-2020 11:50:18 3.2 C 20 %
3522 30-03-2020 12:00:18 3.7 C 20 %
3523 30-03-2020 12:10:18 4 C 20 %
3524 30-03-2020 12:20:18 6.4 C 20 %
3525 30-03-2020 12:30:18 7.6 C 20 %
Sensor: Nr:Datum:Temp:Feuchte:
Aussen-T/F 3526 30-03-2020 12:40:18 6.3 C 20 %
3527 30-03-2020 12:50:18 5.1 C 20 %
3528 30-03-2020 13:00:18 6.6 C 20 %
3529 30-03-2020 13:10:18 6.5 C 20 %
3530 30-03-2020 13:20:18 5.6 C 20 %
3531 30-03-2020 13:30:17 5.9 C 20 %
3532 30-03-2020 13:40:17 7 C 20 %
3533 30-03-2020 13:50:17 6.4 C 20 %
3534 30-03-2020 14:00:17 7.1 C 20 %
3535 30-03-2020 14:10:17 8.4 C 20 %
3536 30-03-2020 14:20:18 8.9 C 20 %
3537 30-03-2020 14:30:18 9.5 C 20 %
3538 30-03-2020 14:40:18 9.7 C 20 %
3539 30-03-2020 14:50:18 10.8 C 20 %
3540 30-03-2020 15:00:18 11.3 C 20 %
3541 30-03-2020 15:10:18 11.7 C 20 %
3542 30-03-2020 15:20:17 11.6 C 20 %
3543 30-03-2020 15:30:18 13.5 C 20 %
3544 30-03-2020 15:40:18 13.6 C 20 %
3545 30-03-2020 15:50:18 11.9 C 20 %
3546 30-03-2020 16:00:18 12.9 C 20 %
3547 30-03-2020 16:10:18 13.6 C 20 %
3548 30-03-2020 16:20:17 15.2 C 20 %
3549 30-03-2020 16:30:18 9.9 C 20 %
3550 30-03-2020 16:40:18 13.9 C 20 %
Sensor: Nr:Datum:Temp:Feuchte:
Aussen-T/F 3551 30-03-2020 16:50:18 13.6 C 20 %
3552 30-03-2020 17:00:17 10.1 C 20 %
3553 30-03-2020 17:10:17 13.4 C 20 %
3554 30-03-2020 17:20:18 12.5 C 20 %
3555 30-03-2020 17:30:18 12.6 C 20 %
3556 30-03-2020 17:40:18 11.6 C 20 %
3557 30-03-2020 17:50:18 10.2 C 20 %
3558 30-03-2020 18:00:18 8.7 C 20 %
3559 30-03-2020 18:10:18 7.6 C 20 %
3560 30-03-2020 18:20:18 7.9 C 20 %
3561 30-03-2020 18:30:18 8.2 C 20 %
3562 30-03-2020 18:40:18 7.7 C 20 %
3563 30-03-2020 18:50:18 7.8 C 20 %
3564 30-03-2020 19:00:18 7.3 C 20 %
3565 30-03-2020 19:10:18 7.1 C 20 %
3566 30-03-2020 19:20:17 6.5 C 20 %
3567 30-03-2020 19:30:18 6.3 C 20 %
3568 30-03-2020 19:40:18 5.8 C 20 %
3569 30-03-2020 19:50:17 5 C 20 %
3570 30-03-2020 20:00:18 3.8 C 27 %
3571 30-03-2020 20:10:18 3 C 30 %
3572 30-03-2020 20:20:17 2.8 C 30 %
3573 30-03-2020 20:30:18 3.3 C 31 %
3574 30-03-2020 20:40:18 3.2 C 30 %
3575 30-03-2020 20:50:18 3.3 C 31 %
Sensor: Nr:Datum:Temp:Feuchte:
Aussen-T/F 3576 30-03-2020 21:00:18 4 C 29 %
3577 30-03-2020 21:10:18 4.1 C 29 %
3578 30-03-2020 21:20:18 4.2 C 30 %
3579 30-03-2020 21:30:18 4.3 C 30 %
3580 30-03-2020 21:40:18 4.2 C 30 %
3581 30-03-2020 21:50:18 4.1 C 30 %
3582 30-03-2020 22:00:18 3.7 C 32 %
3583 30-03-2020 22:10:18 3.7 C 33 %
3584 30-03-2020 22:20:17 3.9 C 32 %
3585 30-03-2020 22:30:18 4 C 31 %
3586 30-03-2020 22:40:18 4.1 C 31 %
3587 30-03-2020 22:50:18 4.2 C 31 %
3588 30-03-2020 23:00:18 4.1 C 31 %
3589 30-03-2020 23:10:18 4.2 C 30 %
3590 30-03-2020 23:20:18 4.2 C 31 %
3591 30-03-2020 23:30:18 4.1 C 31 %
3592 30-03-2020 23:40:18 4.2 C 31 %
3593 30-03-2020 23:50:17 4.2 C 31 %
3594 31-03-2020 00:00:18 4.3 C 30 %
3595 31-03-2020 00:10:18 4.3 C 30 %
3596 31-03-2020 00:20:18 4.2 C 31 %
3597 31-03-2020 00:30:18 4.2 C 31 %
3598 31-03-2020 00:40:18 4.2 C 31 %
3599 31-03-2020 00:50:18 4.3 C 31 %
3600 31-03-2020 01:00:18 4.4 C 32 %
Sensor: Nr:Datum:Temp:Feuchte:
Aussen-T/F 3601 31-03-2020 01:10:18 4 C 34 %
3602 31-03-2020 01:20:18 3.8 C 36 %
3603 31-03-2020 01:30:18 3.8 C 36 %
3604 31-03-2020 01:40:18 3.7 C 37 %
3605 31-03-2020 01:50:18 4 C 37 %
3606 31-03-2020 02:00:18 3.9 C 38 %
3607 31-03-2020 02:10:18 3.4 C 39 %
3608 31-03-2020 02:20:17 3.5 C 39 %
3609 31-03-2020 02:30:18 3.7 C 39 %
3610 31-03-2020 02:40:18 3.3 C 40 %
3611 31-03-2020 02:50:18 2.8 C 41 %
3612 31-03-2020 03:00:18 2.5 C 41 %
3613 31-03-2020 03:10:18 2.2 C 42 %
3614 31-03-2020 03:20:17 2.4 C 42 %
3615 31-03-2020 03:30:18 2.3 C 42 %
3616 31-03-2020 03:40:18 2.3 C 43 %
3617 31-03-2020 03:50:18 2.7 C 43 %
3618 31-03-2020 04:00:18 2.9 C 42 %
3619 31-03-2020 04:10:18 3 C 42 %
3620 31-03-2020 04:20:18 3.1 C 42 %
3621 31-03-2020 04:30:17 3.2 C 42 %
3622 31-03-2020 04:40:18 3.2 C 41 %
3623 31-03-2020 04:50:17 3.5 C 41 %
3624 31-03-2020 05:00:18 3.4 C 41 %
3625 31-03-2020 05:10:18 3 C 41 %
Sensor: Nr:Datum:Temp:Feuchte:
Aussen-T/F 3626 31-03-2020 05:20:17 2.8 C 43 %
3627 31-03-2020 05:30:18 2.5 C 43 %
3628 31-03-2020 05:40:18 2.3 C 43 %
3629 31-03-2020 05:50:18 1.9 C 44 %
3630 31-03-2020 06:00:18 1.7 C 44 %
3631 31-03-2020 06:10:18 1.6 C 45 %
3632 31-03-2020 06:20:18 1.5 C 45 %
3633 31-03-2020 06:30:18 1.7 C 45 %
3634 31-03-2020 06:40:18 2 C 45 %
3635 31-03-2020 06:50:18 2.1 C 45 %
3636 31-03-2020 07:00:18 2.2 C 45 %
3637 31-03-2020 07:10:18 2.3 C 45 %
3638 31-03-2020 07:20:18 2.2 C 44 %
3639 31-03-2020 07:30:18 2.1 C 44 %
3640 31-03-2020 07:40:18 1.7 C 45 %
3641 31-03-2020 07:50:17 2 C 45 %
3642 31-03-2020 08:00:18 2.5 C 45 %
3643 31-03-2020 08:10:18 3.1 C 43 %
3644 31-03-2020 08:20:18 3.3 C 42 %
3645 31-03-2020 08:30:18 3.5 C 41 %
3646 31-03-2020 08:40:18 3.7 C 40 %
3647 31-03-2020 08:50:17 4 C 38 %
3648 31-03-2020 09:00:18 3.9 C 38 %
3649 31-03-2020 09:10:18 3.9 C 37 %
3650 31-03-2020 09:20:18 4 C 36 %
Sensor: Nr:Datum:Temp:Feuchte:
Aussen-T/F 3651 31-03-2020 09:30:17 4 C 36 %
3652 31-03-2020 09:40:17 4.1 C 35 %
3653 31-03-2020 09:50:18 4.3 C 35 %
3654 31-03-2020 10:00:18 4.8 C 34 %
3655 31-03-2020 10:10:18 4.7 C 34 %
3656 31-03-2020 10:20:18 4.5 C 34 %
3657 31-03-2020 10:30:18 4.4 C 34 %
3658 31-03-2020 10:40:18 4.3 C 34 %
3659 31-03-2020 10:50:17 4.3 C 33 %
3660 31-03-2020 11:00:17 4.3 C 33 %
3661 31-03-2020 11:10:17 4.4 C 32 %
3662 31-03-2020 11:20:18 4.7 C 31 %
3663 31-03-2020 11:30:18 5.4 C 30 %
3664 31-03-2020 11:40:18 5.3 C 30 %
3665 31-03-2020 11:50:17 5.3 C 29 %
3666 31-03-2020 12:00:18 5.6 C 27 %
3667 31-03-2020 12:10:18 6.3 C 25 %
3668 31-03-2020 12:20:17 6.4 C 20 %
3669 31-03-2020 12:30:18 9.2 C 20 %
3670 31-03-2020 12:40:18 8.4 C 20 %
3671 31-03-2020 12:50:18 7 C 20 %
3672 31-03-2020 13:00:17 7.5 C 20 %
3673 31-03-2020 13:10:17 7.1 C 20 %
3674 31-03-2020 13:20:17 7.3 C 20 %
3675 31-03-2020 13:30:17 7 C 20 %
Sensor: Nr:Datum:Temp:Feuchte:
Aussen-T/F 3676 31-03-2020 13:40:17 8.1 C 20 %
3677 31-03-2020 13:51:17 8.4 C 20 %
3678 31-03-2020 14:00:17 8.5 C 20 %
3679 31-03-2020 14:10:17 9.7 C 20 %
3680 31-03-2020 14:20:17 11.2 C 20 %
3681 31-03-2020 14:30:17 12.6 C 20 %
3682 31-03-2020 14:40:17 11.7 C 20 %
3683 31-03-2020 14:51:17 12 C 20 %
3684 31-03-2020 15:00:17 12 C 20 %
3685 31-03-2020 15:10:18 13.1 C 20 %
3686 31-03-2020 15:20:17 13.2 C 20 %
3687 31-03-2020 15:30:17 13.5 C 20 %
3688 31-03-2020 15:40:17 14.6 C 20 %
3689 31-03-2020 15:50:18 13.9 C 20 %
3690 31-03-2020 16:00:17 16.8 C 20 %
3691 31-03-2020 16:10:17 14.8 C 20 %
3692 31-03-2020 16:20:17 15.8 C 20 %
3693 31-03-2020 16:31:17 15.1 C 20 %
3694 31-03-2020 16:40:17 14 C 20 %
3695 31-03-2020 16:50:17 13.3 C 20 %
3696 31-03-2020 17:00:17 14.4 C 20 %
3697 31-03-2020 17:10:17 16.2 C 20 %
3698 31-03-2020 17:21:17 15.3 C 20 %
3699 31-03-2020 17:31:17 14.7 C 20 %
3700 31-03-2020 17:40:17 15.5 C 20 %
Sensor: Nr:Datum:Temp:Feuchte:
Aussen-T/F 3701 31-03-2020 17:51:17 10.6 C 20 %
3702 31-03-2020 18:01:17 10.5 C 20 %
3703 31-03-2020 18:11:17 10.2 C 20 %
3704 31-03-2020 18:21:17 9.8 C 20 %
3705 31-03-2020 18:31:17 9.6 C 20 %
3706 31-03-2020 18:40:17 9.4 C 20 %
3707 31-03-2020 18:51:17 9.1 C 20 %
3708 31-03-2020 19:00:17 9.1 C 20 %
3709 31-03-2020 19:10:17 8.8 C 20 %
3710 31-03-2020 19:20:17 8.7 C 20 %
3711 31-03-2020 19:31:17 8.2 C 20 %
3712 31-03-2020 19:41:17 7.7 C 20 %
3713 31-03-2020 19:50:17 6.6 C 20 %
3714 31-03-2020 20:01:17 5.6 C 20 %
3715 31-03-2020 20:11:17 5.5 C 20 %
3716 31-03-2020 20:21:17 5.3 C 20 %
3717 31-03-2020 20:31:17 4.7 C 20 %
3718 31-03-2020 20:41:17 4.4 C 20 %
3719 31-03-2020 20:51:17 4 C 20 %
3720 31-03-2020 21:00:17 3.7 C 20 %
3721 31-03-2020 21:10:18 3.9 C 20 %
3722 31-03-2020 21:21:17 3.7 C 20 %
3723 31-03-2020 21:31:17 3.5 C 20 %
3724 31-03-2020 21:41:17 3.2 C 23 %
3725 31-03-2020 21:51:17 3.2 C 23 %
Sensor: Nr:Datum:Temp:Feuchte:
Aussen-T/F 3726 31-03-2020 22:00:18 3 C 23 %
3727 31-03-2020 22:10:18 2.7 C 25 %
3728 31-03-2020 22:21:17 2.7 C 25 %
3729 31-03-2020 22:31:17 2.6 C 25 %
3730 31-03-2020 22:41:17 1.8 C 30 %
3731 31-03-2020 22:50:18 1.6 C 30 %
3732 31-03-2020 23:01:17 1.6 C 30 %
3733 31-03-2020 23:11:17 1.7 C 30 %
3734 31-03-2020 23:21:17 1.4 C 31 %
3735 31-03-2020 23:30:17 1.3 C 31 %
3736 31-03-2020 23:40:18 1.6 C 31 %
3737 31-03-2020 23:51:17 0.9 C 32 %
3738 01-04-2020 00:01:17 1.2 C 31 %
3739 01-04-2020 00:11:17 0 C 35 %
3740 01-04-2020 00:21:17 0.8 C 33 %
3741 01-04-2020 00:31:17 0.6 C 32 %
3742 01-04-2020 00:41:17 0.5 C 33 %
3743 01-04-2020 00:51:17 -0.3 C 35 %
3744 01-04-2020 01:01:17 -0.1 C 36 %
3745 01-04-2020 01:11:17 -0.3 C 35 %
3746 01-04-2020 01:21:17 -1 C 37 %
3747 01-04-2020 01:30:18 -1.4 C 38 %
3748 01-04-2020 01:40:18 -1.7 C 38 %
3749 01-04-2020 01:51:17 -1.9 C 38 %
3750 01-04-2020 02:01:17 -1.9 C 38 %
Sensor: Nr:Datum:Temp:Feuchte:
Aussen-T/F 3751 01-04-2020 02:11:17 -2 C 38 %
3752 01-04-2020 02:21:17 -2.1 C 38 %
3753 01-04-2020 02:31:17 -2.3 C 39 %
3754 01-04-2020 02:41:17 -2.4 C 38 %
3755 01-04-2020 02:50:18 -2.4 C 39 %
3756 01-04-2020 03:01:17 -2.5 C 38 %
3757 01-04-2020 03:11:17 -2.6 C 38 %
3758 01-04-2020 03:21:17 -2.8 C 39 %
3759 01-04-2020 03:31:17 -2.7 C 38 %
3760 01-04-2020 03:41:18 -3 C 38 %
3761 01-04-2020 03:51:17 -3 C 39 %
3762 01-04-2020 04:01:17 -2.8 C 39 %
3763 01-04-2020 04:11:17 -3.1 C 38 %
3764 01-04-2020 04:21:17 -3.2 C 39 %
3765 01-04-2020 04:31:18 -3.5 C 38 %
3766 01-04-2020 04:41:19 -3.4 C 39 %
3767 01-04-2020 04:51:17 -3.5 C 39 %
3768 01-04-2020 05:01:18 -3.6 C 39 %
3769 01-04-2020 05:11:19 -3.8 C 40 %
3770 01-04-2020 05:21:17 -3.8 C 40 %
3771 01-04-2020 05:31:18 -3.8 C 40 %
3772 01-04-2020 05:41:18 -4 C 40 %
3773 01-04-2020 05:51:17 -4.2 C 40 %
3774 01-04-2020 06:01:18 -4.2 C 40 %
3775 01-04-2020 06:11:18 -4 C 40 %
Sensor: Nr:Datum:Temp:Feuchte:
Aussen-T/F 3776 01-04-2020 06:21:17 -4.2 C 40 %
3777 01-04-2020 06:31:17 -4.2 C 41 %
3778 01-04-2020 06:41:17 -4.3 C 41 %
3779 01-04-2020 06:51:17 -4.5 C 41 %
3780 01-04-2020 07:01:18 -4.6 C 41 %
3781 01-04-2020 07:11:19 -4.7 C 41 %
3782 01-04-2020 07:21:17 -4.5 C 41 %
3783 01-04-2020 07:31:18 -4.4 C 41 %
3784 01-04-2020 07:41:18 -4.5 C 41 %
3785 01-04-2020 07:51:17 -4.3 C 41 %
3786 01-04-2020 08:01:17 -4.2 C 41 %
3787 01-04-2020 08:11:17 -4.2 C 41 %
3788 01-04-2020 08:21:17 -3.7 C 41 %
3789 01-04-2020 08:31:17 -3.8 C 41 %
3790 01-04-2020 08:41:17 -3.7 C 41 %
3791 01-04-2020 08:51:17 -3.4 C 40 %
3792 01-04-2020 09:01:17 -3.4 C 40 %
3793 01-04-2020 09:11:17 -2.7 C 40 %
3794 01-04-2020 09:21:17 -2.6 C 40 %
3795 01-04-2020 09:31:17 -2.5 C 40 %
3796 01-04-2020 09:41:17 -2.1 C 40 %
3797 01-04-2020 09:51:17 -1.5 C 39 %
3798 01-04-2020 10:01:17 -1 C 39 %
3799 01-04-2020 10:11:17 -0.9 C 40 %
3800 01-04-2020 10:21:17 -0.4 C 40 %
Sensor: Nr:Datum:Temp:Feuchte:
Aussen-T/F 3801 01-04-2020 10:31:18 0.5 C 39 %
3802 01-04-2020 10:41:18 1 C 37 %
3803 01-04-2020 10:51:17 1.6 C 36 %
3804 01-04-2020 11:01:17 2.4 C 35 %
3805 01-04-2020 11:11:17 3.2 C 33 %
3806 01-04-2020 11:21:17 4.2 C 29 %
3807 01-04-2020 11:31:17 4.8 C 20 %
3808 01-04-2020 11:41:17 5.3 C 20 %
3809 01-04-2020 11:51:17 6 C 20 %
3810 01-04-2020 12:01:17 6.6 C 20 %
3811 01-04-2020 12:11:18 7.1 C 20 %
3812 01-04-2020 12:21:17 8.9 C 20 %
3813 01-04-2020 12:31:17 10.3 C 20 %
3814 01-04-2020 12:41:17 9.2 C 20 %
3815 01-04-2020 12:51:17 8 C 20 %
3816 01-04-2020 13:01:17 9.3 C 20 %
3817 01-04-2020 13:11:17 9.3 C 20 %
3818 01-04-2020 13:21:16 8.6 C 20 %
3819 01-04-2020 13:31:17 9.2 C 20 %
3820 01-04-2020 13:41:17 9.6 C 20 %
3821 01-04-2020 13:51:17 10 C 20 %
3822 01-04-2020 14:01:17 10.3 C 20 %
3823 01-04-2020 14:11:17 10.7 C 20 %
3824 01-04-2020 14:21:17 13.2 C 20 %
3825 01-04-2020 14:31:16 15.9 C 20 %
Sensor: Nr:Datum:Temp:Feuchte:
Aussen-T/F 3826 01-04-2020 14:41:16 16.3 C 20 %
3827 01-04-2020 14:51:17 13.7 C 20 %
3828 01-04-2020 15:01:17 14.2 C 20 %
3829 01-04-2020 15:11:17 17.2 C 20 %
3830 01-04-2020 15:21:17 16.8 C 20 %
3831 01-04-2020 15:31:16 16.3 C 20 %
3832 01-04-2020 15:41:16 18.2 C 20 %
3833 01-04-2020 15:51:17 19.5 C 20 %
3834 01-04-2020 16:01:16 18.7 C 20 %
3835 01-04-2020 16:11:16 18.7 C 20 %
3836 01-04-2020 16:21:16 19.7 C 20 %
3837 01-04-2020 16:31:17 21.3 C 20 %
3838 01-04-2020 16:41:17 15.5 C 20 %
3839 01-04-2020 16:51:16 18.4 C 20 %
3840 01-04-2020 17:01:16 17.2 C 20 %
3841 01-04-2020 17:11:16 17.4 C 20 %
3842 01-04-2020 17:21:17 17.7 C 20 %
3843 01-04-2020 17:31:17 18.5 C 20 %
3844 01-04-2020 17:41:17 16.8 C 20 %
3845 01-04-2020 17:51:17 15.8 C 20 %
3846 01-04-2020 18:01:17 12.6 C 20 %
3847 01-04-2020 18:11:17 12 C 20 %
3848 01-04-2020 18:21:16 12.1 C 20 %
3849 01-04-2020 18:31:17 11.7 C 20 %
3850 01-04-2020 18:41:17 11.8 C 20 %
Sensor: Nr:Datum:Temp:Feuchte:
Aussen-T/F 3851 01-04-2020 18:51:16 11.6 C 20 %
3852 01-04-2020 19:01:17 11 C 20 %
3853 01-04-2020 19:11:17 10.7 C 20 %
3854 01-04-2020 19:21:17 10.4 C 20 %
3855 01-04-2020 19:31:17 9.9 C 20 %
3856 01-04-2020 19:41:17 9.6 C 20 %
3857 01-04-2020 19:51:16 8.9 C 20 %
3858 01-04-2020 20:01:17 8.1 C 20 %
3859 01-04-2020 20:11:17 7.8 C 20 %
3860 01-04-2020 20:21:16 8.1 C 20 %
3861 01-04-2020 20:31:16 7.1 C 20 %
3862 01-04-2020 20:41:16 6.2 C 20 %
3863 01-04-2020 20:51:16 5.9 C 20 %
3864 01-04-2020 21:01:16 6 C 20 %
3865 01-04-2020 21:11:16 6 C 20 %
3866 01-04-2020 21:21:16 5.7 C 20 %
3867 01-04-2020 21:31:16 5.7 C 20 %
3868 01-04-2020 21:41:16 5.4 C 20 %
3869 01-04-2020 21:51:16 4 C 21 %
3870 01-04-2020 22:01:16 4.2 C 21 %
3871 01-04-2020 22:11:16 3.7 C 26 %
3872 01-04-2020 22:21:16 3.2 C 26 %
3873 01-04-2020 22:31:16 2.5 C 29 %
3874 01-04-2020 22:41:16 2.6 C 28 %
3875 01-04-2020 22:51:16 2 C 30 %
Sensor: Nr:Datum:Temp:Feuchte:
Aussen-T/F 3876 01-04-2020 23:01:17 1.7 C 33 %
3877 01-04-2020 23:11:17 1.7 C 32 %
3878 01-04-2020 23:21:16 1.4 C 34 %
3879 01-04-2020 23:31:16 1.2 C 34 %
3880 01-04-2020 23:41:16 1 C 35 %
3881 01-04-2020 23:51:16 1.1 C 34 %
3882 02-04-2020 00:01:17 1 C 35 %
3883 02-04-2020 00:11:17 0.4 C 36 %
3884 02-04-2020 00:21:16 0.4 C 36 %
3885 02-04-2020 00:31:17 0.2 C 36 %
3886 02-04-2020 00:41:17 0.3 C 37 %
3887 02-04-2020 00:51:16 0.3 C 36 %
3888 02-04-2020 01:01:17 0 C 37 %
3889 02-04-2020 01:11:17 -0.4 C 38 %
3890 02-04-2020 01:21:16 -0.6 C 38 %
3891 02-04-2020 01:31:17 -0.7 C 38 %
3892 02-04-2020 01:41:17 -0.7 C 38 %
3893 02-04-2020 01:51:16 -0.9 C 39 %
3894 02-04-2020 02:01:16 -1 C 39 %
3895 02-04-2020 02:11:16 -1 C 39 %
3896 02-04-2020 02:21:16 -1.2 C 39 %
3897 02-04-2020 02:31:17 -1.3 C 40 %
3898 02-04-2020 02:41:17 -1.6 C 40 %
3899 02-04-2020 02:51:17 -1.5 C 40 %
3900 02-04-2020 03:01:17 -1.5 C 40 %
Sensor: Nr:Datum:Temp:Feuchte:
Aussen-T/F 3901 02-04-2020 03:11:17 -1.5 C 40 %
3902 02-04-2020 03:21:17 -1.3 C 40 %
3903 02-04-2020 03:31:17 -1.4 C 40 %
3904 02-04-2020 03:41:17 -1.6 C 40 %
3905 02-04-2020 03:51:18 -1.7 C 40 %
3906 02-04-2020 04:01:18 -2.1 C 40 %
3907 02-04-2020 04:11:18 -1.7 C 41 %
3908 02-04-2020 04:21:18 -1.6 C 40 %
3909 02-04-2020 04:31:17 -2 C 40 %
3910 02-04-2020 04:41:17 -2.4 C 41 %
3911 02-04-2020 04:51:17 -2.7 C 41 %
3912 02-04-2020 05:01:18 -2.6 C 41 %
3913 02-04-2020 05:11:18 -2.6 C 41 %
3914 02-04-2020 05:21:17 -2.6 C 41 %
3915 02-04-2020 05:31:18 -2.7 C 41 %
3916 02-04-2020 05:41:18 -2.6 C 41 %
3917 02-04-2020 05:51:17 -2.5 C 41 %
3918 02-04-2020 06:01:17 -2.6 C 41 %
3919 02-04-2020 06:11:17 -3 C 41 %
3920 02-04-2020 06:21:17 -3 C 42 %
3921 02-04-2020 06:31:17 -2.6 C 43 %
3922 02-04-2020 06:41:17 -3.1 C 42 %
3923 02-04-2020 06:51:17 -2.9 C 42 %
3924 02-04-2020 07:01:17 -3.3 C 42 %
3925 02-04-2020 07:11:17 -3 C 42 %
Sensor: Nr:Datum:Temp:Feuchte:
Aussen-T/F 3926 02-04-2020 07:21:17 -3.1 C 42 %
3927 02-04-2020 07:31:17 -3 C 43 %
3928 02-04-2020 07:41:18 -2.9 C 42 %
3929 02-04-2020 07:51:17 -3 C 43 %
3930 02-04-2020 08:01:17 -2.7 C 43 %
3931 02-04-2020 08:11:18 -2.5 C 43 %
3932 02-04-2020 08:21:17 -2.2 C 42 %
3933 02-04-2020 08:31:17 -2.2 C 42 %
3934 02-04-2020 08:41:17 -2 C 42 %
3935 02-04-2020 08:51:17 -1.8 C 42 %
3936 02-04-2020 09:01:17 -1.7 C 42 %
3937 02-04-2020 09:11:17 -1.5 C 41 %
3938 02-04-2020 09:21:17 -1.3 C 41 %
3939 02-04-2020 09:31:17 -1 C 41 %
3940 02-04-2020 09:41:17 -0.6 C 41 %
3941 02-04-2020 09:51:18 -0.3 C 41 %
3942 02-04-2020 10:01:18 0.1 C 41 %
3943 02-04-2020 10:11:18 0.6 C 41 %
3944 02-04-2020 10:21:17 0.8 C 41 %
3945 02-04-2020 10:31:17 1.7 C 40 %
3946 02-04-2020 10:41:17 2.2 C 39 %
3947 02-04-2020 10:51:17 3.1 C 37 %
3948 02-04-2020 11:01:17 3.6 C 37 %
3949 02-04-2020 11:11:17 4.6 C 35 %
3950 02-04-2020 11:21:17 5.7 C 30 %
Sensor: Nr:Datum:Temp:Feuchte:
Aussen-T/F 3951 02-04-2020 11:31:18 6.5 C 30 %
3952 02-04-2020 11:41:18 6.9 C 29 %
3953 02-04-2020 11:51:17 7.4 C 27 %
3954 02-04-2020 12:01:17 8.1 C 27 %
3955 02-04-2020 12:11:17 8.5 C 25 %
3956 02-04-2020 12:21:17 10.5 C 20 %
3957 02-04-2020 12:31:18 12.2 C 20 %
3958 02-04-2020 12:41:18 10.8 C 20 %
3959 02-04-2020 12:51:17 10.3 C 20 %
3960 02-04-2020 13:01:17 11 C 20 %
3961 02-04-2020 13:11:18 11.5 C 20 %
3962 02-04-2020 13:21:17 11.6 C 20 %
3963 02-04-2020 13:31:17 11.4 C 20 %
3964 02-04-2020 13:41:17 12.3 C 20 %
3965 02-04-2020 13:51:17 12.5 C 20 %
3966 02-04-2020 14:01:17 11.8 C 20 %
3967 02-04-2020 14:11:17 12.6 C 20 %
3968 02-04-2020 14:21:17 15.5 C 20 %
3969 02-04-2020 14:31:18 18.1 C 20 %
3970 02-04-2020 14:41:18 18.3 C 20 %
3971 02-04-2020 14:51:17 18.3 C 20 %
3972 02-04-2020 15:01:18 19.7 C 20 %
3973 02-04-2020 15:11:18 17.5 C 20 %
3974 02-04-2020 15:21:17 19.2 C 20 %
3975 02-04-2020 15:31:18 19.8 C 20 %
Sensor: Nr:Datum:Temp:Feuchte:
Aussen-T/F 3976 02-04-2020 15:41:18 19.3 C 20 %
3977 02-04-2020 15:51:17 19.4 C 20 %
3978 02-04-2020 16:01:17 21.3 C 20 %
3979 02-04-2020 16:11:17 19.9 C 20 %
3980 02-04-2020 16:21:17 16.6 C 20 %
3981 02-04-2020 16:31:18 18 C 20 %
3982 02-04-2020 16:41:18 17.6 C 20 %
3983 02-04-2020 16:51:17 17.8 C 20 %
3984 02-04-2020 17:01:17 17.3 C 20 %
3985 02-04-2020 17:11:17 16.6 C 20 %
3986 02-04-2020 17:21:17 15.8 C 20 %
3987 02-04-2020 17:31:18 15.5 C 20 %
3988 02-04-2020 17:41:18 14.7 C 20 %
3989 02-04-2020 17:51:17 14.8 C 20 %
3990 02-04-2020 18:01:17 12.8 C 20 %
3991 02-04-2020 18:11:17 12.2 C 20 %
3992 02-04-2020 18:21:17 12.3 C 20 %
3993 02-04-2020 18:31:17 11.8 C 20 %
3994 02-04-2020 18:41:17 11.3 C 20 %
3995 02-04-2020 18:51:17 11.1 C 20 %
3996 02-04-2020 19:01:17 10.7 C 20 %
3997 02-04-2020 19:11:17 10.2 C 20 %
3998 02-04-2020 19:21:17 10 C 20 %
3999 02-04-2020 19:31:17 9.6 C 20 %
4000 02-04-2020 19:41:17 9.5 C 20 %
Sensor: Nr:Datum:Temp:Feuchte:
Aussen-T/F 4001 02-04-2020 19:51:17 8.7 C 20 %
4002 02-04-2020 20:01:17 8.5 C 20 %
4003 02-04-2020 20:11:17 8.5 C 20 %
4004 02-04-2020 20:21:17 7.9 C 20 %
4005 02-04-2020 20:31:17 7.8 C 20 %
4006 02-04-2020 20:41:17 7.2 C 21 %
4007 02-04-2020 20:51:17 6.9 C 25 %
4008 02-04-2020 21:01:17 6.4 C 26 %
4009 02-04-2020 21:11:17 6.3 C 27 %
4010 02-04-2020 21:21:17 5.9 C 28 %
4011 02-04-2020 21:31:18 5.7 C 29 %
4012 02-04-2020 21:41:18 5.6 C 30 %
4013 02-04-2020 21:51:17 5.3 C 30 %
4014 02-04-2020 22:01:17 5.2 C 30 %
4015 02-04-2020 22:11:17 5.5 C 30 %
4016 02-04-2020 22:21:17 5 C 30 %
4017 02-04-2020 22:31:18 5.3 C 31 %
4018 02-04-2020 22:41:18 5.2 C 31 %
4019 02-04-2020 22:51:17 5.1 C 31 %
4020 02-04-2020 23:01:17 4.8 C 32 %
4021 02-04-2020 23:11:17 5 C 31 %
4022 02-04-2020 23:21:17 5 C 31 %
4023 02-04-2020 23:31:18 4.7 C 33 %
4024 02-04-2020 23:41:18 3.9 C 35 %
4025 02-04-2020 23:51:17 3.1 C 36 %
Sensor: Nr:Datum:Temp:Feuchte:
Aussen-T/F 4026 03-04-2020 00:01:18 2.7 C 38 %
4027 03-04-2020 00:11:18 2.3 C 39 %
4028 03-04-2020 00:21:17 2.6 C 40 %
4029 03-04-2020 00:31:17 2.6 C 39 %
4030 03-04-2020 00:41:17 3.2 C 38 %
4031 03-04-2020 00:51:17 2.4 C 39 %
4032 03-04-2020 01:01:18 2.4 C 39 %
4033 03-04-2020 01:11:18 2.4 C 39 %
4034 03-04-2020 01:21:17 2.6 C 39 %
4035 03-04-2020 01:31:18 2.7 C 39 %
4036 03-04-2020 01:41:18 2.5 C 39 %
4037 03-04-2020 01:51:17 2.3 C 39 %
4038 03-04-2020 02:01:18 2.2 C 39 %
4039 03-04-2020 02:11:18 2.3 C 39 %
4040 03-04-2020 02:21:18 3.1 C 38 %
4041 03-04-2020 02:31:18 3.2 C 38 %
4042 03-04-2020 02:41:18 2.6 C 39 %
4043 03-04-2020 02:51:17 2.8 C 39 %
4044 03-04-2020 03:01:18 3 C 38 %
4045 03-04-2020 03:11:18 3.6 C 38 %
4046 03-04-2020 03:21:17 3.9 C 38 %
4047 03-04-2020 03:31:17 4.4 C 36 %
4048 03-04-2020 03:41:17 4.7 C 36 %
4049 03-04-2020 03:51:17 4.6 C 36 %
4050 03-04-2020 04:01:17 5 C 35 %
Sensor: Nr:Datum:Temp:Feuchte:
Aussen-T/F 4051 03-04-2020 04:11:17 5.6 C 35 %
4052 03-04-2020 04:21:17 4.9 C 35 %
4053 03-04-2020 04:31:18 4.7 C 36 %
4054 03-04-2020 04:41:18 4.6 C 36 %
4055 03-04-2020 04:51:18 4.4 C 36 %
4056 03-04-2020 05:01:18 4.3 C 36 %
4057 03-04-2020 05:11:18 4.5 C 36 %
4058 03-04-2020 05:21:17 4.8 C 36 %
4059 03-04-2020 05:31:17 4.8 C 36 %
4060 03-04-2020 05:41:17 5.2 C 35 %
4061 03-04-2020 05:51:17 5.3 C 35 %
4062 03-04-2020 06:01:18 5.4 C 35 %
4063 03-04-2020 06:11:18 5.4 C 35 %
4064 03-04-2020 06:21:17 5.1 C 35 %
4065 03-04-2020 06:31:17 5.1 C 36 %
4066 03-04-2020 06:41:17 5.1 C 35 %
4067 03-04-2020 06:51:17 5.2 C 35 %
4068 03-04-2020 07:01:17 5.7 C 35 %
4069 03-04-2020 07:11:17 5.6 C 35 %
4070 03-04-2020 07:21:18 5.5 C 35 %
4071 03-04-2020 07:31:17 5.7 C 35 %
4072 03-04-2020 07:41:17 5.6 C 35 %
4073 03-04-2020 07:51:17 5.6 C 35 %
4074 03-04-2020 08:01:17 5.7 C 35 %
4075 03-04-2020 08:11:17 5.9 C 35 %
Sensor: Nr:Datum:Temp:Feuchte:
Aussen-T/F 4076 03-04-2020 08:21:18 5.9 C 35 %
4077 03-04-2020 08:31:17 5.9 C 35 %
4078 03-04-2020 08:41:17 6.1 C 35 %
4079 03-04-2020 08:51:18 6.6 C 35 %
4080 03-04-2020 09:01:17 7 C 34 %
4081 03-04-2020 09:11:17 7.1 C 34 %
4082 03-04-2020 09:21:18 7.6 C 34 %
4083 03-04-2020 09:31:18 7.7 C 34 %
4084 03-04-2020 09:41:18 8 C 33 %
4085 03-04-2020 09:51:17 8.4 C 33 %
4086 03-04-2020 10:01:18 8.6 C 32 %
4087 03-04-2020 10:11:18 8.6 C 32 %
4088 03-04-2020 10:21:17 9 C 32 %
4089 03-04-2020 10:31:18 9.4 C 32 %
4090 03-04-2020 10:41:18 9.2 C 32 %
4091 03-04-2020 10:51:17 9.6 C 32 %
4092 03-04-2020 11:01:17 10.6 C 31 %
4093 03-04-2020 11:11:17 11.2 C 29 %
4094 03-04-2020 11:21:17 10.9 C 29 %
4095 03-04-2020 11:31:17 11.1 C 28 %
4096 03-04-2020 11:41:17 11.5 C 26 %
4097 03-04-2020 11:51:17 11.4 C 26 %
4098 03-04-2020 12:01:17 11.1 C 26 %
4099 03-04-2020 12:11:17 11.2 C 26 %
4100 03-04-2020 12:21:17 11.4 C 26 %
Sensor: Nr:Datum:Temp:Feuchte:
Aussen-T/F 4101 03-04-2020 12:31:17 11.6 C 25 %
4102 03-04-2020 12:41:18 11.1 C 25 %
4103 03-04-2020 12:51:17 11.1 C 25 %
4104 03-04-2020 13:01:18 11.2 C 25 %
4105 03-04-2020 13:11:18 11.7 C 25 %
4106 03-04-2020 13:21:17 12.2 C 22 %
4107 03-04-2020 13:31:17 11.8 C 22 %
4108 03-04-2020 13:41:17 11.8 C 23 %
4109 03-04-2020 13:51:17 12.2 C 22 %
4110 03-04-2020 14:01:18 12.3 C 20 %
4111 03-04-2020 14:11:18 11.6 C 21 %
4112 03-04-2020 14:21:17 11.7 C 21 %
4113 03-04-2020 14:31:17 11.6 C 21 %
4114 03-04-2020 14:41:18 11.4 C 23 %
4115 03-04-2020 14:51:17 11.7 C 21 %
4116 03-04-2020 15:01:17 11.8 C 20 %
4117 03-04-2020 15:11:17 11.7 C 20 %
4118 03-04-2020 15:21:18 11.8 C 20 %
4119 03-04-2020 15:31:17 12.1 C 20 %
4120 03-04-2020 15:41:17 12.5 C 20 %
4121 03-04-2020 15:51:17 13.1 C 20 %
4122 03-04-2020 16:01:17 12.6 C 20 %
4123 03-04-2020 16:11:17 12.4 C 20 %
4124 03-04-2020 16:21:17 12.4 C 20 %
4125 03-04-2020 16:31:17 12.3 C 20 %
Sensor: Nr:Datum:Temp:Feuchte:
Aussen-T/F 4126 03-04-2020 16:41:17 12.4 C 20 %
4127 03-04-2020 16:51:17 12.4 C 20 %
4128 03-04-2020 17:01:17 12.2 C 20 %
4129 03-04-2020 17:11:17 12.2 C 20 %
4130 03-04-2020 17:21:17 12.2 C 20 %
4131 03-04-2020 17:31:17 12.2 C 20 %
4132 03-04-2020 17:41:17 12.4 C 20 %
4133 03-04-2020 17:51:17 11.9 C 20 %
4134 03-04-2020 18:01:17 11.5 C 20 %
4135 03-04-2020 18:11:17 11.7 C 20 %
4136 03-04-2020 18:21:17 11.5 C 20 %
4137 03-04-2020 18:31:18 11.4 C 20 %
4138 03-04-2020 18:41:18 11 C 20 %
4139 03-04-2020 18:51:17 11 C 20 %
4140 03-04-2020 19:01:18 10.8 C 20 %
4141 03-04-2020 19:11:18 10.7 C 20 %
4142 03-04-2020 19:21:17 10.5 C 20 %
4143 03-04-2020 19:31:17 10.2 C 20 %
4144 03-04-2020 19:41:17 10.3 C 20 %
4145 03-04-2020 19:51:17 9.9 C 20 %
4146 03-04-2020 20:01:17 9.8 C 20 %
4147 03-04-2020 20:11:17 9.5 C 20 %
4148 03-04-2020 20:21:17 9.1 C 20 %
4149 03-04-2020 20:31:18 9.5 C 20 %
4150 03-04-2020 20:41:18 9.2 C 20 %
Sensor: Nr:Datum:Temp:Feuchte:
Aussen-T/F 4151 03-04-2020 20:51:18 9.1 C 20 %
4152 03-04-2020 21:01:17 9.2 C 20 %
4153 03-04-2020 21:11:17 9.1 C 20 %
4154 03-04-2020 21:21:17 8.9 C 20 %
4155 03-04-2020 21:31:17 8.7 C 20 %
4156 03-04-2020 21:41:17 8.6 C 20 %
4157 03-04-2020 21:51:17 8.3 C 20 %
4158 03-04-2020 22:01:17 8.1 C 20 %
4159 03-04-2020 22:11:17 7.9 C 20 %
4160 03-04-2020 22:21:17 7.2 C 23 %
4161 03-04-2020 22:31:18 6.8 C 25 %
4162 03-04-2020 22:41:18 6.5 C 26 %
4163 03-04-2020 22:51:17 6.3 C 26 %
4164 03-04-2020 23:01:17 6.4 C 26 %
4165 03-04-2020 23:11:18 6.4 C 25 %
4166 03-04-2020 23:21:18 6.2 C 26 %
4167 03-04-2020 23:31:17 5.2 C 28 %
4168 03-04-2020 23:41:18 5 C 29 %
4169 03-04-2020 23:51:17 4.7 C 30 %
Sensor: Nr:Datum:Temp:Feuchte:
G-T/H 1 06-03-2020 00:08:17 9.4 C 75 %
2 06-03-2020 00:18:17 9.4 C 75 %
3 06-03-2020 00:28:18 9.5 C 75 %
4 06-03-2020 00:38:18 9.5 C 75 %
5 06-03-2020 00:48:17 9.5 C 75 %
6 06-03-2020 00:58:17 9.5 C 75 %
7 06-03-2020 01:08:18 9.5 C 75 %
8 06-03-2020 01:18:17 9.5 C 75 %
9 06-03-2020 01:28:17 9.5 C 75 %
10 06-03-2020 01:38:18 9.5 C 75 %
11 06-03-2020 01:48:17 9.5 C 75 %
12 06-03-2020 01:58:18 9.5 C 75 %
13 06-03-2020 02:08:18 9.5 C 75 %
14 06-03-2020 02:18:18 9.5 C 75 %
15 06-03-2020 02:28:18 9.5 C 75 %
16 06-03-2020 02:38:17 9.5 C 75 %
17 06-03-2020 02:48:17 9.5 C 75 %
18 06-03-2020 02:58:17 9.5 C 75 %
19 06-03-2020 03:08:17 9.5 C 75 %
20 06-03-2020 03:18:18 9.5 C 75 %
21 06-03-2020 03:28:18 9.5 C 75 %
22 06-03-2020 03:38:18 9.5 C 75 %
23 06-03-2020 03:48:17 9.5 C 75 %
24 06-03-2020 03:58:18 9.5 C 75 %
25 06-03-2020 04:08:17 9.5 C 75 %
Sensor: Nr:Datum:Temp:Feuchte:
G-T/H 26 06-03-2020 04:18:17 9.5 C 75 %
27 06-03-2020 04:28:17 9.5 C 75 %
28 06-03-2020 04:38:18 9.5 C 75 %
29 06-03-2020 04:48:17 9.5 C 75 %
30 06-03-2020 04:58:18 9.5 C 75 %
31 06-03-2020 05:08:18 9.5 C 75 %
32 06-03-2020 05:18:18 9.5 C 75 %
33 06-03-2020 05:28:18 9.5 C 75 %
34 06-03-2020 05:38:18 9.5 C 75 %
35 06-03-2020 05:48:17 9.5 C 75 %
36 06-03-2020 05:58:17 9.5 C 75 %
37 06-03-2020 06:08:17 9.5 C 75 %
38 06-03-2020 06:18:17 9.5 C 75 %
39 06-03-2020 06:28:17 9.5 C 75 %
40 06-03-2020 06:38:18 9.5 C 75 %
41 06-03-2020 06:48:17 9.5 C 75 %
42 06-03-2020 06:58:17 9.5 C 75 %
43 06-03-2020 07:08:17 9.5 C 75 %
44 06-03-2020 07:18:18 9.5 C 75 %
45 06-03-2020 07:28:18 9.5 C 75 %
46 06-03-2020 07:38:18 9.5 C 75 %
47 06-03-2020 07:48:17 9.5 C 75 %
48 06-03-2020 07:58:18 9.5 C 75 %
49 06-03-2020 08:08:17 9.5 C 75 %
50 06-03-2020 08:18:17 9.5 C 75 %
Sensor: Nr:Datum:Temp:Feuchte:
G-T/H 51 06-03-2020 08:28:17 9.5 C 75 %
52 06-03-2020 08:38:17 9.5 C 75 %
53 06-03-2020 08:48:18 9.5 C 75 %
54 06-03-2020 08:58:18 9.5 C 75 %
55 06-03-2020 09:08:17 9.5 C 75 %
56 06-03-2020 09:18:17 9.5 C 75 %
57 06-03-2020 09:28:17 9.5 C 75 %
58 06-03-2020 09:38:18 9.5 C 75 %
59 06-03-2020 09:48:18 9.5 C 75 %
60 06-03-2020 09:58:18 9.5 C 75 %
61 06-03-2020 10:08:18 9.5 C 75 %
62 06-03-2020 10:18:18 9.5 C 75 %
63 06-03-2020 10:28:18 9.5 C 75 %
64 06-03-2020 10:38:18 9.5 C 75 %
65 06-03-2020 10:48:17 9.5 C 75 %
66 06-03-2020 10:58:18 9.5 C 75 %
67 06-03-2020 11:08:18 9.5 C 75 %
68 06-03-2020 11:18:18 9.5 C 75 %
69 06-03-2020 11:28:18 9.5 C 75 %
70 06-03-2020 11:38:18 9.5 C 75 %
71 06-03-2020 11:48:17 9.5 C 75 %
72 06-03-2020 11:58:17 9.5 C 75 %
73 06-03-2020 12:08:17 9.5 C 75 %
74 06-03-2020 12:18:17 9.5 C 75 %
75 06-03-2020 12:28:17 9.5 C 75 %
Sensor: Nr:Datum:Temp:Feuchte:
G-T/H 76 06-03-2020 12:38:18 9.5 C 75 %
77 06-03-2020 12:48:18 9.5 C 75 %
78 06-03-2020 12:58:18 9.5 C 75 %
79 06-03-2020 13:08:18 9.5 C 75 %
80 06-03-2020 13:18:18 9.5 C 75 %
81 06-03-2020 13:28:18 9.5 C 75 %
82 06-03-2020 13:38:17 9.5 C 75 %
83 06-03-2020 13:48:17 9.5 C 75 %
84 06-03-2020 13:58:17 9.5 C 75 %
85 06-03-2020 14:08:17 9.5 C 75 %
86 06-03-2020 14:18:17 9.5 C 75 %
87 06-03-2020 14:28:17 9.5 C 75 %
88 06-03-2020 14:38:17 9.5 C 75 %
89 06-03-2020 14:48:17 9.5 C 75 %
90 06-03-2020 14:58:17 9.5 C 75 %
91 06-03-2020 15:08:17 9.5 C 75 %
92 06-03-2020 15:18:17 9.5 C 75 %
93 06-03-2020 15:28:17 9.5 C 75 %
94 06-03-2020 15:38:18 9.5 C 75 %
95 06-03-2020 15:48:17 9.5 C 75 %
96 06-03-2020 15:58:17 9.5 C 75 %
97 06-03-2020 16:08:17 9.5 C 75 %
98 06-03-2020 16:18:18 9.5 C 75 %
99 06-03-2020 16:28:18 9.5 C 75 %
100 06-03-2020 16:38:18 9.5 C 75 %
Sensor: Nr:Datum:Temp:Feuchte:
G-T/H 101 06-03-2020 16:48:17 9.5 C 75 %
102 06-03-2020 16:58:17 9.5 C 75 %
103 06-03-2020 17:08:18 9.5 C 75 %
104 06-03-2020 17:18:18 9.5 C 75 %
105 06-03-2020 17:28:18 9.5 C 75 %
106 06-03-2020 17:38:18 9.5 C 75 %
107 06-03-2020 17:48:17 9.5 C 75 %
108 06-03-2020 17:58:18 9.5 C 75 %
109 06-03-2020 18:08:18 9.5 C 75 %
110 06-03-2020 18:18:18 9.5 C 75 %
111 06-03-2020 18:28:18 9.5 C 75 %
112 06-03-2020 18:38:18 9.5 C 75 %
113 06-03-2020 18:48:17 9.5 C 75 %
114 06-03-2020 18:58:18 9.5 C 75 %
115 06-03-2020 19:08:18 9.5 C 75 %
116 06-03-2020 19:18:18 9.5 C 75 %
117 06-03-2020 19:28:18 9.5 C 75 %
118 06-03-2020 19:38:18 9.5 C 75 %
119 06-03-2020 19:48:17 9.5 C 75 %
120 06-03-2020 19:58:17 9.5 C 75 %
121 06-03-2020 20:08:18 9.5 C 75 %
122 06-03-2020 20:18:18 9.5 C 75 %
123 06-03-2020 20:28:18 9.5 C 75 %
124 06-03-2020 20:38:18 9.5 C 75 %
125 06-03-2020 20:48:17 9.5 C 75 %
Sensor: Nr:Datum:Temp:Feuchte:
G-T/H 126 06-03-2020 20:58:17 9.5 C 75 %
127 06-03-2020 21:08:17 9.5 C 75 %
128 06-03-2020 21:18:18 9.5 C 75 %
129 06-03-2020 21:28:18 9.5 C 75 %
130 06-03-2020 21:38:18 9.4 C 75 %
131 06-03-2020 21:48:17 9.4 C 75 %
132 06-03-2020 21:58:18 9.4 C 75 %
133 06-03-2020 22:08:17 9.4 C 75 %
134 06-03-2020 22:18:17 9.4 C 75 %
135 06-03-2020 22:28:18 9.5 C 75 %
136 06-03-2020 22:38:18 9.4 C 75 %
137 06-03-2020 22:48:17 9.5 C 75 %
138 06-03-2020 22:58:17 9.4 C 74 %
139 06-03-2020 23:08:18 9.4 C 74 %
140 06-03-2020 23:18:18 9.4 C 74 %
141 06-03-2020 23:28:18 9.4 C 74 %
142 06-03-2020 23:38:17 9.4 C 74 %
143 06-03-2020 23:48:17 9.4 C 74 %
144 06-03-2020 23:58:17 9.4 C 74 %
145 07-03-2020 00:08:17 9.4 C 74 %
146 07-03-2020 00:18:18 9.4 C 74 %
147 07-03-2020 00:28:18 9.4 C 74 %
148 07-03-2020 00:38:17 9.4 C 74 %
149 07-03-2020 00:48:17 9.4 C 74 %
150 07-03-2020 00:58:17 9.4 C 74 %
Sensor: Nr:Datum:Temp:Feuchte:
G-T/H 151 07-03-2020 01:08:17 9.4 C 74 %
152 07-03-2020 01:18:17 9.4 C 74 %
153 07-03-2020 01:28:17 9.4 C 74 %
154 07-03-2020 01:38:18 9.3 C 74 %
155 07-03-2020 01:48:18 9.3 C 74 %
156 07-03-2020 01:58:18 9.3 C 74 %
157 07-03-2020 02:08:18 9.3 C 74 %
158 07-03-2020 02:18:17 9.3 C 74 %
159 07-03-2020 02:28:17 9.3 C 74 %
160 07-03-2020 02:38:17 9.3 C 74 %
161 07-03-2020 02:48:18 9.3 C 74 %
162 07-03-2020 02:58:18 9.3 C 74 %
163 07-03-2020 03:08:18 9.3 C 74 %
164 07-03-2020 03:18:17 9.3 C 74 %
165 07-03-2020 03:28:17 9.3 C 74 %
166 07-03-2020 03:38:17 9.3 C 74 %
167 07-03-2020 03:48:17 9.3 C 74 %
168 07-03-2020 03:58:17 9.3 C 74 %
169 07-03-2020 04:08:18 9.3 C 74 %
170 07-03-2020 04:18:17 9.3 C 74 %
171 07-03-2020 04:28:17 9.3 C 74 %
172 07-03-2020 04:38:18 9.3 C 74 %
173 07-03-2020 04:48:17 9.3 C 74 %
174 07-03-2020 04:58:18 9.3 C 74 %
175 07-03-2020 05:08:18 9.3 C 74 %
Sensor: Nr:Datum:Temp:Feuchte:
G-T/H 176 07-03-2020 05:18:18 9.3 C 74 %
177 07-03-2020 05:28:18 9.3 C 74 %
178 07-03-2020 05:38:18 9.3 C 74 %
179 07-03-2020 05:48:18 9.3 C 74 %
180 07-03-2020 05:58:18 9.3 C 74 %
181 07-03-2020 06:08:17 9.2 C 74 %
182 07-03-2020 06:18:17 9.2 C 74 %
183 07-03-2020 06:28:17 9.2 C 74 %
184 07-03-2020 06:38:18 9.2 C 74 %
185 07-03-2020 06:48:17 9.2 C 74 %
186 07-03-2020 06:58:17 9.2 C 74 %
187 07-03-2020 07:08:18 9.2 C 74 %
188 07-03-2020 07:18:18 9.2 C 74 %
189 07-03-2020 07:28:18 9.2 C 74 %
190 07-03-2020 07:38:18 9.2 C 74 %
191 07-03-2020 07:48:17 9.2 C 74 %
192 07-03-2020 07:58:17 9.2 C 74 %
193 07-03-2020 08:08:18 9.2 C 74 %
194 07-03-2020 08:18:17 9.2 C 74 %
195 07-03-2020 08:28:17 9.2 C 74 %
196 07-03-2020 08:38:17 9.2 C 74 %
197 07-03-2020 08:48:17 9.2 C 74 %
198 07-03-2020 08:58:17 9.2 C 74 %
199 07-03-2020 09:08:17 9.2 C 74 %
200 07-03-2020 09:18:17 9.2 C 74 %
Sensor: Nr:Datum:Temp:Feuchte:
G-T/H 201 07-03-2020 09:28:17 9.2 C 74 %
202 07-03-2020 09:38:17 9.2 C 74 %
203 07-03-2020 09:48:17 9.2 C 74 %
204 07-03-2020 09:58:17 9.2 C 74 %
205 07-03-2020 10:08:17 9.2 C 74 %
206 07-03-2020 10:18:17 9.2 C 74 %
207 07-03-2020 10:28:17 9.2 C 74 %
208 07-03-2020 10:38:17 9.2 C 74 %
209 07-03-2020 10:48:18 9.2 C 74 %
210 07-03-2020 10:58:18 9.2 C 74 %
211 07-03-2020 11:08:18 9.2 C 74 %
212 07-03-2020 11:18:18 9.2 C 74 %
213 07-03-2020 11:28:18 9.2 C 74 %
214 07-03-2020 11:38:18 9.2 C 74 %
215 07-03-2020 11:48:17 9.2 C 74 %
216 07-03-2020 11:58:18 9.4 C 74 %
217 07-03-2020 12:08:18 9.4 C 74 %
218 07-03-2020 12:18:18 9.4 C 74 %
219 07-03-2020 12:28:18 9.4 C 74 %
220 07-03-2020 12:38:17 9.3 C 74 %
221 07-03-2020 12:48:18 9.4 C 74 %
222 07-03-2020 12:58:18 9.3 C 74 %
223 07-03-2020 13:08:17 9.3 C 74 %
224 07-03-2020 13:18:18 9.3 C 74 %
225 07-03-2020 13:28:18 9.3 C 74 %
Sensor: Nr:Datum:Temp:Feuchte:
G-T/H 226 07-03-2020 13:38:18 9.3 C 74 %
227 07-03-2020 13:48:18 9.3 C 74 %
228 07-03-2020 13:58:18 9.3 C 74 %
229 07-03-2020 14:08:17 9.3 C 74 %
230 07-03-2020 14:18:17 9.3 C 74 %
231 07-03-2020 14:28:17 9.4 C 74 %
232 07-03-2020 14:38:18 9.4 C 74 %
233 07-03-2020 14:48:17 9.4 C 74 %
234 07-03-2020 14:58:18 9.4 C 74 %
235 07-03-2020 15:08:18 9.5 C 74 %
236 07-03-2020 15:18:18 9.4 C 74 %
237 07-03-2020 15:28:18 9.4 C 74 %
238 07-03-2020 15:38:17 9.4 C 74 %
239 07-03-2020 15:48:18 9.5 C 74 %
240 07-03-2020 15:58:18 9.5 C 74 %
241 07-03-2020 16:08:17 9.5 C 74 %
242 07-03-2020 16:18:17 9.5 C 74 %
243 07-03-2020 16:28:17 9.5 C 74 %
244 07-03-2020 16:38:17 9.5 C 74 %
245 07-03-2020 16:48:18 9.5 C 74 %
246 07-03-2020 16:58:18 9.5 C 74 %
247 07-03-2020 17:08:18 9.5 C 74 %
248 07-03-2020 17:18:18 9.5 C 74 %
249 07-03-2020 17:28:18 9.5 C 74 %
250 07-03-2020 17:38:18 9.6 C 74 %
Sensor: Nr:Datum:Temp:Feuchte:
G-T/H 251 07-03-2020 17:48:18 9.6 C 74 %
252 07-03-2020 17:58:18 9.6 C 75 %
253 07-03-2020 18:08:17 9.5 C 75 %
254 07-03-2020 18:19:17 9.6 C 75 %
255 07-03-2020 18:28:17 9.6 C 75 %
256 07-03-2020 18:38:18 9.5 C 75 %
257 07-03-2020 18:48:18 9.6 C 75 %
258 07-03-2020 18:58:18 9.5 C 75 %
259 07-03-2020 19:08:17 9.6 C 75 %
260 07-03-2020 19:18:17 9.6 C 74 %
261 07-03-2020 19:28:17 9.6 C 74 %
262 07-03-2020 19:38:17 9.6 C 74 %
263 07-03-2020 19:48:18 9.6 C 74 %
264 07-03-2020 19:58:18 9.6 C 74 %
265 07-03-2020 20:08:18 9.6 C 74 %
266 07-03-2020 20:18:17 9.6 C 74 %
267 07-03-2020 20:28:17 9.6 C 74 %
268 07-03-2020 20:38:17 9.6 C 74 %
269 07-03-2020 20:49:17 9.6 C 74 %
270 07-03-2020 20:59:17 9.6 C 74 %
271 07-03-2020 21:09:17 9.6 C 74 %
272 07-03-2020 21:18:17 9.6 C 74 %
273 07-03-2020 21:28:17 9.6 C 74 %
274 07-03-2020 21:38:17 9.6 C 74 %
275 07-03-2020 21:48:18 9.6 C 74 %
Sensor: Nr:Datum:Temp:Feuchte:
G-T/H 276 07-03-2020 21:58:18 9.6 C 74 %
277 07-03-2020 22:08:17 9.6 C 74 %
278 07-03-2020 22:18:18 9.6 C 74 %
279 07-03-2020 22:28:18 9.6 C 74 %
280 07-03-2020 22:38:17 9.6 C 74 %
281 07-03-2020 22:49:17 9.6 C 74 %
282 07-03-2020 22:59:17 9.6 C 74 %
283 07-03-2020 23:09:17 9.6 C 74 %
284 07-03-2020 23:19:17 9.6 C 74 %
285 07-03-2020 23:29:17 9.6 C 74 %
286 07-03-2020 23:38:17 9.6 C 74 %
287 07-03-2020 23:48:18 9.6 C 74 %
288 07-03-2020 23:58:18 9.6 C 74 %
289 08-03-2020 00:08:18 9.6 C 74 %
290 08-03-2020 00:18:18 9.6 C 74 %
291 08-03-2020 00:28:18 9.6 C 74 %
292 08-03-2020 00:38:18 9.6 C 74 %
293 08-03-2020 00:48:18 9.6 C 74 %
294 08-03-2020 00:58:18 9.6 C 74 %
295 08-03-2020 01:08:17 9.6 C 74 %
296 08-03-2020 01:18:17 9.6 C 74 %
297 08-03-2020 01:28:17 9.6 C 75 %
298 08-03-2020 01:38:17 9.6 C 74 %
299 08-03-2020 01:49:17 9.6 C 75 %
300 08-03-2020 01:59:17 9.6 C 75 %
Sensor: Nr:Datum:Temp:Feuchte:
G-T/H 301 08-03-2020 02:09:17 9.6 C 75 %
302 08-03-2020 02:19:17 9.6 C 75 %
303 08-03-2020 02:29:17 9.6 C 75 %
304 08-03-2020 02:38:17 9.6 C 75 %
305 08-03-2020 02:48:17 9.6 C 75 %
306 08-03-2020 02:58:17 9.6 C 75 %
307 08-03-2020 03:08:18 9.6 C 75 %
308 08-03-2020 03:19:17 9.6 C 75 %
309 08-03-2020 03:29:17 9.6 C 75 %
310 08-03-2020 03:39:17 9.6 C 75 %
311 08-03-2020 03:48:18 9.6 C 75 %
312 08-03-2020 03:58:18 9.6 C 75 %
313 08-03-2020 04:08:18 9.6 C 75 %
314 08-03-2020 04:19:17 9.6 C 75 %
315 08-03-2020 04:29:17 9.6 C 75 %
316 08-03-2020 04:39:17 9.6 C 75 %
317 08-03-2020 04:49:17 9.6 C 75 %
318 08-03-2020 04:59:17 9.6 C 75 %
319 08-03-2020 05:09:17 9.6 C 75 %
320 08-03-2020 05:19:17 9.6 C 75 %
321 08-03-2020 05:29:17 9.6 C 75 %
322 08-03-2020 05:39:17 9.6 C 75 %
323 08-03-2020 05:49:17 9.6 C 75 %
324 08-03-2020 05:59:17 9.6 C 75 %
325 08-03-2020 06:09:17 9.6 C 75 %
Sensor: Nr:Datum:Temp:Feuchte:
G-T/H 326 08-03-2020 06:19:17 9.6 C 75 %
327 08-03-2020 06:29:18 9.6 C 75 %
328 08-03-2020 06:39:18 9.6 C 75 %
329 08-03-2020 06:49:17 9.6 C 75 %
330 08-03-2020 06:59:17 9.6 C 75 %
331 08-03-2020 07:09:17 9.6 C 75 %
332 08-03-2020 07:19:17 9.6 C 75 %
333 08-03-2020 07:29:17 9.6 C 75 %
334 08-03-2020 07:39:17 9.6 C 75 %
335 08-03-2020 07:49:17 9.6 C 75 %
336 08-03-2020 07:59:17 9.6 C 75 %
337 08-03-2020 08:09:17 9.6 C 75 %
338 08-03-2020 08:19:17 9.6 C 75 %
339 08-03-2020 08:29:17 9.6 C 75 %
340 08-03-2020 08:39:17 9.6 C 75 %
341 08-03-2020 08:49:17 9.6 C 75 %
342 08-03-2020 08:59:17 9.6 C 75 %
343 08-03-2020 09:09:17 9.6 C 75 %
344 08-03-2020 09:19:17 9.6 C 75 %
345 08-03-2020 09:29:18 9.6 C 75 %
346 08-03-2020 09:39:17 9.6 C 75 %
347 08-03-2020 09:49:17 9.6 C 75 %
348 08-03-2020 09:59:17 9.6 C 75 %
349 08-03-2020 10:09:17 9.6 C 75 %
350 08-03-2020 10:19:17 9.7 C 75 %
Sensor: Nr:Datum:Temp:Feuchte:
G-T/H 351 08-03-2020 10:29:17 9.7 C 75 %
352 08-03-2020 10:39:17 9.7 C 75 %
353 08-03-2020 10:49:17 9.7 C 75 %
354 08-03-2020 10:59:18 9.7 C 75 %
355 08-03-2020 11:09:17 9.7 C 75 %
356 08-03-2020 11:19:16 9.7 C 75 %
357 08-03-2020 11:29:16 9.7 C 75 %
358 08-03-2020 11:39:17 9.7 C 75 %
359 08-03-2020 11:49:16 9.8 C 75 %
360 08-03-2020 11:59:16 9.8 C 75 %
361 08-03-2020 12:09:17 9.8 C 75 %
362 08-03-2020 12:19:17 9.8 C 75 %
363 08-03-2020 12:29:17 9.9 C 75 %
364 08-03-2020 12:39:17 9.8 C 75 %
365 08-03-2020 12:49:17 9.9 C 75 %
366 08-03-2020 12:59:18 9.9 C 75 %
367 08-03-2020 13:09:17 9.9 C 75 %
368 08-03-2020 13:19:16 10 C 74 %
369 08-03-2020 13:29:16 10 C 74 %
370 08-03-2020 13:39:16 10 C 74 %
371 08-03-2020 13:49:17 10 C 74 %
372 08-03-2020 13:59:17 10 C 74 %
373 08-03-2020 14:09:17 10 C 74 %
374 08-03-2020 14:19:16 10.1 C 74 %
375 08-03-2020 14:29:16 10.1 C 74 %
Sensor: Nr:Datum:Temp:Feuchte:
G-T/H 376 08-03-2020 14:39:16 10.1 C 74 %
377 08-03-2020 14:49:16 10.1 C 74 %
378 08-03-2020 14:59:16 10.1 C 74 %
379 08-03-2020 15:09:16 10.1 C 74 %
380 08-03-2020 15:19:17 10.2 C 74 %
381 08-03-2020 15:29:17 10.2 C 74 %
382 08-03-2020 15:39:17 10.2 C 74 %
383 08-03-2020 15:49:17 10.2 C 74 %
384 08-03-2020 15:59:17 10.2 C 74 %
385 08-03-2020 16:09:17 10.2 C 74 %
386 08-03-2020 16:19:17 10.2 C 74 %
387 08-03-2020 16:29:17 10.3 C 74 %
388 08-03-2020 16:39:17 10.3 C 74 %
389 08-03-2020 16:49:17 10.3 C 74 %
390 08-03-2020 16:59:17 10.4 C 74 %
391 08-03-2020 17:09:17 10.4 C 74 %
392 08-03-2020 17:19:17 10.4 C 74 %
393 08-03-2020 17:29:17 10.4 C 74 %
394 08-03-2020 17:39:17 10.4 C 74 %
395 08-03-2020 17:49:16 10.4 C 74 %
396 08-03-2020 17:59:16 10.5 C 74 %
397 08-03-2020 18:09:17 10.5 C 74 %
398 08-03-2020 18:19:17 10.4 C 75 %
399 08-03-2020 18:29:18 10.5 C 75 %
400 08-03-2020 18:39:17 10.5 C 75 %
Sensor: Nr:Datum:Temp:Feuchte:
G-T/H 401 08-03-2020 18:49:16 10.5 C 75 %
402 08-03-2020 18:59:16 10.5 C 75 %
403 08-03-2020 19:09:17 10.5 C 75 %
404 08-03-2020 19:19:16 10.5 C 75 %
405 08-03-2020 19:29:16 10.5 C 75 %
406 08-03-2020 19:39:17 10.5 C 75 %
407 08-03-2020 19:49:16 10.6 C 75 %
408 08-03-2020 19:59:16 10.6 C 75 %
409 08-03-2020 20:09:16 10.6 C 75 %
410 08-03-2020 20:19:16 10.6 C 75 %
411 08-03-2020 20:29:16 10.6 C 75 %
412 08-03-2020 20:39:17 10.6 C 75 %
413 08-03-2020 20:49:16 10.6 C 75 %
414 08-03-2020 20:59:16 10.6 C 75 %
415 08-03-2020 21:09:17 10.7 C 75 %
416 08-03-2020 21:19:17 10.7 C 75 %
417 08-03-2020 21:29:17 10.6 C 75 %
418 08-03-2020 21:39:17 10.6 C 75 %
419 08-03-2020 21:49:17 10.7 C 75 %
420 08-03-2020 21:59:17 10.7 C 75 %
421 08-03-2020 22:09:17 10.7 C 75 %
422 08-03-2020 22:19:16 10.7 C 75 %
423 08-03-2020 22:29:16 10.7 C 75 %
424 08-03-2020 22:39:17 10.7 C 75 %
425 08-03-2020 22:49:16 10.7 C 75 %
Sensor: Nr:Datum:Temp:Feuchte:
G-T/H 426 08-03-2020 22:59:16 10.7 C 75 %
427 08-03-2020 23:09:16 10.7 C 75 %
428 08-03-2020 23:19:16 10.7 C 75 %
429 08-03-2020 23:29:16 10.7 C 75 %
430 08-03-2020 23:39:16 10.7 C 75 %
431 08-03-2020 23:49:16 10.7 C 75 %
432 08-03-2020 23:59:16 10.7 C 75 %
433 09-03-2020 00:09:17 10.7 C 75 %
434 09-03-2020 00:19:16 10.7 C 75 %
435 09-03-2020 00:29:16 10.7 C 75 %
436 09-03-2020 00:39:16 10.7 C 75 %
437 09-03-2020 00:49:16 10.7 C 75 %
438 09-03-2020 00:59:16 10.7 C 75 %
439 09-03-2020 01:09:16 10.7 C 75 %
440 09-03-2020 01:19:16 10.7 C 75 %
441 09-03-2020 01:29:16 10.7 C 75 %
442 09-03-2020 01:39:16 10.7 C 75 %
443 09-03-2020 01:49:16 10.7 C 75 %
444 09-03-2020 01:59:16 10.7 C 75 %
445 09-03-2020 02:09:16 10.7 C 75 %
446 09-03-2020 02:19:16 10.7 C 75 %
447 09-03-2020 02:29:16 10.7 C 75 %
448 09-03-2020 02:39:16 10.7 C 75 %
449 09-03-2020 02:49:17 10.7 C 75 %
450 09-03-2020 02:59:17 10.7 C 75 %
Sensor: Nr:Datum:Temp:Feuchte:
G-T/H 451 09-03-2020 03:09:17 10.7 C 75 %
452 09-03-2020 03:19:17 10.7 C 75 %
453 09-03-2020 03:29:17 10.7 C 75 %
454 09-03-2020 03:39:17 10.7 C 75 %
455 09-03-2020 03:49:17 10.7 C 75 %
456 09-03-2020 03:59:17 10.7 C 75 %
457 09-03-2020 04:09:17 10.7 C 75 %
458 09-03-2020 04:19:17 10.7 C 75 %
459 09-03-2020 04:29:17 10.7 C 75 %
460 09-03-2020 04:39:18 10.7 C 75 %
461 09-03-2020 04:49:17 10.7 C 75 %
462 09-03-2020 04:59:17 10.7 C 75 %
463 09-03-2020 05:09:18 10.7 C 75 %
464 09-03-2020 05:19:17 10.7 C 75 %
465 09-03-2020 05:29:17 10.7 C 75 %
466 09-03-2020 05:39:17 10.7 C 75 %
467 09-03-2020 05:49:17 10.6 C 75 %
468 09-03-2020 05:59:17 10.6 C 75 %
469 09-03-2020 06:09:17 10.6 C 75 %
470 09-03-2020 06:19:17 10.6 C 75 %
471 09-03-2020 06:29:17 10.6 C 75 %
472 09-03-2020 06:39:18 10.6 C 75 %
473 09-03-2020 06:49:17 10.6 C 75 %
474 09-03-2020 06:59:18 10.6 C 75 %
475 09-03-2020 07:09:18 10.6 C 75 %
Sensor: Nr:Datum:Temp:Feuchte:
G-T/H 476 09-03-2020 07:19:18 10.5 C 75 %
477 09-03-2020 07:29:18 10.5 C 75 %
478 09-03-2020 07:39:17 10.5 C 75 %
479 09-03-2020 07:49:17 10.5 C 75 %
480 09-03-2020 07:59:17 10.5 C 75 %
481 09-03-2020 08:09:17 10.5 C 75 %
482 09-03-2020 08:19:17 10.5 C 74 %
483 09-03-2020 08:29:17 10.5 C 74 %
484 09-03-2020 08:39:18 10.5 C 74 %
485 09-03-2020 08:49:17 10.5 C 74 %
486 09-03-2020 08:59:17 10.5 C 74 %
487 09-03-2020 09:09:17 10.5 C 74 %
488 09-03-2020 09:19:17 10.4 C 74 %
489 09-03-2020 09:29:17 10.4 C 74 %
490 09-03-2020 09:39:17 10.5 C 74 %
491 09-03-2020 09:49:17 10.5 C 74 %
492 09-03-2020 09:59:17 10.4 C 74 %
493 09-03-2020 10:09:17 10.4 C 74 %
494 09-03-2020 10:19:17 10.4 C 74 %
495 09-03-2020 10:29:17 10.4 C 74 %
496 09-03-2020 10:39:17 10.4 C 74 %
497 09-03-2020 10:49:17 10.4 C 74 %
498 09-03-2020 10:59:17 10.4 C 74 %
499 09-03-2020 11:09:17 10.4 C 74 %
500 09-03-2020 11:19:17 10.4 C